     2              OBSERVATION DATA    GPS                 RINEX VERSION / TYPE
teqc 2000Feb29 Duncan Agnew 20000426 17:39:28UTC            PGM / RUN BY / DATE
                                                            COMMENT
L2: 1 -> 1; 150 -> 5; 250 -> 9                              COMMENT
L2: 1 -> 1; 150 -> 5; 250 -> 9                              COMMENT
L2: 1 -> 1; 150 -> 5; 250 -> 9                              COMMENT
L2: 1 -> 1; 150 -> 5; 250 -> 9                              COMMENT
L2: 1 -> 1; 150 -> 5; 250 -> 9                              COMMENT
Original Marker Name: ASIA                                  COMMENT
Campaign Name: Hector Postseismic                           COMMENT
4-Character Station Name: ASIA                              COMMENT
6-Character Antenna Code: DMRCHT                            COMMENT
Vertical Measurement Point: BCR                             COMMENT
Vertical Offset to Rinex Ref. Point: 0.0348                 COMMENT
Radial Measurement Point: ECF                               COMMENT
Radial Offset to Rinex Ref. Point: 0.1897                   COMMENT
Antenna Height from Field Measurement: 0.5790 m             COMMENT
Additional Antenna Identification Info.:                    COMMENT
Turborogue and Ashtech Choke Ring                           COMMENT
Original XYZ: 0.0000 0.0000 0.0000                          COMMENT
New XYZ position is based on association with SCEC monument COMMENT
E1F2H6G1+0011. Position of that monument is believed to be  COMMENT
valid to within 1 m horizontally; vertical accuracy         COMMENT
should be no worse than 3-times this value.                 COMMENT
                                                            COMMENT
Revised Rinex header created by UCSD GPS archive for        COMMENT
GSAC on 31-Jul-2000 (2000:213) 18:04:27 GMT                 COMMENT
For assistance contact dagnew@ucsd.edu                      COMMENT
or anderson@python.ucsd.edu                                 COMMENT
                                                            COMMENT
ASIA                                                        MARKER NAME
SIO SCRIPPS INSTITUTION OF OCEANOGRAPHY                     OBSERVER / AGENCY
319 ASHTECH Z-XII3 CC00                                     REC # / TYPE / VERS
756 DORNE-MARGOL. TYPE T                                    ANT # / TYPE
 -2333513.9775 -4724745.7831  3582881.3331                  APPROX POSITION XYZ
        0.5122        0.0000        0.0000                  ANTENNA: DELTA H/E/N
     1     1     0                                          WAVELENGTH FACT L1/2
     7    C1    L1    L2    P1    P2    S1    S2            # / TYPES OF OBSERV
     0                                                      INTERVAL
  2000     4    17    17    52    0.000000                  TIME OF FIRST OBS
  2000     4    17    23    59   30.000000                  TIME OF LAST OBS
                                                            END OF HEADER
 00  4 17 17 52  0.0000000  0  5G 2G24G 4G 9G16
  23123948.467      166151.22649    117862.00746  23123949.103    23123962.887
       221.000         164.000
  21481902.769     -173999.94249   -121333.21147  21481902.918    21481914.888
       238.000         197.000
                       328.96049       397.57345
       245.000         132.000
  21329558.498        7517.54949      5582.58847  21329558.524    21329568.497
       243.000         207.000
                    -57718.80749    -41420.01243
       213.000          74.000
 00  4 17 17 52 30.0000000  0  7G 2G24G 4G 5G 7G 9G16
  23137899.142      239459.09349    174984.74546  23137899.735    23137912.229
       220.000         168.000
  21467755.162     -248348.48749   -179267.05647  21467754.723    21467767.017
       237.000         198.000
                      1547.79349      1347.34345
       245.000         138.000
  23021815.583     -229330.08548   -168248.82045  23021813.980    23021828.377
       184.000         162.000
  22396812.122      179645.24649    131283.62346  22396811.850    22396821.177
       231.000         186.000
  21330338.855       11616.08549      8776.20447  21330338.674    21330348.493
       244.000         208.000
  24556048.086      -82565.18749    -60780.74945  24556046.853    24556059.871
       212.000         144.000
 00  4 17 17 53  0.0000000  0  7G 2G24G 4G 5G 7G 9G16
  23023332.086     -362599.90649   -294152.41246  23023330.870    23023344.515
       220.000         168.000
  21325109.472     -997956.15349   -763376.82247  21325109.184    21325121.662
       239.000         199.000
                   -672255.37449   -525331.78443
       244.000          77.000
  22877919.951     -985491.17249   -757465.10846  22877921.335    22877933.869
       222.000         166.000
  22280266.243     -432804.45849   -345949.95046  22280266.542    22280276.115
       231.000         187.000
  21202651.001     -659388.09549   -514084.23847  21202650.860    21202660.725
       242.000         208.000
  24422839.790     -782584.50649   -606250.24145  24422839.320    24422851.382
       210.000         148.000
 00  4 17 17 53 30.0000000  0  7G 2G24G 4G 5G 7G 9G16
  23036763.316     -292017.79149   -239153.68946  23036763.850    23036777.190
       220.000         167.000
  21310486.159    -1074801.69049   -823256.36847  21310485.938    21310498.434
       238.000         199.000
                   -673062.12349   -526215.52843
       244.000          79.000
  22861987.900    -1069219.63649   -822707.92946  22861988.475    22862001.201
       222.000         167.000
  22291685.141     -372800.36149   -299193.56146  22291685.128    22291694.234
       232.000         187.000
  21203012.367     -657489.52649   -512604.88847  21203012.440    21203022.427
       243.000         208.000
  24417661.214     -809794.99749   -627453.11945  24417661.545    24417674.016
       213.000         149.000
 00  4 17 17 54  0.0000000  0  7G 2G24G 4G 5G 7G 9G16
  23050252.478     -221132.49749   -183918.70246  23050252.352    23050265.901
       220.000         167.000
  21295944.957    -1151215.77749   -882799.72247  21295944.954    21295957.001
       239.000         199.000
                   -673222.96849   -526601.33443
       244.000          83.000
  22846069.940    -1152871.32449   -887890.93146  22846070.245    22846082.931
       221.000         168.000
  22303123.224     -312694.25349   -252357.67946  22303123.379    22303132.969
       232.000         186.000
  21203481.353     -655025.04449   -510684.56247  21203481.375    21203491.334
       244.000         208.000
  24412572.289     -836537.70949   -648291.52745  24412571.369    24412584.246
       213.000         151.000
 00  4 17 17 54 30.0000000  0  7G 2G24G 4G 5G 7G 9G16
  23063795.207     -149965.57649   -128464.27646  23063795.686    23063809.069
       219.000         167.000
  21281486.969    -1227192.71749   -942002.44347  21281487.013    21281498.548
       238.000         200.000
                   -672765.32449   -532205.45147                  20227140.230
       244.000         200.000
  22830161.320    -1236472.36649   -953034.47446  22830161.218    22830173.518
       219.000         168.000
  22314575.494     -252512.65849   -205462.97446  22314575.361    22314584.409
       232.000         186.000
  21204058.699     -651991.26149   -508320.62147  21204058.985    21204068.713
       243.000         208.000
  24407570.146     -862823.60449   -668773.94445  24407569.961    24407581.712
       211.000         151.000
 00  4 17 17 55  0.0000000  0  7G 2G24G 4G 5G 7G 9G16
  23077394.042      -78504.42849    -72780.59246  23077394.362    23077407.990
       221.000         167.000
  21267114.314    -1302721.33449  -1000855.81347  21267114.033    21267125.943
       238.000         200.000
  20227339.429     -671670.34449   -531352.20647  20227339.894    20227348.368
       244.000         211.000
  22814263.812    -1320014.63149  -1018132.20546  22814263.704    22814275.965
       222.000         168.000
  22326040.388     -192264.44449   -158516.35646  22326040.324    22326049.407
       232.000         186.000
  21204749.403     -648361.69649   -505492.43147  21204749.527    21204759.315
       243.000         208.000
  24402652.119     -888666.82649   -688911.41445  24402651.356    24402664.043
       209.000         148.000
 00  4 17 17 55 30.0000000  0  7G 2G24G 4G 5G 7G 9G16
  23091051.477       -6735.06049    -16856.73546  23091052.547    23091065.225
       221.000         166.000
  21252827.644    -1377797.98449  -1059357.01947  21252827.634    21252839.573
       239.000         200.000
  20227671.282     -669926.57749   -529993.43148  20227671.884    20227680.346
       245.000         213.000
  22798381.802    -1403475.46249  -1083166.49846  22798381.359    22798394.038
       222.000         169.000
  22337520.498     -131936.38149   -111507.53346  22337520.247    22337529.619
       232.000         186.000
  21205557.616     -644114.59349   -502183.06347  21205557.768    21205567.785
       243.000         208.000
  24397821.526     -914051.65049   -708691.71845  24397821.220    24397833.300
       209.000         148.000
 00  4 17 17 56  0.0000000  0  7G 2G24G 4G 5G 7G 9G16
  23104765.352       65330.71249     39298.13046  23104765.174    23104779.113
       219.000         166.000
  21238624.651    -1452435.22749  -1117515.81147  21238624.396    21238636.471
       238.000         201.000
  20228124.200     -667546.79349   -528139.03748  20228124.511    20228132.956
       243.000         213.000
  22782516.545    -1486848.01149  -1148131.97546  22782516.402    22782528.400
       222.000         169.000
  22349018.310      -71515.57249    -64426.42146  22349017.977    22349027.614
       230.000         185.000
  21206483.793     -639247.77649   -498390.77647  21206483.917    21206493.759
       242.000         208.000
  24393082.283     -938955.91549   -728097.54345  24393082.251    24393095.038
       209.000         149.000
 00  4 17 17 56 30.0000000  0  7G 2G24G 4G 5G 7G 9G16
  23118533.687      137683.13049     95676.30446  23118533.502    23118547.485
       219.000         165.000
  21224504.468    -1526637.00049  -1175335.28547  21224504.201    21224516.054
       238.000         201.000
  20228696.704     -664538.15249   -525794.63548  20228696.785    20228705.336
       243.000         213.000
  22766671.025    -1570116.94249  -1213016.72946  22766671.201    22766682.767
       221.000         170.000
  22360533.934      -11001.07249    -17272.31746  22360533.725    22360543.110
       230.000         185.000
  21207527.103     -633765.56349   -494118.97347  21207527.254    21207537.072
       242.000         208.000
  24388432.308     -963391.41649   -747138.09545  24388430.221    24388444.005
       206.000         147.000
 00  4 17 17 57  0.0000000  0  7G 2G24G 4G 5G 7G 9G16
  23132357.126      210324.37849    152279.56246  23132357.532    23132371.307
       220.000         165.000
  21210464.618    -1600416.66349  -1232825.84647  21210464.231    21210476.479
       240.000         201.000
  20229386.338     -660914.17449   -522970.75248  20229386.517    20229395.218
       245.000         213.000
  22750846.081    -1653277.27849  -1277816.86546  22750845.248    22750857.787
       223.000         170.000
  22372067.095       49605.77849     29953.75246  22372067.430    22372076.328
       231.000         185.000
  21208684.487     -627683.78649   -489379.97447  21208684.243    21208694.429
       244.000         208.000
  24383872.938     -987350.19949   -765807.18145  24383872.626    24383884.632
       208.000         146.000
 00  4 17 17 57 30.0000000  0  7G 2G24G 4G 5G 7G 9G16
  23146231.216      283231.66349    209090.10846  23146231.357    23146245.987
       219.000         165.000
  21196502.606    -1673787.26549  -1289997.65347  21196502.507    21196514.438
       241.000         201.000
  20230186.031     -656711.81349   -519696.18748  20230186.393    20230195.101
       246.000         214.000
  22735042.032    -1736328.07449  -1342531.63546  22735041.328    22735054.267
       223.000         171.000
  22383615.069      110290.33249     77240.36746  22383614.956    22383624.570
       231.000         185.000
  21209951.580     -621025.31849   -484191.60847  21209951.766    21209962.022
       244.000         208.000
  24379405.798    -1010825.32049   -784099.40145  24379406.108    24379417.747
       210.000         146.000
 00  4 17 17 58  0.0000000  0  7G 2G24G 4G 5G 7G 9G16
  23160151.060      356379.64649    266088.19446  23160151.141    23160165.592
       219.000         164.000
  21182615.624    -1746763.77249  -1346862.37647  21182615.490    21182627.050
       241.000         202.000
  20231089.808     -651962.81449   -515995.66448  20231090.208    20231098.617
       245.000         214.000
  22719256.684    -1819280.47649  -1407169.73646  22719256.326    22719268.313
       224.000         171.000
  22395172.838      171026.54349    124567.23346  22395172.495    22395182.346
       230.000         184.000
  21211325.303     -613806.71049   -478566.76347  21211325.535    21211335.544
       244.000         208.000
  24375024.995    -1033846.10549   -802037.56145  24375024.672    24375035.788
       211.000         144.000
 00  4 17 17 58 30.0000000  0  7G 2G24G 4G 5G 7G 9G16
  23174116.024      429764.54149    323270.91546  23174116.163    23174130.321
       217.000         164.000
  21168801.791    -1819355.88149  -1403427.57647  21168801.714    21168813.464
       240.000         202.000
  20232098.074     -646664.38549   -511867.02248  20232098.470    20232106.939
       244.000         214.000
  22703486.930    -1902150.98449  -1471744.03546  22703486.313    22703498.895
       223.000         172.000
  22406734.560      231783.44149    171910.22246  22406734.530    22406743.528
       229.000         184.000
  21212801.917     -606047.49249   -472520.67047  21212802.253    21212811.962
       243.000         208.000
  24370727.571    -1056430.41149   -819635.67745  24370727.806    24370738.222
       213.000         143.000
 00  4 17 17 59  0.0000000  0  7G 2G24G 4G 5G 7G 9G16
  23188128.479      503399.27949    380648.29646  23188129.572    23188144.064
       220.000         164.000
  21155061.346    -1891562.13649  -1459692.11347  21155061.296    21155073.076
       241.000         203.000
  20233214.371     -640798.44749   -507296.17148  20233214.747    20233223.210
       245.000         214.000
  22687729.711    -1984955.42349  -1536266.85546  22687729.612    22687741.758
       225.000         172.000
  22418299.367      292556.64149    219265.90346  22418299.564    22418308.053
       231.000         184.000
  21214381.398     -597747.58849   -466053.26447  21214381.499    21214391.551
       244.000         208.000
  24366517.225    -1078555.82049   -836876.18645  24366515.482    24366528.034
       211.000         144.000
 00  4 17 17 59 30.0000000  0  7G 2G24G 4G 5G 7G 9G16
  23202187.195      577276.70149    438214.80746  23202187.890    23202201.749
       217.000         163.000
  21141397.830    -1963364.25249  -1515641.72347  21141397.535    21141409.281
       241.000         203.000
  20234442.479     -634344.74149   -502267.30248  20234442.847    20234451.308
       245.000         214.000
  22671985.844    -2067689.80749  -1600735.06246  22671984.782    22671997.731
       225.000         172.000
  22429868.671      353353.36149    266639.92546  22429868.495    22429878.432
       230.000         183.000
  21216066.218     -588893.88849   -459154.31447  21216066.393    21216076.350
       243.000         208.000
  24362393.857    -1100223.72349   -853760.18545  24362393.426    24362404.529
       211.000         144.000
 00  4 17 18  0  0.0000000  0  7G 2G24G 4G 5G 7G 9G16
  23216297.010      651423.04849    495990.86045  23216298.551    23216311.498
       218.000         162.000
  21127816.860    -2034732.44649  -1571253.22647  21127816.817    21127828.391
       241.000         203.000
  20235789.209     -627267.64949   -496752.69348  20235789.664    20235798.224
       245.000         214.000
  22656256.559    -2150347.19649  -1665143.28546  22656255.751    22656267.858
       225.000         173.000
  22441447.505      414200.29249    314053.06446  22441447.349    22441456.376
       229.000         183.000
  21217858.280     -579477.07949   -451816.58947  21217858.822    21217868.469
       243.000         208.000
  24358361.629    -1121413.19049   -870271.41545  24358361.907    24358373.923
       210.000         143.000
 00  4 17 18  0 30.0000000  0  7G 2G24G 4G 5G 7G 9G16
  23230461.136      725854.62449    553989.19145  23230460.987    23230476.795
       218.000         162.000
  21114322.892    -2105643.59649  -1626508.58447  21114322.649    21114334.273
       242.000         203.000
  20237257.265     -619553.00449   -490741.28248  20237257.598    20237266.005
       246.000         214.000
  22640542.400    -2232925.08849  -1729489.56446  22640541.679    22640554.099
       225.000         173.000
  22453040.559      475121.74149    361524.28246  22453040.054    22453050.239
       230.000         183.000
  21219758.401     -569492.16649   -444036.17947  21219758.487    21219768.453
       244.000         208.000
  24354423.983    -1142105.66449   -886395.35645  24354423.384    24354434.138
       210.000         143.000
 00  4 17 18  1  0.0000000  0  7G 2G24G 4G 5G 7G 9G16
  23244678.082      800564.10049    612204.03845  23244678.494    23244693.260
       217.000         161.000
  21100919.229    -2176080.09949  -1681394.08747  21100918.988    21100930.456
       241.000         204.000
  20238843.919     -611215.17049   -484244.26848  20238844.070    20238852.722
       244.000         214.000
  22624847.411    -2315402.33549  -1793757.40546  22624846.914    22624857.964
       224.000         173.000
  22464652.498      536142.59849    409072.96346  22464651.555    22464661.694
       229.000         183.000
  21221769.276     -558925.17249   -435802.19847  21221769.195    21221779.234
       243.000         208.000
  24350579.607    -1162306.69849   -902136.35745  24350578.096    24350590.479
       206.000         144.000
 00  4 17 18  1 30.0000000  0  7G 2G24G 4G 5G 7G 9G16
  23258945.383      875537.84049    670624.79545  23258946.426    23258960.305
       216.000         160.000
  21087605.066    -2246046.32249  -1735913.14447  21087604.785    21087616.728
       241.000         204.000
  20240545.540     -602273.29649   -477276.57948  20240545.782    20240554.422
       244.000         214.000
  22609173.878    -2397766.83749  -1857937.40346  22609173.345    22609185.298
       225.000         174.000
  22476283.293      597262.65949    456698.94146  22476282.603    22476292.021
       228.000         182.000
  21223890.757     -547776.70149   -427115.12347  21223890.616    21223900.812
       243.000         208.000
  24346824.042    -1182040.56249   -917513.33145  24346822.685    24346835.621
       209.000         143.000
 00  4 17 18  2  0.0000000  0  7G 2G24G 4G 5G 7G 9G16
  23273265.453      950789.14249    729261.85945  23273265.534    23273281.826
       216.000         160.000
  21074377.733    -2315556.25349  -1790076.65747  21074377.672    21074389.100
       242.000         204.000
  20242358.908     -592744.14249   -469851.27148  20242359.316    20242367.770
       245.000         214.000
  22593520.650    -2480024.63849  -1922034.26846  22593519.592    22593532.399
       224.000         174.000
  22487929.707      658465.04849    504389.06246  22487929.001    22487938.900
       229.000         182.000
  21226121.530     -536054.09749   -417980.67847  21226121.672    21226131.760
       244.000         208.000
  24343155.977    -1201315.90549   -932533.05145  24343155.624    24343167.869
       207.000         143.000
 00  4 17 18  2 30.0000000  0  7G 2G24G 4G 5G 7G 9G16
  23287636.320     1026307.21649    788106.77745  23287637.104    23287651.543
       216.000         159.000
  21061234.569    -2384623.84749  -1843895.48447  21061234.261    21061245.884
       241.000         204.000
  20244280.061     -582648.63349   -461984.63748  20244280.356    20244288.971
       244.000         214.000
  22577884.886    -2562190.84649  -1986059.75646  22577884.036    22577896.203
       226.000         174.000
  22499588.113      719730.03949    552127.96246  22499587.420    22499597.093
       228.000         182.000
  21228460.834     -523761.23449   -408401.86847  21228461.072    21228471.182
       242.000         208.000
  24339572.872    -1220144.40549   -947204.54945  24339573.074    24339583.696
       209.000         142.000
 00  4 17 18  3  0.0000000  0  7G 2G24G 4G 5G 7G 9G16
  23302056.848     1102086.20149    847155.01645  23302057.062    23302072.997
       215.000         159.000
  21048173.495    -2453260.08949  -1897378.19047  21048173.203    21048184.668
       241.000         205.000
  20246309.652     -571983.03849   -453673.78148  20246309.861    20246318.238
       244.000         214.000
  22562267.669    -2644259.44949  -2050009.19746  22562266.828    22562279.099
       225.000         175.000
  22511252.319      781025.34949    599890.50146  22511251.895    22511261.453
       228.000         182.000
  21230906.402     -510910.23049   -398388.14547  21230906.419    21230916.658
       243.000         208.000
  24336076.715    -1238517.47049   -961521.21145  24336076.775    24336088.161
       209.000         144.000
 00  4 17 18  3 30.0000000  0  7G 2G24G 4G 5G 7G 9G16
  23316529.368     1178138.46949    906416.18245  23316530.592    23316544.543
       214.000         159.000
  21035193.729    -2521468.71149  -1950527.69347  21035193.449    21035205.051
       241.000         205.000
  20248449.990     -560735.50249   -444909.47148  20248450.320    20248458.780
       244.000         214.000
  22546667.198    -2726240.01049  -2113890.03246  22546666.917    22546678.586
       227.000         175.000
  22522920.203      842340.31849    647668.34946  22522919.697    22522929.446
       227.000         181.000
  21233455.860     -497512.97649   -387948.78147  21233456.004    21233466.302
       242.000         208.000
  24332671.510    -1256411.37349   -975464.44745  24332670.653    24332683.125
       211.000         144.000
 00  4 17 18  4  0.0000000  0  7G 2G24G 4G 5G 7G 9G16
  23331053.645     1254462.50949    965889.11545  23331054.247    23331069.343
       215.000         158.000
  21022296.675    -2589242.92649  -2003338.69247  21022296.647    21022308.335
       241.000         205.000
  20250702.356     -548899.39349   -435686.52848  20250702.630    20250711.255
       245.000         213.000
  22531082.564    -2808137.54849  -2177706.17646  22531082.446    22531093.689
       226.000         176.000
  22534592.769      903679.95349    695465.40846  22534592.716    22534602.095
       228.000         181.000
  21236108.532     -483573.45049   -377086.86947  21236108.838    21236119.146
       243.000         208.000
  24329361.978    -1273803.09449   -989016.43945  24329361.274    24329372.559
       210.000         145.000
 00  4 17 18  4 30.0000000  0  7G 2G24G 4G 5G 7G 9G16
  23345626.586     1331042.67649   1025561.63245  23345626.439    23345642.206
       214.000         158.000
  21009483.771    -2656574.99049  -2055805.15147  21009483.667    21009495.377
       241.000         205.000
  20253067.984     -536468.02549   -425999.74048  20253068.383    20253076.736
       244.000         213.000
  22515515.736    -2889941.41649  -2241449.32246  22515514.943    22515527.529
       226.000         176.000
  22546274.472      965067.35849    743299.70246  22546274.249    22546284.033
       227.000         181.000
  21238864.186     -469092.85949   -365803.34647  21238864.260    21238874.493
       242.000         208.000
  24326149.747    -1290683.61549  -1002170.04945  24326149.117    24326161.804
       209.000         146.000
 00  4 17 18  5  0.0000000  0  7G 2G24G 4G 5G 7G 9G16
  23360248.438     1407879.64249   1085434.22645  23360248.696    23360263.073
       215.000         157.000
  20996755.361    -2723463.12249  -2107925.69147  20996755.049    20996766.616
       241.000         206.000
  20255550.181     -523424.07549   -415835.61848  20255550.514    20255558.925
       244.000         213.000
  22499970.578    -2971631.45749  -2305103.77446  22499969.565    22499981.432
       226.000         176.000
  22557968.880     1026521.42649    791185.94246  22557968.104    22557977.988
       227.000         181.000
  21241725.650     -454056.19349   -354086.52147  21241725.809    21241735.750
       243.000         208.000
  24323033.810    -1307058.25649  -1014929.49945  24323033.524    24323045.698
       210.000         146.000
 00  4 17 18  5 30.0000000  0  7G 2G24G 4G 5G 7G 9G16
  23374921.838     1484987.45249   1145517.89945  23374922.428    23374936.834
       216.000         157.000
  20984112.235    -2789903.09749  -2159697.01847  20984111.932    20984123.576
       242.000         206.000
  20258148.708     -509768.83549   -405195.16748  20258148.935    20258157.628
       245.000         213.000
  22484446.505    -3053210.66549  -2368671.87246  22484445.922    22484457.487
       227.000         176.000
  22569682.618     1088077.35449    839151.55146  22569681.744    22569692.229
       227.000         180.000
  21244695.954     -438447.37949   -341923.86747  21244696.063    21244706.096
       243.000         208.000
  24320013.388    -1322930.52549  -1027297.46145  24320012.905    24320025.597
       209.000         145.000
 00  4 17 18  6  0.0000000  0  7G 2G24G 4G 5G 7G 9G16
  23389646.287     1562363.44049   1205810.52745  23389646.675    23389661.655
       214.000         157.000
  20971556.614    -2855883.16149  -2211109.97847  20971556.534    20971567.628
       242.000         206.000
  20260864.465     -495497.44949   -394074.60748  20260864.905    20260873.257
       244.000         213.000
  22468945.303    -3134669.38549  -2432146.08146  22468944.403    22468956.729
       227.000         177.000
  22581416.609     1149739.68149    887200.05546  22581416.641    22581425.930
       228.000         180.000
  21247776.271     -422260.56749   -329310.83547  21247776.640    21247786.712
       243.000         208.000
  24317087.207    -1338306.45049  -1039278.64845  24317086.092    24317099.652
       210.000         144.000
 00  4 17 18  6 30.0000000  0  7G 2G24G 4G 5G 7G 9G16
  23404423.971     1640019.09349   1266321.06745  23404423.775    23404440.943
       214.000         156.000
  20959089.933    -2921395.76649  -2262158.66747  20959089.724    20959101.249
       241.000         206.000
  20263698.948     -480602.24549   -382467.94248  20263699.203    20263707.659
       244.000         213.000
  22453469.020    -3215997.52849  -2495518.52446  22453468.577    22453480.311
       226.000         177.000
  22593168.620     1211496.50749    935322.21246  22593167.965    22593177.863
       226.000         180.000
  21250967.236     -405492.22249   -316244.64247  21250967.242    21250977.330
       242.000         208.000
  24314254.569    -1353192.24149  -1050877.95145  24314255.181    24314265.303
       209.000         143.000
 00  4 17 18  7  0.0000000  0  7G 2G24G 4G 5G 7G 9G16
  23419260.229     1717982.90549   1327071.71945  23419260.443    23419276.388
       212.000         155.000
  20946715.045    -2986426.02449  -2312831.51747  20946714.831    20946726.290
       241.000         206.000
  20266653.724     -465074.94549   -370368.75248  20266654.077    20266662.657
       244.000         213.000
  22438017.524    -3297195.26949  -2558789.38346  22438016.584    22438028.767
       227.000         177.000
  22604934.791     1273327.85549    983502.41446  22604934.909    22604944.207
       227.000         179.000
  21254268.329     -388145.14949   -302727.51547  21254268.616    21254278.888
       242.000         208.000
  24311516.392    -1367582.23149  -1062090.90845  24311516.787    24311528.067
       212.000         143.000
 00  4 17 18  7 30.0000000  0  7G 2G24G 4G 5G 7G 9G16
  23434154.748     1796252.36449   1388060.56645  23434155.841    23434171.081
       216.000         156.000
  20934434.531    -3050960.07649  -2363117.69747  20934434.013    20934445.425
       242.000         207.000
  20269725.371     -448933.32049   -357790.84648  20269725.451    20269733.915
       245.000         213.000
  22422589.989    -3378267.05049  -2621962.06946  22422589.474    22422601.223
       227.000         177.000
  22616711.661     1335215.38649   1031726.42246  22616711.806    22616721.358
       227.000         179.000
  21257675.926     -370238.37649   -288774.23647  21257675.937    21257686.065
       243.000         208.000
  24308874.806    -1381463.60649  -1072907.51745  24308874.686    24308885.538
       214.000         143.000
 00  4 17 18  8  0.0000000  0  7G 2G24G 4G 5G 7G 9G16
  23449103.624     1874807.80349   1449272.20445  23449105.142    23449120.064
       218.000         156.000
  20922248.006    -3115000.31649  -2413019.10247  20922247.749    20922258.990
       244.000         207.000
  20272911.416     -432190.38649   -344744.40348  20272911.615    20272919.962
       246.000         213.000
  22407187.062    -3459209.68749  -2685034.13746  22407186.588    22407197.867
       228.000         177.000
  22628495.899     1397141.74849   1079980.67446  22628495.868    22628505.707
       228.000         179.000
  21261189.622     -351774.05649   -274386.52147  21261189.625    21261199.879
       244.000         208.000
  24306329.914    -1394837.54549  -1083328.75245  24306329.328    24306341.416
       213.000         144.000
 00  4 17 18  8 30.0000000  0  7G 2G24G 4G 5G 7G 9G16
  23464105.244     1953640.22349   1510699.70945  23464105.917    23464121.747
       215.000         156.000
  20910151.547    -3178567.48149  -2462551.87647  20910151.303    20910162.643
       243.000         207.000
  20276206.834     -414872.98649   -331250.32148  20276207.114    20276215.506
       246.000         213.000
  22391807.516    -3540029.26049  -2748010.29446  22391807.174    22391818.076
       227.000         177.000
  22640285.877     1459098.33249   1128258.46546  22640285.926    22640295.101
       228.000         179.000
  21264809.277     -332752.88349   -259564.89047  21264809.259    21264819.608
       243.000         208.000
  24303880.304    -1407711.29149  -1093360.19445  24303879.544    24303890.877
       212.000         145.000
 00  4 17 18  9  0.0000000  0  7G 2G24G 4G 5G 7G 9G16
  23479155.810     2032730.03849   1572327.76045  23479155.499    23479172.961
       216.000         156.000
  20898142.831    -3241673.37549  -2511725.21747  20898142.547    20898154.132
       241.000         207.000
  20279607.598     -397002.06749   -317324.92848  20279607.900    20279616.377
       244.000         213.000
  22376450.065    -3620732.73149  -2810895.99646  22376449.496    22376461.276
       227.000         177.000
  22652083.366     1521094.36949   1176567.00746  22652083.239    22652093.050
       226.000         178.000
  21268533.579     -313181.66449   -244314.65647  21268533.880    21268544.113
       242.000         208.000
  24301524.200    -1420093.26449  -1103008.45545  24301523.116    24301534.555
       213.000         145.000
 00  4 17 18  9 30.0000000  0  7G 2G24G 4G 5G 7G 9G16
  23494247.224     2112033.99849   1634122.69745  23494246.721    23494262.911
       215.000         156.000
  20886217.614    -3304340.66449  -2560556.78747  20886217.522    20886228.734
       243.000         207.000
  20283109.189     -378601.09749   -302986.51248  20283109.565    20283117.879
       245.000         213.000
  22361114.427    -3701321.56949  -2873692.35946  22361114.513    22361125.155
       228.000         177.000
  22663888.259     1583129.22749   1224905.80346  22663887.957    22663897.737
       227.000         178.000
  21272362.904     -293058.88449   -228634.63247  21272363.219    21272373.370
       243.000         208.000
  24299260.043    -1431991.53449  -1112279.78345  24299258.963    24299271.160
       213.000         145.000
 00  4 17 18 10  0.0000000  0  7G 2G24G 4G 5G 7G 9G16
  23509378.592     2191548.65649   1696081.75745  23509379.915    23509394.941
       216.000         156.000
  20874373.265    -3366582.92949  -2609057.17247  20874373.022    20874384.141
       242.000         208.000
  20286713.212     -359661.87749   -288228.67748  20286713.431    20286721.763
       244.000         213.000
  22345800.722    -3781795.06949  -2936398.84746  22345799.615    22345811.382
       227.000         177.000
  22675699.686     1645198.31949   1273271.26446  22675699.510    22675709.054
       226.000         178.000
  21276299.501     -272372.38249   -212515.34547  21276299.554    21276309.927
       242.000         207.000
  24297085.610    -1443417.49849  -1121183.09045  24297084.808    24297095.349
       216.000         145.000
 00  4 17 18 10 30.0000000  0  7G 2G24G 4G 5G 7G 9G16
  23524551.704     2271282.22749   1758211.44945  23524552.651    23524567.244
       219.000         156.000
  20862612.724    -3428384.94349  -2657214.50747  20862612.584    20862623.806
       243.000         208.000
  20290423.663     -340163.32149   -273035.00548  20290424.292    20290432.562
       245.000         213.000
  22330509.120    -3862152.58849  -2999014.98146  22330508.191    22330520.052
       227.000         178.000
  22687517.693     1707301.88249   1321663.58746  22687517.538    22687526.854
       226.000         178.000
  21280341.378     -251132.51349   -195964.86947  21280341.476    21280351.852
       242.000         207.000
  24295001.842    -1454367.67549  -1129715.64645  24295001.281    24295012.759
       214.000         145.000
 00  4 17 18 11  0.0000000  0  7G 2G24G 4G 5G 7G 9G16
  23539770.600     2351256.35649   1820528.57245  23539770.296    23539785.755
       216.000         155.000
  20850940.338    -3489723.57349  -2705010.75347  20850939.955    20850951.225
       242.000         208.000
  20294246.214     -320075.94849   -257382.50148  20294246.615    20294255.003
       245.000         213.000
  22315241.813    -3942382.36249  -3061531.56046  22315241.350    22315252.542
       227.000         178.000
  22699343.482     1769446.68349   1370088.04946  22699343.002    22699353.385
       226.000         177.000
  21284488.198     -229340.96749   -178984.50447  21284488.325    21284498.687
       242.000         207.000
  24293012.233    -1464823.52949  -1137863.02445  24293011.228    24293021.733
       211.000         144.000
 00  4 17 18 11 30.0000000  0  7G 2G24G 4G 5G 7G 9G16
  23555040.012     2431496.23049   1883052.78245  23555040.255    23555057.235
       217.000         155.000
  20839359.845    -3550578.98149  -2752430.47747  20839359.751    20839370.684
       244.000         208.000
  20298185.178     -299376.74649   -241253.26648  20298185.708    20298194.095
       246.000         213.000
  22300000.875    -4022473.55149  -3123940.16146  22300000.531    22300012.625
       229.000         178.000
  22711178.111     1831637.62049   1418548.45646  22711178.238    22711187.441
       227.000         177.000
  21288741.307     -206991.14349   -161569.13147  21288741.661    21288752.044
       243.000         207.000
  24291121.078    -1474761.58449  -1145606.92545  24291120.737    24291132.240
       213.000         143.000
 00  4 17 18 12  0.0000000  0  7G 2G24G 4G 5G 7G 9G16
  23570366.198     2512034.17749   1945809.24845  23570367.924    23570381.401
       222.000         155.000
  20827874.160    -3610936.39949  -2799462.15147  20827873.863    20827885.323
       244.000         208.000
  20302242.662     -278054.67249   -224638.66948  20302243.100    20302251.296
       246.000         213.000
  22284786.038    -4102427.78049  -3186242.03946  22284785.494    22284796.765
       229.000         178.000
  22723025.646     1893896.59449   1467061.88246  22723025.587    22723034.927
       226.000         177.000
  21293099.698     -184088.13049   -143722.69347  21293099.834    21293110.185
       243.000         207.000
  24289330.720    -1484169.18349  -1152937.48045  24289330.107    24289341.616
       212.000         144.000
 00  4 17 18 12 30.0000000  0  7G 2G24G 4G 5G 7G 9G16
  23585749.512     2592872.55349   2008799.83245  23585749.525    23585765.420
       218.000         155.000
  20816484.106    -3670791.23049  -2846102.19547  20816483.638    20816494.814
       246.000         209.000
  20306416.581     -256120.41949   -207547.04648  20306416.840    20306425.245
       246.000         213.000
  22269598.432    -4182238.75049  -3248432.29646  22269597.918    22269609.243
       230.000         178.000
  22734889.981     1956244.00149   1515644.21446  22734888.974    22734898.978
       226.000         177.000
  21297560.984     -160644.10349   -125454.67947  21297561.075    21297571.397
       244.000         207.000
  24287642.165    -1493041.99649  -1159851.30745  24287640.896    24287653.658
       213.000         145.000
 00  4 17 18 13  0.0000000  0  7G 2G24G 4G 5G 7G 9G16
  23601188.039     2674000.97849   2072016.43045  23601185.899    23601206.178
       211.000         155.000
  20805187.333    -3730155.87349  -2892360.28347  20805187.039    20805198.208
       244.000         209.000
  20310702.696     -233596.92049   -189996.27648  20310703.123    20310711.445
       245.000         213.000
  22254438.016    -4261906.80449  -3310511.19346  22254437.504    22254448.646
       228.000         179.000
  22746770.016     2018673.70549   1564290.67246  22746769.629    22746779.530
       225.000         177.000
  21302125.236     -136659.09649   -106765.13347  21302125.565    21302135.740
       241.000         207.000
  24286054.951    -1501383.52849  -1166351.17345  24286054.005    24286065.513
       213.000         145.000
 00  4 17 18 13 30.0000000  0  7G 2G24G 4G 5G 7G 9G16
  23616676.007     2755389.31949   2135435.54445  23616676.085    23616695.133
       215.000         156.000
  20793980.779    -3789046.53249  -2938249.03047  20793980.587    20793991.738
       245.000         209.000
  20315096.478     -210507.57549   -172004.58948  20315096.821    20315105.288
       245.000         213.000
  22239304.743    -4341432.22249  -3372478.95246  22239304.490    22239315.029
       229.000         179.000
  22758665.685     2081185.41849   1613001.04446  22758666.233    22758675.262
       224.000         177.000
  21306793.378     -112128.20049    -87650.21747  21306793.724    21306803.956
       242.000         207.000
  24284566.131    -1509207.55149  -1172447.77745  24284565.685    24284576.534
       213.000         144.000
 00  4 17 18 14  0.0000000  0  7G 2G24G 4G 5G 7G 9G16
  23632207.848     2837008.43749   2199034.46045  23632208.423    23632224.746
       215.000         155.000
  20782862.072    -3847475.44449  -2983777.97747  20782862.034    20782872.950
       244.000         209.000
  20319594.521     -186870.49249   -153586.09148  20319595.147    20319603.450
       245.000         213.000
  22224199.068    -4420812.75749  -3434333.80946  22224198.398    22224210.296
       229.000         179.000
  22770574.398     2143765.82049   1661764.92546  22770573.900    22770583.857
       224.000         176.000
  21311564.803      -87054.70849    -68112.50647  21311565.041    21311575.398
       242.000         207.000
  24283171.075    -1516539.08349  -1178160.61545  24283171.170    24283180.956
       212.000         145.000
 00  4 17 18 14 30.0000000  0  7G 2G24G 4G 5G 7G 9G16
  23647780.009     2918839.15349   2262798.27345  23647780.422    23647797.742
       216.000         155.000
  20771832.247    -3905437.41649  -3028943.06947  20771832.070    20771843.127
       246.000         209.000
  20324198.875     -162674.53849   -134732.10448  20324199.150    20324207.646
       245.000         213.000
  22209124.540    -4500029.64449  -3496061.14346  22209123.933    22209134.676
       230.000         179.000
  22782490.449     2206384.81749   1710558.88346  22782489.930    22782500.260
       226.000         176.000
  21316440.256      -61434.16749    -48148.51047  21316440.565    21316451.000
       242.000         207.000
  24281869.677    -1523377.51849  -1183489.23845  24281868.422    24281880.580
       211.000         145.000
 00  4 17 18 15  0.0000000  0  7G 2G24G 4G 5G 7G 9G16
  23663393.516     3000886.92249   2326731.22845  23663393.973    23663412.791
       217.000         156.000
  20760892.952    -3962923.42949  -3073737.28647  20760892.853    20760903.816
       246.000         210.000
  20328910.889     -137912.67649   -115437.15048  20328911.198    20328919.484
       245.000         213.000
  22194080.100    -4579088.35849  -3557665.23046  22194079.209    22194090.844
       230.000         180.000
  22794412.337     2269034.50449   1759376.76746  22794412.017    22794421.720
       224.000         176.000
  21321421.813      -35256.30249    -27750.24447  21321421.917    21321432.137
       242.000         207.000
  24280664.126    -1529712.36549  -1188425.44445  24280663.856    24280674.876
       213.000         144.000
 00  4 17 18 15 30.0000000  0  7G 2G24G 4G 5G 7G 9G16
  23679050.860     3083165.58849   2390844.06045  23679052.433    23679067.247
       217.000         155.000
  20750047.124    -4019918.51449  -3118148.96447  20750046.931    20750057.771
       244.000         210.000
  20333732.704     -112573.94949    -95692.69448  20333733.149    20333741.420
       244.000         213.000
  22179065.276    -4657991.57849  -3619148.16146  22179064.553    22179074.912
       229.000         180.000
  22806341.309     2331721.32749   1808223.57546  22806340.849    22806350.757
       225.000         175.000
  21326510.720       -8514.08549     -6912.22647  21326510.834    21326521.324
       241.000         206.000
  24279554.331    -1535544.93049  -1192970.27445  24279553.845    24279565.571
       213.000         145.000
 00  4 17 18 16  0.0000000  0  7G 2G24G 4G 5G 7G 9G16
  23694757.521     3165702.68349   2455158.30545  23694758.800    23694773.935
       214.000         155.000
  20739298.519    -4076402.38049  -3162162.28547  20739298.263    20739309.521
       245.000         210.000
  20338666.449      -86647.23249    -75490.05948  20338666.924    20338675.115
       245.000         213.000
  22164077.946    -4736750.03749  -3680518.28146  22164077.359    22164089.128
       230.000         180.000
  22818277.464     2394446.12149   1857099.97246  22818277.475    22818286.809
       225.000         175.000
  21331706.117       18787.70349     14361.82547  21331706.297    21331716.668
       241.000         206.000
  24278543.538    -1540856.23549  -1197108.91345  24278543.754    24278554.970
       212.000         144.000
 00  4 17 18 16 30.0000000  0  7G 2G24G 4G 5G 7G 9G16
  23710517.820     3248521.57149   2519692.12945  23710518.050    23710536.250
       214.000         154.000
  20728647.380    -4132374.32649  -3205776.71247  20728647.296    20728658.089
       245.000         210.000
  20343710.891      -60138.68349    -54834.05148  20343711.142    20343719.734
       245.000         213.000
  22149115.490    -4815378.07049  -3741786.77446  22149114.897    22149125.988
       229.000         181.000
  22830222.270     2457215.99849   1906011.48946  22830222.346    22830231.714
       225.000         175.000
  21337008.554       46652.03949     36074.22447  21337008.966    21337019.536
       241.000         206.000
  24277638.726    -1545610.90149  -1200813.80145  24277638.710    24277649.551
       211.000         145.000
 00  4 17 18 17  0.0000000  0  7G 2G24G 4G 5G 7G 9G16
  23726332.693     3331628.04449   2584450.00345  23726332.402    23726351.232
       214.000         155.000
  20718093.039    -4187837.54749  -3248994.72747  20718092.833    20718103.823
       245.000         210.000
  20348861.868      -33070.29949    -33741.80547  20348862.086    20348870.494
       245.000         212.000
  22134172.152    -4893905.55849  -3802976.92846  22134171.622    22134182.291
       230.000         181.000
  22842176.799     2520036.75249   1954962.66846  22842176.930    22842186.671
       225.000         175.000
  21342415.200       75063.79849     58213.18747  21342415.513    21342425.953
       241.000         206.000
  24276836.769    -1549824.56049  -1204097.15445  24276836.736    24276847.519
       212.000         145.000
 00  4 17 18 17 30.0000000  0  7G 2G24G 4G 5G 7G 9G16
  23742199.596     3415007.54649   2649420.63745  23742200.926    23742217.848
       215.000         154.000
  20707632.788    -4242806.38449  -3291827.50347  20707632.534    20707643.523
       245.000         210.000
  20354118.668       -5445.72549    -12216.15847  20354118.527    20354127.173
       245.000         212.000
  22119249.936    -4972321.98249  -3864080.52946  22119249.332    22119260.217
       229.000         182.000
  22854140.015     2582903.37949   2003949.58946  22854139.069    22854150.166
       226.000         175.000
  21347923.944      104011.81649     80770.01847  21347923.990    21347934.702
       242.000         206.000
  24276137.409    -1553500.07649  -1206961.17045  24276136.870    24276148.008
       211.000         144.000
 00  4 17 18 18  0.0000000  0  7G 2G24G 4G 5G 7G 9G16
  23758115.514     3498644.43549   2714591.82245  23758115.169    23758132.238
       213.000         153.000
  20697264.448    -4297292.25249  -3334283.95547  20697264.302    20697275.152
       245.000         211.000
  20359479.382       22725.19649      9735.20247  20359479.715    20359488.072
       244.000         212.000
  22104353.610    -5050602.16349  -3925077.98046  22104353.185    22104364.241
       230.000         182.000
  22866112.670     2645819.80649   2052975.30746  22866111.580    22866121.402
       225.000         174.000
  21353532.095      133482.49449    103734.10747  21353532.327    21353542.621
       241.000         206.000
  24275540.985    -1556634.56449  -1209403.59745  24275540.913    24275552.295
       212.000         144.000
 00  4 17 18 18 30.0000000  0  7G 2G24G 4G 5G 7G 9G16
  23774075.786     3582513.98349   2779944.36245  23774075.490    23774094.641
       211.000         153.000
  20686985.748    -4351306.96949  -3376373.26247  20686985.348    20686996.497
       245.000         211.000
  20364942.924       51436.27749     32107.47747  20364943.103    20364951.662
       245.000         212.000
  22089486.184    -5128730.87549  -3985957.39346  22089485.457    22089496.352
       230.000         182.000
  22878094.335     2708783.76849   2102038.06946  22878093.595    22878103.838
       224.000         174.000
  21359237.360      163463.30549    127095.70447  21359237.528    21359247.977
       241.000         206.000
  24275040.827    -1559262.52549  -1211451.34345  24275040.319    24275051.601
       211.000         143.000
 00  4 17 18 19  0.0000000  0  7G 2G24G 4G 5G 7G 9G16
  23790079.537     3666613.49649   2845475.98945  23790081.769    23790097.609
       216.000         152.000
  20676799.111    -4404837.69449  -3418085.43947  20676798.910    20676809.554
       246.000         211.000
  20370513.021       80707.30549     54916.07147  20370513.277    20370521.559
       246.000         212.000
  22074653.488    -5206676.68549  -4046694.28646  22074652.626    22074664.288
       230.000         183.000
  22890088.171     2771811.40949   2151150.45346  22890087.962    22890097.716
       224.000         174.000
  21365039.520      193953.59149    150854.29347  21365039.621    21365050.069
       242.000         206.000
  24274633.265    -1561404.27349  -1213120.21545  24274631.312    24274643.230
       211.000         142.000
 00  4 17 18 19 30.0000000  0  7G 2G24G 4G 5G 7G 9G16
  23806126.620     3750939.56549   2911184.21045  23806126.512    23806146.076
       211.000         152.000
  20666703.083    -4457892.56249  -3459426.82647  20666702.979    20666713.813
       246.000         211.000
  20376189.672      110538.23249     78160.94347  20376190.057    20376198.456
       245.000         212.000
  22059861.407    -5284409.34749  -4107265.09646  22059860.356    22059871.999
       231.000         183.000
  22902095.762     2834911.29949   2200319.11946  22902095.429    22902105.779
       225.000         174.000
  21370939.749      224959.30849    175014.50747  21370939.866    21370950.221
       242.000         205.000
  24274320.543    -1563047.57049  -1214400.69945  24274320.817    24274331.700
       211.000         143.000
 00  4 17 18 20  0.0000000  0  7G 2G24G 4G 5G 7G 9G16
  23822218.617     3835501.89349   2977076.52545  23822218.561    23822237.947
       213.000         152.000
  20656698.920    -4510464.58049  -3500391.95147  20656698.845    20656709.555
       246.000         211.000
  20381969.836      140913.14249    101829.71147  20381970.086    20381978.379
       245.000         212.000
  22045107.140    -5361943.18749  -4167680.96846  22045106.670    22045117.172
       231.000         184.000
  22914114.636     2898070.67949   2249534.15046  22914114.559    22914125.244
       226.000         174.000
  21376937.928      256479.56949    199575.68547  21376938.294    21376948.797
       242.000         205.000
  24274103.206    -1564189.73849  -1215290.65645  24274102.509    24274113.600
       211.000         141.000
 00  4 17 18 20 30.0000000  0  7G 2G24G 4G 5G 7G 9G16
  23838356.679     3920306.85349   3043157.86445  23838357.738    23838375.637
       210.000         152.000
  20646785.385    -4562560.20749  -3540985.86647  20646784.978    20646795.825
       246.000         212.000
  20387853.532      171832.33349    125922.59447  20387853.813    20387862.073
       245.000         212.000
  22030385.115    -5439307.40049  -4227964.66246  22030384.582    22030395.596
       231.000         184.000
  22926140.599     2961266.98049   2298777.95046  22926140.433    22926150.997
       223.000         173.000
  21383034.922      288519.00749    224541.40347  21383035.143    21383045.620
       241.000         205.000
  24273982.305    -1564823.98349  -1215784.84845  24273980.043    24273993.395
       208.000         140.000
 00  4 17 18 21  0.0000000  0  7G 2G24G 4G 5G 7G 9G16
  23854542.419     4005362.07449   3109434.25245  23854543.443    23854559.820
       209.000         149.000
  20636962.597    -4614179.08749  -3581208.29947  20636962.578    20636973.001
       247.000         212.000
  20393840.171      203292.25949    150436.81747  20393840.578    20393848.790
       246.000         212.000
  22015693.952    -5516509.83949  -4288122.31746  22015693.642    22015704.571
       232.000         185.000
  22938170.861     3024485.96549   2348039.42946  22938169.965    22938179.744
       224.000         173.000
  21389232.441      321086.77949    249918.80447  21389232.752    21389243.314
       242.000         205.000
  24273963.142    -1564924.03649  -1215862.79245  24273960.887    24273973.958
       206.000         139.000
 00  4 17 18 21 30.0000000  0  7G 2G24G 4G 5G 7G 9G16
  23870774.358     4090659.18049   3175899.13345  23870774.477    23870793.119
       207.000         149.000
  20627228.987    -4665329.28449  -3621065.52547  20627229.036    20627239.564
       246.000         212.000
  20399928.860      235288.64449    175369.06247  20399929.243    20399937.694
       245.000         212.000
  22001030.166    -5593568.19049  -4348167.68546  22001029.504    22001040.713
       230.000         185.000
  22950201.959     3087709.75549   2397304.64346  22950202.046    22950212.237
       225.000         173.000
  21395529.316      354176.84349    275703.18847  21395529.443    21395539.965
       241.000         205.000
  24274047.097    -1564481.51149  -1215517.92445  24274047.257    24274057.678
       208.000         139.000
 00  4 17 18 22  0.0000000  0  7G 2G24G 4G 5G 7G 9G16
  23887051.150     4176192.79149   3242548.27645  23887052.248    23887070.856
       208.000         149.000
  20617587.732    -4715994.27649  -3660544.66847  20617587.411    20617598.198
       246.000         212.000
  20406121.315      267830.20049    200726.12047  20406121.576    20406129.970
       245.000         212.000
  21986391.672    -5670493.48649  -4408109.37446  21986391.148    21986402.271
       231.000         185.000
  22962235.590     3150946.48349   2446579.94346  22962234.786    22962245.246
       221.000         172.000
  21401927.677      387800.10249    301903.04747  21401928.034    21401938.606
       242.000         205.000
  24274232.650    -1563507.02349  -1214758.56545  24274232.349    24274244.677
       207.000         140.000
 00  4 17 18 22 30.0000000  0  7G 2G24G 4G 5G 7G 9G16
  23903370.980     4261952.54249   3309373.62645  23903371.180    23903390.181
       209.000         148.000
  20608041.260    -4766160.99649  -3699635.54047  20608041.060    20608051.783
       246.000         212.000
  20412422.667      300943.82049    226528.94747  20412422.674    20412431.234
       245.000         212.000
  21971781.018    -5747272.65349  -4467937.19746  21971780.133    21971791.483
       231.000         186.000
  22974276.920     3214223.85149   2495886.92746  22974275.500    22974286.652
       223.000         172.000
  21408429.637      421967.72749    328527.09547  21408429.633    21408440.496
       241.000         205.000
  24274517.656    -1562009.89249  -1213591.93445  24274517.451    24274528.714
       209.000         141.000
 00  4 17 18 23  0.0000000  0  7G 2G24G 4G 5G 7G 9G16
  23919735.141     4347944.66549   3376380.06645  23919734.752    23919755.362
       209.000         148.000
  20598594.918    -4815801.56249  -3738316.43247  20598594.420    20598605.229
       248.000         212.000
  20418834.740      334639.49749    252785.31847  20418834.725    20418843.402
       247.000         212.000
  21957203.049    -5823880.16349  -4527631.26746  21957202.245    21957213.479
       232.000         186.000
  22986332.135     3277574.36849   2545250.89146  22986331.174    22986341.468
       223.000         172.000
  21415037.675      456692.59049    355585.33647  21415037.808    21415048.333
       243.000         205.000
  24274903.954    -1559979.52849  -1212009.78045  24274903.314    24274915.758
       209.000         141.000
 00  4 17 18 23 30.0000000  0  7G 2G24G 4G 5G 7G 9G16
  23936142.736     4434165.50749   3443564.68545  23936143.443    23936163.334
       208.000         148.000
  20589252.050    -4864898.46549  -3776573.69847  20589252.197    20589262.638
       247.000         212.000
  20425356.029      368908.88549    279488.72947  20425356.350    20425364.732
       245.000         212.000
  21942659.737    -5900305.45349  -4587183.35446  21942658.833    21942670.371
       232.000         187.000
  22998404.777     3341015.88249   2594685.74846  22998403.846    22998414.624
       223.000         172.000
  21421751.802      491975.18249    383078.16847  21421752.080    21421762.593
       241.000         205.000
  24275391.651    -1557417.23449  -1210013.17745  24275391.286    24275402.200
       209.000         138.000
 00  4 17 18 24  0.0000000  0  7G 2G24G 4G 5G 7G 9G16
  23952592.823     4520610.25949   3510923.81245  23952592.635    23952612.280
       208.000         147.000
  20580014.610    -4913441.46049  -3814399.33747  20580014.542    20580025.121
       246.000         212.000
  20431983.762      403737.79349    306628.14147  20431984.132    20431992.430
       245.000         212.000
  21928151.342    -5976547.11349  -4646592.34146  21928150.737    21928161.932
       232.000         187.000
  23010494.207     3404546.03849   2644189.69946  23010493.637    23010504.979
       224.000         172.000
  21428571.928      527814.65349    411004.93847  21428572.238    21428582.919
       241.000         205.000
  24275979.280    -1554329.45249  -1207607.07845  24275976.661    24275989.910
       207.000         138.000
 00  4 17 18 24 30.0000000  0  7G 2G24G 4G 5G 7G 9G16
  23969088.444     4607293.18049   3578468.52145  23969089.974    23969106.617
       212.000         147.000
  20570881.757    -4961434.77549  -3851796.66447  20570881.635    20570892.195
       247.000         212.000
  20438715.984      439115.85249    334195.45547  20438716.241    20438724.615
       245.000         212.000
  21913680.607    -6052591.30649  -4705847.46746  21913679.905    21913691.083
       232.000         187.000
  23022595.961     3468140.87949   2693744.03646  23022596.438    23022605.830
       224.000         171.000
  21435495.092      564195.70149    439353.70747  21435495.495    21435505.947
       242.000         204.000
  24276671.441    -1550690.08349  -1204771.18245  24276670.441    24276683.020
       209.000         139.000
 00  4 17 18 25  0.0000000  0  7G 2G24G 4G 5G 7G 9G16
  23985629.806     4694216.78949   3646200.78645  23985629.824    23985649.267
       208.000         147.000
  20561851.441    -5008889.21949  -3888774.07847  20561851.227    20561862.074
       247.000         212.000
  20445545.969      475007.67149    362163.11747  20445546.143    20445554.547
       246.000         212.000
  21899246.046    -6128445.03349  -4764954.17047  21899245.108    21899256.468
       232.000         188.000
  23034703.124     3531763.96749   2743320.40146  23034702.207    23034713.315
       223.000         171.000
  21442516.783      601094.53249    468105.95447  21442516.904    21442527.380
       242.000         204.000
  24277469.160    -1546498.90149  -1201505.31845  24277468.518    24277480.822
       209.000         141.000
 00  4 17 18 25 30.0000000  0  7G 2G24G 4G 5G 7G 9G16
  24002216.076     4781376.77349   3714117.19545  24002217.311    24002234.688
       209.000         146.000
  20552921.009    -5055818.85449  -3925342.55647  20552920.649    20552931.351
       245.000         212.000
  20452471.487      511401.36349    390521.83847  20452471.738    20452480.322
       244.000         212.000
  21884845.866    -6204118.28949  -4823920.24847  21884845.417    21884856.070
       232.000         188.000
  23046812.290     3595397.61849   2792904.99446  23046811.514    23046822.255
       222.000         171.000
  21449633.513      638492.86449    497247.40947  21449633.738    21449644.452
       241.000         204.000
  24278368.813    -1541772.08849  -1197822.07045  24278367.986    24278379.945
       210.000         143.000
 00  4 17 18 26  0.0000000  0  7G 2G24G 4G 5G 7G 9G16
  24018849.052     4868781.71949   3782224.54545  24018849.467    24018868.958
       208.000         145.000
  20544084.635    -5102253.90449  -3961525.65447  20544084.416    20544095.052
       246.000         212.000
  20459493.959      548304.68349    419277.66647  20459494.347    20459502.666
       245.000         212.000
  21870478.291    -6279620.10749  -4882752.74247  21870477.743    21870488.619
       233.000         188.000
  23058921.108     3659029.70249   2842488.34546  23058920.791    23058930.922
       222.000         171.000
  21456845.051      676389.36049    526777.04247  21456845.305    21456856.085
       241.000         204.000
  24279369.781    -1536512.03849  -1193723.30745  24279369.682    24279380.529
       212.000         145.000
 00  4 17 18 26 30.0000000  0  7G 2G24G 4G 5G 7G 9G16
  24035530.834     4956443.55449   3850532.02645  24035532.347    24035550.762
       207.000         146.000
  20535340.280    -5148205.80049  -3997332.25647  20535339.830    20535350.417
       246.000         212.000
  20466613.098      585716.02049    448429.36447  20466613.159    20466621.511
       245.000         212.000
  21856142.029    -6354957.28149  -4941456.94047  21856141.368    21856152.218
       232.000         188.000
  23071028.589     3722654.63649   2892066.15546  23071028.180    23071039.489
       222.000         170.000
  21464150.995      714781.75949    556693.09847  21464151.277    21464161.889
       241.000         204.000
  24280473.634    -1530711.86149  -1189203.66245  24280472.349    24280485.570
       212.000         146.000
 00  4 17 18 27  0.0000000  0  7G 2G24G 4G 5G 7G 9G16
  24052258.910     5044348.16549   3919028.68645  24052259.807    24052278.868
       209.000         145.000
  20526687.609    -5193675.56249  -4032763.17247  20526687.190    20526697.807
       245.000         212.000
  20473829.817      623640.06349    477980.56347  20473830.122    20473838.439
       244.000         212.000
  21841835.417    -6430138.86149  -5000039.90047  21841834.672    21841845.573
       232.000         189.000
  23083138.122     3786290.37249   2941652.36246  23083138.146    23083148.137
       223.000         170.000
  21471550.303      753665.00549    586991.62747  21471550.635    21471561.212
       240.000         204.000
  24281676.531    -1524389.96549  -1184277.49945  24281675.926    24281687.668
       212.000         146.000
 00  4 17 18 27 30.0000000  0  7G 2G24G 4G 5G 7G 9G16
  24069030.995     5132484.36449   3987705.80845  24069030.917    24069050.812
       210.000         144.000
  20518125.390    -5238669.99549  -4067823.70447  20518125.028    20518135.408
       247.000         212.000
  20481147.491      662094.59849    507945.13647  20481147.786    20481156.000
       246.000         211.000
  21827561.686    -6505147.42149  -5058488.04247  21827561.344    21827571.856
       233.000         189.000
  23095254.361     3849961.09449   2991265.83646  23095253.779    23095264.384
       223.000         170.000
  21479044.116      793044.99149    617677.22847  21479043.917    21479054.854
       241.000         203.000
  24282979.267    -1517543.58749  -1178942.63245  24282978.644    24282990.299
       211.000         145.000
 00  4 17 18 28  0.0000000  0  7G 2G24G 4G 5G 7G 9G16
  24085846.091     5220846.50749   4056559.00245  24085846.485    24085866.806
       210.000         143.000
  20509655.510    -5283179.21949  -4102506.15148  20509655.081    20509665.779
       247.000         213.000
  20488567.253      701085.56949    538327.70847  20488567.470    20488575.912
       245.000         212.000
  21813323.598    -6579968.75949  -5116790.30747  21813323.181    21813333.714
       234.000         189.000
  23107376.882     3913664.71449   3040904.94346  23107375.587    23107386.754
       222.000         169.000
  21486633.243      832925.71349    648753.00747  21486633.613    21486644.388
       241.000         203.000
  24284384.687    -1510158.19149  -1173187.75945  24284384.281    24284395.810
       214.000         145.000
 00  4 17 18 28 30.0000000  0  7G 2G24G 4G 5G 7G 9G16
  24102702.055     5309423.29149   4125579.43145  24102702.616    24102721.463
       210.000         145.000
  20501283.669    -5327173.34749  -4136787.22548  20501283.437    20501293.751
       246.000         213.000
  20496089.992      740617.94449    569132.15247  20496090.252    20496098.608
       246.000         212.000
  21799124.419    -6654585.68849  -5174933.29647  21799123.571    21799134.290
       233.000         189.000
  23119505.910     3977403.43549   3090571.39046  23119505.729    23119515.688
       221.000         169.000
  21494316.084      873298.92449    680212.54647  21494316.155    21494327.290
       240.000         203.000
  24285893.034    -1502231.68049  -1167011.21445  24285891.997    24285904.354
       209.000         143.000
 00  4 17 18 29  0.0000000  0  7G 2G24G 4G 5G 7G 9G16
  24119597.880     5398209.32149   4194762.91345  24119596.881    24119619.561
       208.000         144.000
  20493012.394    -5370638.92149  -4170656.43348  20493012.163    20493022.526
       246.000         213.000
  20503719.500      780711.18449    600373.63247  20503719.820    20503728.198
       246.000         211.000
  21784969.990    -6728967.51349  -5232893.07847  21784969.499    21784979.603
       233.000         189.000
  23131646.069     4041199.91949   3140282.85546  23131645.855    23131656.638
       222.000         169.000
  21502095.013      914177.01249    712065.49947  21502095.229    21502106.333
       240.000         203.000
  24287505.518    -1493757.25949  -1160407.74545  24287503.741    24287516.828
       209.000         144.000
 00  4 17 18 29 30.0000000  0  7G 2G24G 4G 5G 7G 9G16
  24136536.175     5487219.08149   4264120.72745  24136536.473    24136556.663
       208.000         143.000
  20484842.823    -5413570.14149  -4204109.26448  20484842.549    20484853.010
       244.000         213.000
  20511456.090      821367.19749    632053.63647  20511456.414    20511464.831
       246.000         211.000
  21770861.638    -6803107.17649  -5290664.17347  21770861.176    21770871.444
       233.000         189.000
  23143795.652     4105045.97249   3190032.95646  23143795.514    23143805.423
       222.000         168.000
  21509972.345      955572.23749    744321.41647  21509972.546    21509983.459
       240.000         203.000
  24289224.696    -1484722.47949  -1153367.63545  24289224.670    24289235.605
       212.000         145.000
 00  4 17 18 30  0.0000000  0  7G 2G24G 4G 5G 7G 9G16
  24153520.767     5576472.05949   4333668.06845  24153521.305    24153542.273
       210.000         144.000
  20476778.075    -5455950.45949  -4237132.82248  20476777.832    20476788.368
       244.000         213.000
  20519298.635      862579.83349    664167.37447  20519298.895    20519307.249
       246.000         211.000
  21756796.220    -6877021.19549  -5348259.42847  21756795.274    21756806.213
       233.000         190.000
  23155955.164     4168944.21749   3239823.72846  23155954.017    23155965.424
       220.000         168.000
  21517948.477      997486.53449    776981.80547  21517948.614    21517959.602
       240.000         203.000
  24291050.737    -1475127.62249  -1145891.07345  24291050.975    24291062.069
       211.000         145.000
 00  4 17 18 30 30.0000000  0  7G 2G24G 4G 5G 7G 9G16
  24170553.706     5665978.61449   4403413.00145  24170553.984    24170574.508
       207.000         144.000
  20468817.725    -5497782.10249  -4269728.84148  20468817.443    20468827.829
       244.000         213.000
  20527246.315      904345.26149    696711.85747  20527246.543    20527254.998
       246.000         211.000
  21742772.736    -6950714.72349  -5405682.88847  21742772.122    21742782.668
       233.000         190.000
  23168127.951     4232912.09549   3289668.74546  23168126.909    23168137.145
       222.000         168.000
  21526022.479     1039915.31949    810043.09347  21526022.445    21526033.569
       240.000         202.000
  24292980.957    -1464984.67349  -1137987.45545  24292980.859    24292992.080
       213.000         146.000
 00  4 17 18 31  0.0000000  0  7G 2G24G 4G 5G 7G 9G16
  24187636.188     5755746.35449   4473361.41745  24187637.687    24187658.698
       213.000         143.000
  20460959.588    -5539076.82349  -4301906.47748  20460959.492    20460970.049
       246.000         213.000
  20535294.566      946639.00949    729668.02647  20535294.921    20535303.302
       248.000         211.000
  21728789.140    -7024198.65849  -5462943.02347  21728788.273    21728799.303
       234.000         190.000
  23180315.568     4296958.17249   3339574.70946  23180314.792    23180325.345
       221.000         167.000
  21534194.151     1082857.46049    843504.40247  21534194.427    21534205.333
       242.000         202.000
  24295013.685    -1454303.25849  -1129664.25545  24295013.212    24295023.413
       213.000         146.000
 00  4 17 18 31 30.0000000  0  7G 2G24G 4G 5G 7G 9G16
  24204766.887     5845766.78849   4543506.74545  24204768.098    24204788.426
       211.000         143.000
  20453203.465    -5579835.24449  -4333666.22448  20453203.172    20453213.568
       246.000         213.000
  20543439.784      989442.25149    763021.19447  20543440.132    20543448.452
       248.000         211.000
  21714842.512    -7097488.57049  -5520051.97247  21714841.988    21714852.435
       234.000         190.000
  23192516.255     4361073.36749   3389534.51146  23192517.035    23192527.759
       223.000         168.000
  21542459.862     1126293.45749    877350.52547  21542460.125    21542471.243
       241.000         202.000
  24297144.593    -1443105.49049  -1120938.69145  24297143.867    24297155.851
       212.000         145.000
 00  4 17 18 32  0.0000000  0  7G 2G24G 4G 5G 7G 9G16
  24221943.032     5936025.87649   4613838.09345  24221942.458    24221963.781
       206.000         143.000
  20445548.694    -5620061.00949  -4365010.91048  20445548.361    20445558.726
       245.000         213.000
  20551681.906     1032754.78549    796771.21847  20551681.997    20551690.385
       246.000         211.000
  21700934.479    -7170575.42249  -5577002.69447  21700933.686    21700944.001
       233.000         190.000
  23204731.471     4425264.30949   3439553.33646  23204729.950    23204741.291
       219.000         166.000
  21550819.648     1170223.75149    911581.82147  21550819.958    21550830.982
       239.000         202.000
  24299372.899    -1431395.30549  -1111813.84245  24299372.315    24299383.611
       208.000         145.000
 00  4 17 18 32 30.0000000  0  7G 2G24G 4G 5G 7G 9G16
  24239160.658     6026503.52949   4684339.64845  24239161.847    24239183.408
       210.000         143.000
  20437991.799    -5659772.60849  -4395954.95448  20437991.703    20438001.909
       245.000         213.000
  20560018.811     1076565.49049    830909.42147  20560019.015    20560027.165
       247.000         211.000
  21687067.635    -7243445.90049  -5633784.80947  21687066.726    21687077.704
       234.000         190.000
  23216955.574     4489502.27849   3489608.80946  23216954.647    23216966.058
       220.000         167.000
  21559273.248     1214647.35449    946197.50847  21559273.506    21559284.456
       240.000         202.000
  24301699.661    -1419167.52449  -1102285.66945  24301699.424    24301709.779
       209.000         144.000
 00  4 17 18 33  0.0000000  0  7G 2G24G 4G 5G 7G 9G16
  24256415.466     6117176.42749   4754993.38545  24256416.762    24256435.360
       210.000         142.000
  20430530.344    -5698982.71549  -4426508.21948  20430529.958    20430540.496
       244.000         213.000
  20568448.134     1120862.09949    865426.25947  20568448.130    20568456.491
       246.000         211.000
  21673241.516    -7316102.38849  -5690400.17547  21673241.047    21673251.236
       233.000         190.000
  23229184.781     4553766.54949   3539684.78146  23229183.871    23229196.250
       218.000         165.000
  21567821.296     1259567.37149    981200.02347  21567821.098    21567832.214
       240.000         202.000
  24304124.484    -1406425.39949  -1092356.71645  24304123.875    24304134.939
       212.000         144.000
 00  4 17 18 33 30.0000000  0  7G 2G24G 4G 5G 7G 9G16
  24273704.625     6208029.70249   4825787.70145  24273704.414    24273725.174
       208.000         142.000
  20423163.978    -5737692.90849  -4456671.94448  20423163.668    20423174.047
       244.000         213.000
  20576972.234     1165656.66749    900331.11447  20576972.518    20576980.706
       246.000         211.000
  21659457.020    -7388540.08049  -5746845.05447  21659456.620    21659466.847
       233.000         191.000
  23241417.601     4618050.13649   3589775.80746  23241417.471    23241426.952
       221.000         166.000
  21576463.140     1304980.38949   1016586.68847  21576463.125    21576474.258
       239.000         202.000
  24306649.978    -1393153.81549  -1082015.17845  24306648.517    24306660.844
       211.000         143.000
 00  4 17 18 34  0.0000000  0  7G 2G24G 4G 5G 7G 9G16
  24291028.753     6299066.57249   4896725.03245  24291030.559    24291051.252
       213.000         142.000
  20415891.205    -5775911.34449  -4486452.48448  20415890.943    20415901.284
       245.000         213.000
  20585587.509     1210929.94149    935608.98647  20585587.924    20585596.219
       247.000         211.000
  21645714.599    -7460756.86349  -5803117.79547  21645713.954    21645723.962
       234.000         191.000
  23253653.251     4682348.17249   3639878.08546  23253651.402    23253663.800
       217.000         166.000
  21585198.838     1350886.35849   1052357.46847  21585199.258    21585210.526
       240.000         201.000
  24309280.238    -1379331.60549  -1071244.58345  24309280.365    24309291.449
       214.000         145.000
 00  4 17 18 34 30.0000000  0  7G 2G24G 4G 5G 7G 9G16
  24308385.451     6390274.98349   4967796.05345  24308386.504    24308405.711
       209.000         140.000
  20408712.401    -5813636.08949  -4515848.33348  20408712.262    20408722.568
       244.000         213.000
  20594291.376     1256669.01849    971249.82147  20594291.768    20594299.775
       246.000         211.000
  21632010.484    -7532772.01449  -5859233.41847  21632009.901    21632019.853
       234.000         191.000
  23265891.836     4746662.11849   3689992.76546  23265892.018    23265902.799
       221.000         165.000
  21594023.992     1397262.30549   1088494.46947  21594024.488    21594035.607
       240.000         201.000
  24312014.559    -1364962.69349  -1060047.99145  24312014.083    24312025.899
       210.000         146.000
 00  4 17 18 35  0.0000000  0  7G 2G24G 4G 5G 7G 9G16
  24325776.085     6481660.97249   5039005.44245  24325775.666    24325796.415
       208.000         139.000
  20401630.685    -5850850.71849  -4544846.68148  20401630.055    20401640.488
       246.000         213.000
  20603084.738     1302878.29949   1007257.05747  20603084.771    20603093.260
       248.000         210.000
  21618343.544    -7604592.11249  -5915197.05047  21618342.813    21618352.891
       235.000         191.000
  23278137.937     4811015.48449   3740138.16746  23278136.831    23278148.214
       220.000         164.000
  21602936.408     1444096.64349   1124988.65747  21602936.358    21602947.193
       240.000         201.000
  24314851.721    -1350053.03449  -1048430.03745  24314851.559    24314862.667
       209.000         146.000
 00  4 17 18 35 30.0000000  0  7G 2G24G 4G 5G 7G 9G16
  24343204.567     6573246.32649   5110370.17345  24343206.379    24343224.247
       206.000         139.000
  20394648.659    -5887541.13049  -4573436.55948  20394648.339    20394658.541
       245.000         213.000
  20611967.278     1349556.26049   1043629.48547  20611967.412    20611976.027
       246.000         210.000
  21604715.736    -7676206.48849  -5971000.39547  21604715.117    21604725.676
       234.000         191.000
  23290391.573     4875408.65349   3790314.55546  23290391.747    23290402.193
       220.000         164.000
  21611934.807     1491383.25049   1161835.25347  21611935.049    21611946.097
       239.000         201.000
  24317794.216    -1334589.17549  -1036380.25845  24317794.111    24317804.367
       209.000         145.000
 00  4 17 18 36  0.0000000  0  6G24G 4G 5G 7G 9G16
  20387764.816    -5923715.89749  -4601624.63048  20387764.654    20387774.789
       246.000         213.000
  20620936.322     1396688.66349   1080356.03147  20620936.663    20620944.905
       247.000         210.000
  21591125.662    -7747622.46049  -6026649.12747  21591124.655    21591135.664
       236.000         192.000
  23302648.167     4939816.62249   3840502.52546  23302646.034    23302658.537
       218.000         163.000
  21621019.596     1539123.40049   1199035.26547  21621020.019    21621031.387
       240.000         201.000
  24320837.841    -1318594.51849  -1023916.86745  24320837.275    24320847.288
       213.000         145.000
 00  4 17 18 36 30.0000000  0  6G24G 4G 5G 7G 9G16
  20380974.933    -5959396.84849  -4629427.91248  20380974.475    20380984.596
       245.000         213.000
  20629991.475     1444273.71649   1117435.28247  20629991.624    20629999.915
       246.000         210.000
  21577569.122    -7818862.45549  -6082160.73347  21577568.460    21577578.649
       235.000         192.000
  23314901.439     5004208.17149   3890677.64546  23314902.029    23314910.756
       220.000         164.000
  21630187.440     1587300.32149   1236575.61047  21630187.583    21630198.744
       239.000         200.000
  24323977.392    -1302097.45549  -1011061.97745  24323976.222    24323988.115
       210.000         147.000
 00  4 17 18 37  0.0000000  0  6G24G 4G 5G 7G 9G16
  20374282.725    -5994564.47349  -4656831.20248  20374282.298    20374292.499
       244.000         213.000
  20639136.915     1492333.23749   1154884.25047  20639137.093    20639145.437
       246.000         210.000
  21564055.428    -7889877.16649  -6137496.79947  21564054.686    21564064.532
       234.000         192.000
  23327154.432     5068597.17649   3940850.81746  23327154.487    23327164.201
       219.000         163.000
  21639446.979     1635959.23549   1274491.53547  21639447.033    21639458.389
       239.000         200.000
  24327215.942    -1285078.55449   -997800.43745  24327215.689    24327227.364
       213.000         146.000
 00  4 17 18 37 30.0000000  0  6G24G 4G 5G 7G 9G16
  20367688.552    -6029216.74349  -4683832.91648  20367688.303    20367698.565
       245.000         214.000
  20648375.646     1540883.09449   1192715.29847  20648376.037    20648384.109
       246.000         210.000
  21550587.666    -7960650.43849  -6192644.73347  21550587.139    21550597.425
       235.000         193.000
  23339406.606     5132982.86249   3991021.39345  23339406.375    23339415.473
       219.000         162.000
  21648799.328     1685105.54249   1312787.24247  21648799.298    21648811.071
       239.000         200.000
  24330555.439    -1267529.64849   -984125.92645  24330555.497    24330566.094
       212.000         147.000
 00  4 17 18 38  0.0000000  0  6G24G 4G 5G 7G 9G16
  20361194.820    -6063341.45649  -4710423.54548  20361194.558    20361204.654
       244.000         214.000
  20657713.938     1589956.04049   1230953.94147  20657714.272    20657722.558
       245.000         210.000
  21537166.313    -8031179.88249  -6247602.67047  21537165.461    21537176.144
       234.000         193.000
  23351664.383     5197397.24149   4041214.30546  23351664.109    23351675.313
       218.000         163.000
  21658245.139     1734743.03949   1351465.69247  21658245.639    21658256.774
       239.000         200.000
  24333996.529    -1249445.87049   -970034.66345  24333996.125    24334006.341
       211.000         145.000
 00  4 17 18 38 30.0000000  0  7G30G24G 4G 5G 7G 9G16
  24560464.189    -4956537.90149  -3848136.32945  24560464.774    24560481.776
       207.000         137.000
  20354805.264    -6096918.43649  -4736587.36948  20354804.902    20354815.180
       245.000         214.000
  20667155.463     1639571.71349   1269615.49347  20667155.576    20667164.011
       246.000         210.000
  21523794.153    -8101450.74249  -6302359.12147  21523793.668    21523803.664
       235.000         193.000
  23363935.368     5261881.59249   4091461.75745  23363935.814    23363945.712
       219.000         162.000
  21667782.090     1784859.65149   1390517.47647  21667782.366    21667793.753
       238.000         200.000
  24337542.948    -1230808.66849   -955512.13645  24337542.400    24337553.545
       208.000         145.000
 00  4 17 18 39  0.0000000  0  7G30G24G 4G 5G 7G 9G16
  24541358.291    -5056939.78949  -3926371.41045  24541358.341    24541374.906
       206.000         139.000
  20348523.726    -6129928.00349  -4762309.05348  20348523.470    20348533.888
       245.000         214.000
  20676701.917     1689738.57649   1308706.53847  20676702.197    20676710.487
       245.000         210.000
  21510475.076    -8171442.55149  -6356898.12647  21510474.548    21510484.912
       235.000         193.000
  23376225.412     5326465.95449   4141787.13645  23376224.666    23376236.256
       218.000         162.000
  21677408.571     1835446.91049   1429935.99547  21677408.732    21677420.024
       239.000         200.000
  24341195.437    -1211613.63849   -940554.95145  24341194.292    24341205.372
       211.000         146.000
 00  4 17 18 39 30.0000000  0  7G30G24G 4G 5G 7G 9G16
  24522253.747    -5157334.72749  -4004601.07645  24522253.257    24522268.959
       203.000         138.000
  20342353.064    -6162354.91549  -4787576.71848  20342353.022    20342363.041
       245.000         214.000
  20686356.265     1740472.36849   1348239.35047  20686356.563    20686364.814
       246.000         210.000
  21497209.040    -8241155.70249  -6411219.99347  21497208.342    21497218.797
       236.000         194.000
  23388538.917     5391173.56049   4192208.54445  23388538.672    23388550.118
       218.000         162.000
  21687123.199     1886496.95949   1469715.12647  21687123.417    21687134.990
       239.000         200.000
  24344958.106    -1191841.05549   -925147.72545  24344957.826    24344968.784
       211.000         146.000
 00  4 17 18 40  0.0000000  0  7G30G24G 4G 5G 7G 9G16
  24503152.740    -5257710.61349  -4082815.89045  24503152.161    24503169.317
       205.000         139.000
  20336291.532    -6194208.34249  -4812397.51548  20336291.219    20336301.323
       245.000         214.000
  20696113.743     1791748.27149   1388194.58547  20696114.088    20696122.315
       246.000         209.000
  21483995.963    -8310590.91649  -6465325.28747  21483995.350    21484005.552
       236.000         194.000
  23400875.768     5456003.94449   4242725.63045  23400875.731    23400885.673
       221.000         162.000
  21696928.376     1938022.94449   1509865.11447  21696928.549    21696940.072
       239.000         199.000
  24348831.683    -1171485.57149   -909286.27445  24348830.785    24348842.888
       212.000         147.000
 00  4 17 18 40 30.0000000  0  7G30G24G 4G 5G 7G 9G16
  24484056.031    -5358064.25149  -4161013.37445  24484055.111    24484072.244
       209.000         138.000
  20330335.318    -6225508.29049  -4836787.03048  20330335.062    20330345.093
       245.000         214.000
  20705967.618     1843530.58149   1428544.42447  20705967.817    20705976.058
       246.000         209.000
  21470835.796    -8379747.89749  -6519213.77947  21470835.210    21470845.509
       236.000         194.000
  23413229.110     5520920.28949   4293309.70545  23413228.889    23413238.079
       217.000         160.000
  21706822.997     1990018.98849   1550381.38147  21706823.139    21706834.801
       239.000         199.000
  24352813.842    -1150559.20449   -892979.97445  24352813.918    24352823.389
       209.000         145.000
 00  4 17 18 41  0.0000000  0  7G30G24G 4G 5G 7G 9G16
  24464965.447    -5458385.03949  -4239185.24645  24464964.867    24464980.725
       211.000         139.000
  20324480.057    -6256277.67649  -4860763.11748  20324480.025    20324489.874
       245.000         214.000
  20715911.696     1895787.07549   1469263.75547  20715911.843    20715920.419
       246.000         209.000
  21457726.947    -8448635.23749  -6572892.15747  21457726.515    21457736.633
       236.000         195.000
  23425592.879     5585892.23749   4343937.06745  23425593.379    23425603.064
       218.000         161.000
  21716807.986     2042489.87449   1591267.65547  21716808.476    21716820.042
       238.000         199.000
  24356902.190    -1129074.27749   -876238.47145  24356902.877    24356912.253
       207.000         144.000
 00  4 17 18 41 30.0000000  0  7G30G24G 4G 5G 7G 9G16
  24445879.355    -5558682.36249  -4317338.82745  24445878.550    24445896.930
       212.000         139.000
  20318719.260    -6286550.74649  -4884352.46448  20318719.004    20318729.137
       244.000         214.000
  20725937.680     1948473.82749   1510318.35547  20725938.072    20725946.416
       245.000         209.000
  21444663.296    -8517284.99049  -6626385.40847  21444662.549    21444672.739
       236.000         195.000
  23437959.056     5650876.14349   4394573.79145  23437958.109    23437968.485
       218.000         161.000
  21726882.732     2095432.53349   1632521.54347  21726882.912    21726894.800
       238.000         199.000
  24361095.265    -1107040.13549   -859068.98945  24361093.286    24361105.978
       206.000         145.000
 00  4 17 18 42  0.0000000  0  7G30G24G 4G 5G 7G 9G16
  24426792.992    -5658981.35049  -4395493.71045  24426792.773    24426809.048
       207.000         139.000
  20313049.188    -6316346.90849  -4907570.19948  20313048.939    20313059.059
       245.000         214.000
  20736039.957     2001561.41549   1551685.29347  20736040.268    20736048.599
       245.000         209.000
  21431640.720    -8585718.92449  -6679710.49047  21431640.314    21431650.263
       236.000         195.000
  23450319.591     5715830.87649   4445187.76045  23450319.272    23450330.488
       218.000         159.000
  21737044.045     2148830.02649   1674129.83947  21737044.557    21737055.953
       238.000         199.000
  24365388.143    -1084480.48749   -841490.04945  24365388.622    24365398.845
       209.000         146.000
 00  4 17 18 42 30.0000000  0  7G30G24G 4G 5G 7G 9G16
  24407701.780    -5759305.53549  -4473668.20345  24407702.019    24407718.223
       213.000         140.000
  20307469.606    -6345667.55149  -4930417.38948  20307469.441    20307479.473
       246.000         214.000
  20746218.998     2055052.53749   1593366.68047  20746219.331    20746227.572
       247.000         209.000
  21418658.170    -8653942.58849  -6732871.71847  21418657.442    21418667.654
       237.000         196.000
  23462675.004     5780758.53149   4495780.63945  23462675.008    23462686.246
       221.000         160.000
  21747287.882     2202661.14749   1716076.03947  21747287.986    21747299.835
       239.000         199.000
  24369779.995    -1061401.48649   -823506.38345  24369779.862    24369790.490
       209.000         146.000
 00  4 17 18 43  0.0000000  0  7G30G24G 4G 5G 7G 9G16
  24388603.206    -5859668.58149  -4551872.98645  24388603.531    24388619.299
       206.000         141.000
  20301982.743    -6374501.09849  -4952885.03048  20301982.430    20301992.415
       245.000         214.000
  20756473.933     2108942.58149   1635358.90847  20756473.942    20756482.386
       244.000         209.000
  21405713.829    -8721965.28949  -6785876.35447  21405713.183    21405723.379
       237.000         196.000
  23475026.370     5845664.67449   4546356.76045  23475024.119    23475038.314
       215.000         160.000
  21757614.061     2256925.24549   1758359.61347  21757614.277    21757625.986
       238.000         199.000
  24374270.348    -1037803.95349   -805118.68445  24374270.304    24374280.236
       207.000         144.000
 00  4 17 18 43 30.0000000  0  8G30G24G 4G 5G10G 7G 9G16
  24369471.555    -5960205.09249  -4630212.94345  24369470.836    24369488.125
       209.000         141.000
  20296566.301    -6402964.50449  -4975064.25148  20296566.050    20296576.092
       245.000         214.000
  20766782.409     2163114.01549   1677570.40347  20766782.576    20766791.013
       244.000         209.000
  21392782.732    -8789918.40349  -6838826.76447  21392781.875    21392791.942
       237.000         196.000
  24576154.811    -2442496.21049  -1891992.06845  24576153.693    24576178.177
       202.000         138.000
  23487349.381     5910422.60649   4596817.36545  23487348.917    23487360.410
       217.000         159.000
  21767996.436     2311484.38349   1800873.08747  21767996.779    21768008.331
       238.000         199.000
  24378832.972    -1013826.69649   -786435.09045  24378832.935    24378844.844
       209.000         143.000
 00  4 17 18 44  0.0000000  0  8G30G24G 4G 5G10G 7G 9G16
  24350342.306    -6060728.88249  -4708542.97045  24350342.609    24350358.578
       210.000         141.000
  20291258.118    -6430859.13249  -4996800.27148  20291257.924    20291267.951
       245.000         214.000
  20777182.356     2217765.91149   1720156.28347  20777182.526    20777190.654
       244.000         208.000
  21379900.477    -8857614.85749  -6891577.18647  21379899.763    21379909.999
       237.000         196.000
  24557407.680    -2541011.47149  -1968756.77445  24557405.992    24557430.494
       205.000         139.000
  23499680.942     5975224.40049   4647312.16745  23499681.359    23499692.114
       220.000         160.000
  21778466.619     2366504.91149   1843746.08747  21778467.001    21778478.914
       238.000         198.000
  24383501.006     -989296.31449   -767320.48545  24383500.404    24383512.163
       210.000         145.000
 00  4 17 18 44 30.0000000  0  8G30G24G 4G 5G10G 7G 9G16
  24331222.410    -6161203.95649  -4786835.03845  24331222.655    24331239.088
       210.000         141.000
  20286066.106    -6458143.07949  -5018060.43648  20286065.789    20286075.931
       245.000         214.000
  20787680.086     2272931.81149   1763142.68647  20787680.328    20787688.736
       244.000         208.000
  21367075.287    -8925011.38649  -6944093.90747  21367074.222    21367084.671
       237.000         196.000
  24538651.090    -2639576.66949  -2045560.42845  24538649.117    24538673.877
       202.000         140.000
  23512028.412     6040110.51149   4697872.66945  23512027.832    23512040.089
       219.000         160.000
  21789030.472     2422017.54349   1887002.54647  21789030.488    21789042.683
       238.000         198.000
  24388279.092     -964187.20749   -747754.92945  24388277.986    24388289.974
       208.000         146.000
 00  4 17 18 45  0.0000000  0  8G30G24G 4G 5G10G 7G 9G16
  24312113.463    -6261621.66349  -4865082.41245  24312113.434    24312129.859
       209.000         143.000
  20280989.784    -6484819.23749  -5038847.00548  20280989.463    20280999.491
       245.000         214.000
  20798273.180     2328598.92349   1806519.63947  20798273.195    20798281.512
       243.000         208.000
  21354305.992    -8992114.20549  -6996381.76747  21354305.252    21354315.339
       237.000         197.000
  24519883.923    -2738197.12549  -2122407.14845  24519882.918    24519906.408
       205.000         140.000
  23524388.158     6105060.96349   4748483.30845  23524387.735    23524398.259
       219.000         160.000
  21799685.233     2478008.39449   1930631.63847  21799685.142    21799697.224
       237.000         198.000
  24393163.853     -938517.62649   -727752.65445  24393162.625    24393175.820
       207.000         144.000
 00  4 17 18 45 30.0000000  0  8G30G24G 4G 5G10G 7G 9G16
  24293014.407    -6361987.16549  -4943289.09045  24293013.986    24293030.960
       212.000         143.000
  20276026.163    -6510903.02349  -5059171.98348  20276025.769    20276035.923
       244.000         214.000
  20808962.209     2384769.98249   1850289.28047  20808962.415    20808970.851
       244.000         208.000
  21341594.550    -9058912.98049  -7048432.70447  21341593.992    21341603.754
       237.000         197.000
  24501107.637    -2836865.46849  -2199291.18945  24501106.107    24501131.116
       207.000         140.000
  23536758.275     6170065.54249   4799136.13845  23536756.333    23536769.734
       215.000         159.000
  21810428.213     2534462.61949   1974621.80147  21810428.445    21810440.273
       237.000         198.000
  24398156.135     -912282.36049   -707309.61545  24398155.818    24398166.777
       204.000         142.000
 00  4 17 18 46  0.0000000  0  8G30G24G 4G 5G10G 7G 9G16
  24273923.375    -6462310.71049  -5021463.08745  24273923.622    24273939.129
       212.000         144.000
  20271172.896    -6536406.84949  -5079045.04648  20271172.789    20271182.572
       246.000         214.000
  20819744.153     2441429.42449   1894439.47747  20819744.391    20819752.708
       244.000         208.000
  21328942.497    -9125399.87349  -7100240.61847  21328941.971    21328951.950
       238.000         197.000
  24482324.669    -2935569.02149  -2276202.67845  24482322.551    24482347.130
       207.000         139.000
  23549138.180     6235122.46749   4849829.71045  23549137.341    23549150.318
       216.000         159.000
  21821258.269     2591374.21349   2018968.36247  21821258.357    21821270.352
       238.000         198.000
  24403257.401     -885475.02549   -686420.77545  24403256.637    24403268.557
       206.000         143.000
 00  4 17 18 46 30.0000000  0  8G30G24G 4G 5G10G 7G 9G16
  24254839.758    -6562595.33249  -5099606.74745  24254839.404    24254856.711
       211.000         144.000
  20266424.332    -6561360.71449  -5098489.57048  20266423.867    20266433.763
       247.000         214.000
  20830614.627     2498554.04249   1938952.15047  20830614.626    20830623.211
       245.000         208.000
  21316351.956    -9191563.41549  -7151796.57147  21316351.227    21316361.210
       239.000         197.000
  24463534.589    -3034310.15049  -2353143.46345  24463532.189    24463557.234
       207.000         140.000
  23561528.959     6300235.85449   4900567.31445  23561529.203    23561540.916
       219.000         159.000
  21832172.930     2648730.52549   2063661.45247  21832173.201    21832185.139
       239.000         198.000
  24408464.748     -858110.43249   -665097.71445  24408464.692    24408475.787
       212.000         142.000
 00  4 17 18 47  0.0000000  0  8G30G24G 4G 5G10G 7G 9G16
  24235762.434    -6662846.72949  -5177724.51545  24235761.751    24235778.936
       212.000         145.000
  20261774.027    -6585798.09349  -5117531.63548  20261773.696    20261783.681
       245.000         214.000
  20841570.139     2556125.47549   1983812.99047  20841570.391    20841578.730
       243.000         208.000
  21303820.399    -9257416.97949  -7203110.97447  21303819.812    21303829.945
       237.000         197.000
  24444737.033    -3133090.36649  -2430114.71045  24444735.951    24444759.595
       205.000         141.000
  23573931.465     6365411.09649   4951353.10745  23573930.448    23573942.538
       219.000         158.000
  21843169.658     2706518.07349   2108690.58147  21843170.068    21843181.880
       237.000         197.000
  24413775.897     -830200.63549   -643349.79345  24413774.765    24413786.784
       203.000         143.000
 00  4 17 18 47 30.0000000  0  8G30G24G 4G 5G10G 7G 9G16
  24216688.123    -6763082.11749  -5255829.80545  24216688.475    24216704.299
       211.000         146.000
  20257218.964    -6609734.73349  -5136183.52048  20257218.649    20257228.647
       245.000         214.000
  20852607.163     2614125.39349   2029007.71147  20852607.610    20852615.800
       244.000         207.000
  21291343.740    -9322982.01849  -7254200.56447  21291342.780    21291353.167
       237.000         198.000
  24425928.272    -3231929.58749  -2507131.94145  24425926.343    24425950.739
       207.000         142.000
  23586345.910     6430649.00049   5002187.74445  23586345.093    23586357.194
       216.000         158.000
  21854246.361     2764725.81349   2154047.12647  21854246.590    21854258.939
       238.000         197.000
  24419187.361     -801762.91549   -621190.53045  24419186.319    24419198.457
       205.000         143.000
 00  4 17 18 48  0.0000000  0  8G30G24G 4G 5G10G 7G 9G16
  24197617.710    -6863296.99749  -5333919.10845  24197618.138    24197633.377
       215.000         146.000
  20252757.622    -6633179.14449  -5154451.84648  20252757.258    20252767.304
       245.000         214.000
  20863722.258     2672535.50149   2074522.06547  20863722.386    20863730.873
       244.000         207.000
  21278918.404    -9388277.39649  -7305080.02347  21278917.732    21278927.776
       237.000         198.000
  24407106.155    -3330839.03049  -2584203.89645  24407103.454    24407128.372
       207.000         142.000
  23598774.190     6495959.34449   5053078.81145  23598773.619    23598784.507
       217.000         159.000
  21865401.071     2823343.53849   2199723.14647  21865401.358    21865413.303
       238.000         197.000
  24424694.003     -772825.31949   -598641.75945  24424693.417    24424706.008
       209.000         144.000
 00  4 17 18 48 30.0000000  0  8G30G24G 4G 5G10G 7G 9G16
  24178551.404    -6963490.39549  -5411991.69245  24178549.778    24178566.372
       210.000         146.000
  20248390.694    -6656127.34549  -5172333.51848  20248390.481    20248400.258
       246.000         214.000
  20874915.557     2731356.56349   2120356.63747  20874915.617    20874924.009
       244.000         207.000
  21266540.228    -9453325.06449  -7355766.46647  21266539.571    21266549.300
       238.000         198.000
  24388267.869    -3429833.67649  -2661342.24645  24388266.714    24388290.545
       209.000         142.000
  23611215.794     6561340.07549   5104024.71945  23611215.546    23611227.017
       217.000         157.000
  21876631.564     2882359.63749   2245709.58147  21876631.613    21876643.573
       239.000         197.000
  24430292.524     -743405.05349   -575716.85745  24430292.490    24430302.566
       207.000         144.000
 00  4 17 18 49  0.0000000  0  8G30G24G 4G 5G10G 7G 9G16
  24159488.269    -7063667.07549  -5490051.23445  24159487.715    24159503.841
       212.000         147.000
  20244123.530    -6678551.22649  -5189806.62848  20244123.295    20244133.180
       244.000         214.000
  20886189.978     2790603.99149   2166523.44247  20886190.331    20886198.470
       243.000         207.000
  21254205.381    -9518144.80549  -7406275.29447  21254204.730    21254214.709
       237.000         198.000
  24369412.618    -3528917.06649  -2738549.76145  24369410.608    24369434.791
       210.000         142.000
  23623667.129     6626772.08449   5155010.57845  23623667.575    23623677.907
       220.000         157.000
  21887939.628     2941783.23949   2292013.55747  21887940.114    21887952.254
       239.000         197.000
  24435986.012     -713485.85749   -552403.18645  24435984.740    24435995.546
       204.000         143.000
 00  4 17 18 49 30.0000000  0  8G30G24G 4G 5G10G 7G 9G16
  24140430.523    -7163815.45049  -5568088.72345  24140430.508    24140445.952
       213.000         148.000
  20239960.335    -6700428.86449  -5206854.09348  20239960.017    20239969.588
       244.000         214.000
  20897548.700     2850294.38249   2213035.41347  20897548.958    20897557.430
       242.000         207.000
  21241916.436    -9582723.26849  -7456596.11547  21241915.938    21241925.768
       237.000         198.000
  24350542.265    -3628080.06149  -2815819.30445  24350540.861    24350564.355
       210.000         142.000
  23636126.733     6692246.77249   5206029.73045  23636126.560    23636137.680
       217.000         158.000
  21899327.539     3001626.70149   2338644.69247  21899327.821    21899339.850
       237.000         196.000
  24441777.647     -683050.29049   -528687.16345  24441777.330    24441788.164
       207.000         142.000
 00  4 17 18 50  0.0000000  0  8G30G24G 4G 5G10G 7G 9G16
  24121380.913    -7263921.00449  -5646092.84345  24121381.845    24121396.501
       211.000         148.000
  20235901.145    -6721759.81149  -5223475.56848  20235900.887    20235910.755
       245.000         214.000
  20908993.464     2910436.88449   2259899.67547  20908993.565    20909002.033
       243.000         206.000
  21229677.499    -9647039.25849  -7506712.41647  21229676.701    21229686.574
       237.000         199.000
  24331661.070    -3727299.92249  -2893133.16345  24331659.872    24331683.391
       210.000         142.000
  23648592.950     6757756.89149   5257076.44545  23648591.990    23648604.899
       215.000         158.000
  21910795.942     3061892.96749   2385605.28947  21910796.381    21910808.106
       238.000         196.000
  24447670.540     -652081.72749   -504555.82345  24447669.750    24447682.282
       207.000         142.000
 00  4 17 18 50 30.0000000  0  8G30G24G 4G 5G10G 7G 9G16
  24102340.236    -7363979.57649  -5724060.36445  24102340.077    24102356.472
       214.000         149.000
  20231945.936    -6742544.38749  -5239671.29748  20231945.725    20231955.567
       245.000         214.000
  20920525.163     2971036.37749   2307120.04047  20920525.442    20920533.867
       242.000         206.000
  21217489.925    -9711085.13749  -7556618.23547  21217489.298    21217499.347
       237.000         199.000
  24312770.166    -3826570.76449  -2970486.74245  24312768.601    24312793.015
       213.000         143.000
  23661063.858     6823291.86849   5308142.55645  23661062.427    23661075.680
       216.000         157.000
  21922345.210     3122584.19649   2432897.02447  21922345.226    21922358.082
       238.000         196.000
  24453670.222     -620553.77149   -479988.57545  24453670.096    24453680.461
       206.000         143.000
 00  4 17 18 51  0.0000000  0  8G30G24G 4G 5G10G 7G 9G16
  24083309.593    -7463985.59549  -5801986.94145  24083309.462    24083324.423
       214.000         149.000
  20228091.240    -6762801.00349  -5255455.63348  20228090.904    20228100.819
       246.000         214.000
  20932142.913     3032087.94149   2354692.66347  20932142.939    20932151.704
       243.000         206.000
  21205356.890    -9774844.32849  -7606300.66047  21205356.307    21205366.252
       239.000         199.000
  24293872.065    -3925879.65549  -3047869.97945  24293871.273    24293893.570
       213.000         143.000
  23673537.233     6888838.86149   5359218.02045  23673536.252    23673547.306
       218.000         157.000
  21933975.523     3183701.43349   2480520.71447  21933975.645    21933987.605
       239.000         196.000
  24459778.146     -588457.08649   -454978.16745  24459778.758    24459788.360
       212.000         142.000
 00  4 17 18 51 30.0000000  0  8G30G24G 4G 5G10G 7G 9G16
  24064289.017    -7563938.58549  -5879872.17745  24064287.870    24064303.908
       214.000         150.000
  20224332.540    -6782552.88449  -5270846.66448  20224332.316    20224342.113
       244.000         214.000
  20943842.594     3093570.21449   2402600.90947  20943842.669    20943851.025
       242.000         206.000
  21193281.144    -9838302.56949  -7655748.58147  21193280.307    21193290.162
       238.000         199.000
  24274967.447    -4025222.88349  -3125279.97445  24274965.791    24274988.312
       211.000         144.000
  23686013.045     6954399.25449   5410303.93245  23686013.584    23686023.378
       217.000         157.000
  21945682.983     3245224.10049   2528460.31947  21945682.840    21945695.063
       238.000         196.000
  24465991.182     -555807.31749   -429536.78345  24465990.307    24466002.182
       205.000         141.000
 00  4 17 18 52  0.0000000  0  8G30G24G 4G 5G10G 7G 9G16
  24045276.877    -7663847.22549  -5957722.86445  24045276.142    24045293.071
       217.000         150.000
  20220668.853    -6801805.67449  -5285848.79848  20220668.612    20220678.265
       245.000         214.000
  20955621.778     3155470.44349   2450834.82847  20955622.055    20955630.795
       243.000         206.000
  21181262.797    -9901459.04049  -7704961.36047  21181261.957    21181272.138
       239.000         200.000
  24256054.851    -4124607.82349  -3202722.47245  24256053.474    24256076.667
       213.000         144.000
  23698491.231     7019972.81449   5461400.06645  23698491.875    23698502.971
       218.000         157.000
  21957465.023     3307138.65549   2576705.28447  21957464.923    21957477.772
       239.000         195.000
  24472308.031     -522611.12149   -403669.61145  24472307.954    24472317.916
       204.000         141.000
 00  4 17 18 52 30.0000000  0  8G30G24G 4G 5G10G 7G 9G16
  24026271.116    -7763722.36649  -6035547.44845  24026270.499    24026285.878
       212.000         151.000
  20217101.139    -6820553.71949  -5300457.62648  20217100.812    20217110.555
       244.000         214.000
  20967478.696     3217778.82649   2499386.79047  20967479.026    20967487.456
       242.000         206.000
  21169301.188    -9964317.37849  -7753941.83647  21169300.748    21169310.464
       238.000         200.000
  24237133.596    -4224038.43049  -3280200.54145  24237131.773    24237154.659
       213.000         143.000
  23710972.261     7085560.20949   5512507.01345  23710973.645    23710982.990
       218.000         157.000
  21969320.282     3369438.10749   2625250.16747  21969320.966    21969332.785
       238.000         195.000
  24478725.093     -488888.52149   -377392.27945  24478724.172    24478736.768
       206.000         141.000
 00  4 17 18 53  0.0000000  0  8G30G24G 4G 5G10G 7G 9G16
  24007271.055    -7863567.39849  -6113348.55245  24007270.762    24007286.685
       215.000         152.000
  20213632.004    -6838783.82549  -5314662.85648  20213631.734    20213641.490
       244.000         214.000
  20979411.973     3280488.45049   2548251.41447  20979412.265    20979420.721
       241.000         205.000
  21157398.631   -10026865.64949  -7802680.69047  21157398.178    21157407.888
       238.000         200.000
  24218206.996    -4323497.07649  -3357700.47445  24218206.295    24218228.206
       211.000         143.000
  23723456.346     7151163.92849   5563626.68745  23723455.024    23723467.032
       215.000         155.000
  21981249.351     3432125.11049   2674097.04547  21981249.797    21981261.822
       237.000         195.000
  24485238.710     -454659.18649   -350720.06645  24485238.032    24485249.485
       207.000         143.000
 00  4 17 18 53 30.0000000  0  8G30G24G 4G 5G10G 7G 9G16
  23988276.544    -7963383.15449  -6191126.85645  23988276.332    23988292.577
       216.000         153.000
  20210264.199    -6856481.52349  -5328453.22948  20210263.985    20210273.632
       245.000         214.000
  20991420.722     3343594.81849   2597425.18347  20991420.962    20991429.504
       242.000         205.000
  21145554.791   -10089105.18749  -7851178.97947  21145553.978    21145564.175
       240.000         200.000
  24199276.112    -4422978.36149  -3435218.03945  24199274.101    24199297.488
       213.000         144.000
  23735946.214     7216798.68349   5614770.50445  23735946.686    23735956.932
       216.000         156.000
  21993252.985     3495204.14949   2723249.39847  21993253.427    21993265.550
       238.000         195.000
  24491848.933     -419922.93149   -323652.86145  24491847.647    24491860.669
       209.000         144.000
 00  4 17 18 54  0.0000000  0  8G30G24G 4G 5G10G 7G 9G16
  23969287.410    -8063170.57149  -6268883.06445  23969286.908    23969303.629
       217.000         153.000
  20206997.837    -6873646.12549  -5341828.20248  20206997.597    20207007.356
       245.000         214.000
  21003505.807     3407102.24149   2646911.46647  21003506.075    21003514.556
       242.000         205.000
  21133767.848   -10151045.70749  -7899444.26747  21133767.127    21133777.074
       239.000         201.000
  24180343.874    -4522466.72649  -3512741.11745  24180342.177    24180365.062
       213.000         144.000
  23748442.827     7282468.21349   5665941.44845  23748444.974    23748453.235
       220.000         158.000
  22005332.642     3558682.62349   2772712.99447  22005333.295    22005345.573
       237.000         195.000
  24498557.207     -384671.17649   -296183.97545  24498556.852    24498568.544
       203.000         143.000
 00  4 17 18 54 30.0000000  0  8G30G24G 4G 5G10G 7G 9G16
  23950304.696    -8162924.72549  -6346613.37345  23950304.739    23950320.913
       215.000         154.000
  20203831.684    -6890284.28449  -5354792.96148  20203831.309    20203840.951
       244.000         214.000
  21015666.621     3471007.54049   2696707.78247  21015666.947    21015675.572
       241.000         205.000
  21122037.937   -10212686.68349  -7947476.14347  21122037.358    21122047.316
       239.000         201.000
  24161412.974    -4621948.20349  -3590258.82945  24161411.273    24161434.250
       209.000         144.000
  23760945.599     7348169.61749   5717137.22845  23760945.989    23760956.801
       216.000         157.000
  22017487.509     3622556.26049   2822484.51447  22017487.840    22017500.312
       237.000         194.000
  24505364.001     -348901.02449   -268311.12645  24505364.179    24505374.500
       202.000         141.000
 00  4 17 18 55  0.0000000  0  8G30G24G 4G 5G10G 7G 9G16
  23931328.533    -8262644.21049  -6424316.66845  23931327.217    23931343.774
       212.000         154.000
  20200764.175    -6906404.14849  -5367353.85148  20200763.952    20200773.832
       245.000         214.000
  21027902.838     3535309.26349   2746813.00047  21027903.156    21027911.607
       241.000         205.000
  21110363.728   -10274035.12649  -7995280.07547  21110363.290    21110373.002
       240.000         201.000
  24142481.419    -4721432.76949  -3667778.92945  24142479.709    24142502.622
       211.000         144.000
  23773453.263     7413898.48449   5768354.40645  23773453.331    23773465.227
       215.000         154.000
  22029715.161     3686812.52249   2872554.17347  22029715.715    22029727.729
       237.000         194.000
  24512273.613     -312590.98949   -240017.61045  24512272.417    24512284.512
       204.000         139.000
 00  4 17 18 55 30.0000000  0  8G30G24G 4G 5G10G 7G 9G16
  23912359.518    -8362326.37749  -6501990.86845  23912358.689    23912373.774
       215.000         154.000
  20197795.884    -6922002.54449  -5379508.40548  20197795.617    20197805.382
       245.000         214.000
  21040215.472     3600012.50549   2797231.09247  21040215.722    21040224.302
       241.000         204.000
  21098744.616   -10335093.83949  -8042858.24847  21098744.143    21098753.851
       239.000         201.000
  24123546.441    -4820935.26949  -3745313.02045  24123544.907    24123567.074
       210.000         145.000
  23785968.222     7479664.17149   5819600.27845  23785969.336    23785980.032
       218.000         156.000
  22042012.778     3751436.36449   2922910.25447  22042013.172    22042025.419
       238.000         194.000
  24519287.083     -275734.49049   -211298.27445  24519286.361    24519298.150
       205.000         140.000
 00  4 17 18 56  0.0000000  0  8G30G24G 4G 5G10G 7G 9G16
  23893399.036    -8461963.76649  -6579630.18245  23893400.083    23893413.226
       216.000         154.000
  20194928.621    -6937069.94249  -5391249.19448  20194928.432    20194937.948
       244.000         214.000
  21052604.295     3665116.14049   2847961.17747  21052604.465    21052613.192
       241.000         204.000
  21087183.742   -10395846.50149  -8090197.94747  21087183.277    21087192.929
       239.000         202.000
  24104607.620    -4920458.27049  -3822863.08645  24104606.298    24104628.380
       209.000         144.000
  23798489.905     7545465.23649   5870873.68545  23798490.768    23798501.015
       217.000         158.000
  22054379.109     3816421.21449   2973547.63947  22054379.311    22054391.943
       237.000         194.000
  24526403.677     -238336.63949   -182157.09045  24526404.214    24526414.476
       205.000         141.000
 00  4 17 18 56 30.0000000  0  8G30G24G 4G 5G10G 7G 9G16
  23874449.887    -8561541.42449  -6657222.94845  23874449.273    23874463.974
       218.000         154.000
  20192167.389    -6951580.07249  -5402555.74848  20192167.313    20192176.751
       246.000         215.000
  21065068.738     3730617.13149   2899000.89247  21065069.026    21065077.380
       243.000         204.000
  21075683.745   -10456279.18049  -8137288.30147  21075683.268    21075693.101
       241.000         202.000
  24085661.542    -5020019.46949  -3900442.91345  24085659.805    24085682.361
       210.000         145.000
  23811020.709     7611314.60549   5922184.74545  23811019.154    23811031.585
       213.000         154.000
  22066815.031     3881771.65149   3024469.89647  22066815.182    22066828.143
       238.000         194.000
  24533621.139     -200409.24749   -152603.28245  24533620.638    24533632.111
       205.000         143.000
 00  4 17 18 57  0.0000000  0  8G30G24G 4G 5G10G 7G 9G16
  23855513.844    -8661050.42849  -6734762.22645  23855514.351    23855528.172
       218.000         155.000
  20189517.757    -6965503.94849  -5413405.48148  20189517.508    20189527.126
       244.000         214.000
  21077610.775     3796525.75449   2950358.24347  21077611.203    21077619.691
       241.000         204.000
  21064246.767   -10516380.81749  -8184120.71147  21064246.246    21064256.172
       239.000         202.000
  24066709.702    -5119610.54949  -3978046.02545  24066708.454    24066730.131
       208.000         144.000
  23823564.484     7677232.34649   5973549.07745  23823564.300    23823575.292
       215.000         155.000
  22079322.679     3947499.27449   3075686.06547  22079323.093    22079335.705
       236.000         193.000
  24540938.723     -161954.76449   -122638.75045  24540938.182    24540950.219
       202.000         143.000
 00  4 17 18 57 30.0000000  0  8G30G24G 4G 5G10G 7G 9G16
  23836593.143    -8760478.55549  -6812238.48945  23836592.291    23836607.914
       214.000         155.000
  20186980.231    -6978838.70849  -5423796.15848  20186979.975    20186989.637
       245.000         215.000
  21090230.223     3862841.25649   3002032.64447  21090230.427    21090239.044
       242.000         204.000
  21052875.847   -10576135.18349  -8230682.50847  21052875.298    21052884.977
       240.000         202.000
  24047757.767    -5219202.35049  -4055649.68345  24047756.325    24047778.228
       208.000         145.000
  23836122.336     7743222.42949   6024969.82045  23836123.355    23836133.929
       218.000         157.000
  22091908.209     4013636.02149   3127221.03147  22091908.860    22091921.440
       238.000         193.000
  24548354.781     -122982.60849    -92270.86645  24548354.268    24548365.864
       202.000         141.000
 00  4 17 18 58  0.0000000  0  8G30G24G 4G 5G10G 7G 9G16
  23817689.444    -8859817.33449  -6889645.12845  23817688.877    23817704.091
       212.000         156.000
  20184549.373    -6991612.77949  -5433749.94548  20184549.047    20184558.892
       244.000         214.000
  21102925.010     3929552.75049   3054015.60647  21102925.259    21102933.936
       240.000         204.000
  21041570.839   -10635543.17449  -8276974.41447  21041570.124    21041580.006
       240.000         203.000
  24028806.735    -5318789.62149  -4133249.81845  24028805.424    24028827.455
       209.000         145.000
  23848692.141     7809277.09049   6076440.82645  23848690.685    23848704.852
       210.000         155.000
  22104573.717     4080193.02349   3179083.46047  22104573.862    22104586.754
       235.000         192.000
  24555870.470      -83487.35149    -61495.36645  24555870.125    24555882.180
       208.000         141.000
 00  4 17 18 58 30.0000000  0  8G30G24G 4G 5G10G 7G 9G16
  23798801.769    -8959071.86349  -6966986.09345  23798803.031    23798816.691
       216.000         156.000
  20182220.474    -7003851.06849  -5443286.23348  20182220.230    20182229.863
       244.000         214.000
  21115694.581     3996657.06749   3106304.66747  21115694.799    21115703.371
       241.000         203.000
  21030329.003   -10694619.20249  -8323007.64347  21030328.357    21030337.886
       239.000         203.000
  24009856.328    -5418373.28349  -4210847.13245  24009854.134    24009876.673
       208.000         146.000
  23861272.108     7875385.13449   6127953.44045  23861270.906    23861284.241
       208.000         154.000
  22117317.278     4147160.15149   3231265.47147  22117317.530    22117330.131
       236.000         192.000
  24563486.424      -43465.41249    -30309.43645  24563486.742    24563496.873
       208.000         142.000
 00  4 17 18 59  0.0000000  0  7G30G24G 4G 5G10G 7G 9
  23779927.371    -9058256.65449  -7044272.73445  23779928.128    23779942.722
       217.000         156.000
  20179985.183    -7015597.50049  -5452439.26148  20179985.067    20179994.654
       245.000         214.000
  21128536.770     4064143.26049   3158891.29347  21128537.068    21128545.622
       242.000         203.000
  21019148.812   -10753371.26749  -8368788.43847  21019148.137    21019157.829
       241.000         203.000
  23990907.658    -5517948.05749  -4288437.51345  23990905.392    23990928.632
       209.000         146.000
  23873856.819     7941517.47249   6179484.99645  23873856.793    23873866.652
       218.000         154.000
  22130136.341     4214524.17349   3283756.74547  22130136.445    22130149.818
       238.000         192.000
 00  4 17 18 59 30.0000000  0  7G30G24G 4G 5G10G 7G 9
  23761065.956    -9157373.47449  -7121506.41845  23761065.487    23761080.267
       216.000         156.000
  20177837.156    -7026885.39749  -5461234.98848  20177836.964    20177846.528
       245.000         214.000
  21141448.166     4131993.11249   3211761.29347  21141448.320    21141456.860
       242.000         203.000
  21008030.596   -10811797.93949  -8414315.67247  21008029.973    21008039.767
       241.000         203.000
  23971960.067    -5617516.85049  -4366023.24045  23971958.209    23971980.272
       210.000         147.000
  23886443.680     8007660.30949   6231024.75045  23886443.999    23886455.800
       214.000         154.000
  22143027.865     4282269.04849   3336544.79047  22143027.791    22143040.972
       237.000         192.000
 00  4 17 19  0  0.0000000  0  7G30G24G 4G 5G10G 7G 9
  23742216.461    -9256427.48949  -7198691.15645  23742216.126    23742230.416
       217.000         157.000
  20175775.038    -7037721.60649  -5469678.75048  20175774.632    20175784.269
       246.000         215.000
  21154427.514     4200199.92149   3264909.43647  21154427.595    21154436.143
       243.000         203.000
  20996972.413   -10869908.84949  -8459596.85447  20996971.799    20996981.320
       242.000         203.000
  23953008.875    -5717104.67049  -4443623.78745  23953007.248    23953028.926
       210.000         148.000
  23899029.896     8073801.90949   6282563.49445  23899029.586    23899041.758
       211.000         153.000
  22155983.387     4350350.04049   3389594.74447  22155983.322    22155996.126
       236.000         191.000
 00  4 17 19  0 30.0000000  0  7G30G24G 4G 5G10G 7G 9
  23723377.074    -9355428.04449  -7275834.24345  23723377.408    23723391.772
       212.000         157.000
  20173802.697    -7048086.19149  -5477755.02548  20173802.357    20173812.101
       245.000         215.000
  21167474.835     4268764.00749   3318335.97647  21167474.802    21167483.590
       241.000         203.000
  20985972.875   -10927711.59649  -8504637.91947  20985972.324    20985982.124
       241.000         204.000
  23934056.575    -5816698.46949  -4521228.97845  23934054.039    23934076.219
       209.000         149.000
  23911614.211     8139932.74349   6334093.86045  23911615.203    23911625.249
       217.000         154.000
  22169001.046     4418757.62249   3442899.17747  22169001.300    22169014.438
       236.000         191.000
 00  4 17 19  1  0.0000000  0  7G30G24G 4G 5G10G 7G 9
  23704549.041    -9454369.24949  -7352931.08945  23704548.103    23704563.602
       215.000         157.000
  20171922.969    -7057963.97549  -5485451.97448  20171922.928    20171932.541
       244.000         215.000
  21180589.067     4337679.77149   3372036.54647  21180589.493    21180598.130
       241.000         203.000
  20975032.791   -10985201.95249  -8549435.56047  20975032.207    20975042.114
       240.000         204.000
  23915104.279    -5916291.96249  -4598833.93545  23915102.659    23915124.299
       211.000         149.000
  23924198.243     8206061.05349   6385622.27745  23924196.923    23924210.227
       212.000         153.000
  22182082.161     4487498.65649   3496463.44047  22182082.534    22182095.411
       235.000         191.000
 00  4 17 19  1 30.0000000  0  7G30G24G 4G 5G10G 7G 9
  23685734.290    -9553240.64949  -7429973.52445  23685735.197    23685748.906
       216.000         157.000
  20170141.380    -7067326.10949  -5492747.11448  20170141.202    20170150.702
       246.000         215.000
  21193771.691     4406954.84749   3426017.11247  21193771.997    21193780.700
       242.000         202.000
  20964151.071   -11042385.49749  -8593994.12347  20964150.641    20964160.369
       242.000         204.000
  23896152.583    -6015882.29449  -4676436.40845  23896151.009    23896173.018
       211.000         150.000
  23936784.701     8272203.33249   6437161.56945  23936783.320    23936797.016
       211.000         151.000
  22195226.301     4556571.07849   3550285.93247  22195226.454    22195239.687
       235.000         191.000
 00  4 17 19  2  0.0000000  0  7G30G24G 4G 5G10G 7G 9
  23666933.850    -9652036.72149  -7506957.27245  23666933.413    23666947.877
       215.000         157.000
  20168464.010    -7076140.73449  -5499615.63248  20168463.983    20168473.442
       244.000         215.000
  21207026.308     4476608.12749   3480292.36947  21207026.751    21207035.209
       240.000         202.000
  20953327.438   -11099263.95749  -8638314.96547  20953327.054    20953336.576
       241.000         204.000
  23877201.515    -6115469.57349  -4754036.50345  23877200.078    23877221.778
       211.000         151.000
  23949376.459     8338372.79849   6488722.02045  23949376.731    23949388.367
       212.000         151.000
  22208436.247     4625989.01649   3604377.65347  22208436.749    22208449.960
       234.000         191.000
 00  4 17 19  2 30.0000000  0  7G30G24G 4G 5G10G 7G 9
  23648147.363    -9750759.48849  -7583883.87345  23648147.668    23648162.500
       218.000         157.000
  20166893.304    -7084394.63549  -5506047.21948  20166893.250    20166902.829
       245.000         215.000
  21220353.052     4546640.51349   3534863.03847  21220353.515    21220361.942
       241.000         202.000
  20942564.948   -11155821.10149  -8682385.42847  20942564.504    20942574.042
       241.000         205.000
  23858254.367    -6215036.17749  -4831620.49345  23858253.015    23858274.052
       213.000         152.000
  23961977.401     8404590.81049   6540320.32945  23961977.428    23961990.213
       211.000         152.000
  22221717.390     4695781.47049   3658761.20347  22221717.915    22221730.840
       234.000         190.000
 00  4 17 19  3  0.0000000  0  7G30G24G 4G 5G10G 7G 9
  23629375.726    -9849404.13449  -7660749.63245  23629374.814    23629390.102
       213.000         158.000
  20165429.182    -7092088.65549  -5512042.52948  20165428.734    20165438.396
       245.000         215.000
  21233752.194     4617053.39449   3589730.20247  21233752.319    21233760.974
       241.000         202.000
  20931868.397   -11212031.81349  -8726185.94147  20931867.700    20931877.523
       241.000         205.000
  23839310.817    -6314583.72149  -4909189.62445  23839309.489    23839330.845
       214.000         153.000
  23974592.087     8470880.28349   6591974.29645  23974591.975    23974603.457
       212.000         153.000
  22235070.391     4765951.11849   3713438.67447  22235070.731    22235083.657
       235.000         190.000
 00  4 17 19  3 30.0000000  0  7G30G24G 4G 5G10G 7G 9
  23610618.131    -9947975.18549  -7737558.03245  23610618.839    23610633.098
       219.000         158.000
  20164071.952    -7099220.76249  -5517599.99948  20164071.694    20164081.304
       246.000         215.000
  21247223.910     4687847.67749   3644894.55447  21247224.273    21247232.852
       241.000         202.000
  20921240.700   -11267880.52749  -8769704.37847  20921239.877    20921249.719
       242.000         205.000
  23820374.001    -6414095.70249  -4986731.03445  23820372.140    23820393.959
       213.000         153.000
  23987220.071     8537240.70049   6643683.56545  23987219.743    23987232.241
       211.000         151.000
  22248493.639     4836490.16749   3768403.98647  22248493.968    22248507.155
       235.000         190.000
 00  4 17 19  4  0.0000000  0  7G30G24G 4G 5G10G 7G 9
  23591874.659   -10046471.89449  -7814308.51145  23591874.675    23591889.241
       219.000         158.000
  20162819.025    -7105804.87749  -5522730.46148  20162818.951    20162828.451
       245.000         215.000
  21260765.828     4759010.74549   3700346.26947  21260766.138    21260774.546
       240.000         202.000
  20910686.110   -11323345.11749  -8812923.50647  20910685.743    20910695.409
       241.000         205.000
  23801447.351    -6513554.62649  -5064231.11345  23801445.552    23801467.068
       214.000         154.000
  23999861.880     8603672.94649   6695448.79645  23999861.362    23999874.133
       209.000         151.000
  22261987.511     4907400.17249   3823658.34847  22261987.477    22262001.188
       233.000         190.000
 00  4 17 19  4 30.0000000  0  7G30G24G 4G 5G10G 7G 9
  23573147.878   -10144881.14849  -7890990.85445  23573147.090    23573162.368
       216.000         158.000
  20161667.460    -7111856.33849  -5527445.86148  20161667.268    20161676.883
       245.000         215.000
  21274374.688     4830525.58849   3756072.10247  21274374.767    21274383.636
       239.000         201.000
  20900205.783   -11378419.47549  -8855838.55347  20900205.119    20900214.846
       241.000         205.000
  23782533.497    -6612946.02749  -5141678.57245  23782532.216    23782553.155
       214.000         155.000
  24012513.940     8670159.97149   6747256.71345  24012514.672    24012526.343
       210.000         149.000
  22275549.980     4978670.55549   3879193.52847  22275550.297    22275563.406
       233.000         189.000
 00  4 17 19  5  0.0000000  0  7G30G24G 4G 5G10G 7G 9
  23554439.547   -10243193.46649  -7967597.65145  23554440.430    23554453.534
       218.000         159.000
  20160615.867    -7117382.48249  -5531751.93048  20160615.716    20160625.175
       245.000         215.000
  21288050.573     4902392.62649   3812072.36447  21288050.759    21288059.365
       240.000         201.000
  20889796.267   -11433121.79149  -8898463.70447  20889795.845    20889805.561
       241.000         205.000
  23763633.720    -6712263.92549  -5219068.76945  23763631.890    23763652.703
       215.000         155.000
  24025172.969     8736682.99949   6799092.67345  24025173.259    24025185.338
       211.000         149.000
  22289176.652     5050278.53349   3934991.76747  22289177.004    22289190.261
       233.000         189.000
 00  4 17 19  5 30.0000000  0  7G30G24G 4G 5G10G 7G 9
  23535753.485   -10341388.63449  -8044113.18045  23535752.657    23535767.784
       216.000         159.000
  20159663.177    -7122388.98049  -5535653.07648  20159663.096    20159672.498
       245.000         215.000
  21301793.989     4974614.67549   3868349.26247  21301794.265    21301802.743
       239.000         201.000
  20879453.424   -11487473.75549  -8940815.85547  20879452.916    20879462.387
       241.000         206.000
  23744748.100    -6811507.08849  -5296400.73845  23744745.924    23744767.623
       216.000         155.000
  24037836.578     8803228.87849   6850946.51045  24037835.922    24037848.875
       210.000         151.000
  22302865.181     5122211.43949   3991043.19647  22302866.037    22302878.790
       233.000         189.000
 00  4 17 19  6  0.0000000  0  7G30G24G 4G 5G10G 7G 9
  23517091.755   -10439455.76449  -8120528.91045  23517090.997    23517105.830
       219.000         159.000
  20158806.673    -7126889.87949  -5539160.25148  20158806.379    20158815.805
       245.000         215.000
  21315604.409     5047189.00449   3924900.66447  21315604.624    21315613.437
       240.000         201.000
  20869172.607   -11541499.67349  -8982913.94347  20869172.013    20869181.528
       241.000         206.000
  23725872.891    -6910695.38149  -5373689.94645  23725870.991    23725891.880
       214.000         155.000
  24050504.375     8869799.38049   6902819.40345  24050504.162    24050516.664
       207.000         149.000
  22316613.565     5194458.74549   4047339.60247  22316613.770    22316627.058
       233.000         189.000
 00  4 17 19  6 30.0000000  0  7G30G24G 4G 5G10G 7G 9
  23498453.729   -10537398.19049  -8196847.49645  23498452.750    23498467.146
       219.000         160.000
  20158047.026    -7130881.56349  -5542270.62948  20158046.885    20158056.468
       245.000         215.000
  21329483.477     5120123.89749   3981733.02547  21329483.546    21329492.367
       239.000         200.000
  20858949.512   -11595222.26449  -9024775.67447  20858949.030    20858958.606
       241.000         206.000
  23707005.976    -7009840.03549  -5450945.16245  23707004.542    23707025.035
       215.000         155.000
  24063176.493     8936391.87049   6954709.47745  24063177.829    24063188.672
       211.000         148.000
  22330419.016     5267006.15749   4103869.86247  22330419.422    22330432.900
       233.000         189.000
 00  4 17 19  7  0.0000000  0  7G30G24G 4G 5G10G 7G 9
  23479836.933   -10635229.33649  -8273079.34445  23479836.028    23479850.271
       218.000         160.000
  20157383.645    -7134367.74249  -5544987.11148  20157383.324    20157393.036
       245.000         215.000
  21343430.573     5193416.31449   4038843.97147  21343430.790    21343439.377
       240.000         200.000
  20848783.801   -11648643.34249  -9066402.46147  20848783.428    20848793.029
       242.000         206.000
  23688146.946    -7108943.56749  -5528168.33245  23688145.018    23688166.740
       216.000         156.000
  24075857.479     9003028.89949   7006634.33045  24075857.131    24075869.530
       215.000         148.000
  22344279.813     5339844.47849   4160626.80547  22344280.177    22344293.861
       233.000         188.000
 00  4 17 19  7 30.0000000  0  7G30G24G 4G 5G10G 7G 9
  23461240.698   -10732952.28149  -8349226.89845  23461240.621    23461255.185
       219.000         160.000
  20156815.621    -7137352.54249  -5547312.90648  20156815.487    20156825.038
       246.000         215.000
  21357442.955     5267051.81549   4096222.25747  21357443.330    21357452.060
       241.000         200.000
  20838679.500   -11701741.60949  -9107777.70647  20838678.893    20838688.678
       242.000         206.000
  23669292.619    -7208022.52249  -5605372.36845  23669291.251    23669311.422
       217.000         156.000
  24088548.888     9069721.24649   7058602.25945  24088547.406    24088561.373
       204.000         146.000
  22358196.418     5412975.99049   4217612.20447  22358196.513    22358210.528
       234.000         188.000
 00  4 17 19  8  0.0000000  0  7G30G24G 4G 5G10G 7G 9
  23442660.623   -10830590.45349  -8425308.37845  23442660.714    23442675.300
       221.000         161.000
  20156343.777    -7139831.98749  -5549244.91748  20156343.674    20156353.271
       245.000         215.000
  21371517.717     5341014.99149   4153855.87947  21371518.136    21371526.468
       239.000         199.000
  20828640.695   -11754495.81049  -9148884.85147  20828640.282    20828649.688
       242.000         206.000
  23650442.634    -7307078.13749  -5682558.20945  23650440.031    23650460.623
       217.000         155.000
  24101249.186     9136462.72149   7110608.39845  24101248.713    24101263.456
       207.000         146.000
  22372171.453     5486414.55949   4274836.87147  22372172.028    22372185.627
       233.000         188.000
 00  4 17 19  8 30.0000000  0  7G30G24G 4G 5G10G 7G 9
  23424097.220   -10928141.27349  -8501321.80745  23424097.445    23424111.066
       219.000         161.000
  20155970.033    -7141796.05649  -5550775.33948  20155969.862    20155979.450
       245.000         215.000
  21385655.505     5415309.52849   4211747.70047  21385656.138    21385664.698
       239.000         199.000
  20818672.939   -11806876.61549  -9189701.03947  20818672.393    20818681.938
       242.000         207.000
  23631601.545    -7406087.26149  -5759707.82145  23631600.953    23631620.372
       217.000         155.000
  24113957.942     9203246.96649   7162647.86345  24113958.624    24113969.685
       211.000         148.000
  22386206.395     5560167.77849   4332306.71247  22386207.201    22386220.402
       233.000         188.000
 00  4 17 19  9  0.0000000  0  7G30G24G 4G 5G10G 7G 9
  23405551.718   -11025597.47649  -8577261.50445  23405551.714    23405564.798
       221.000         161.000
  20155693.098    -7143251.16549  -5551909.16348  20155692.944    20155702.639
       244.000         215.000
  21399854.903     5489927.64149   4269891.66047  21399855.298    21399863.989
       239.000         199.000
  20808781.349   -11858857.18949  -9230205.35647  20808780.921    20808790.568
       242.000         207.000
  23612770.366    -7505044.49749  -5836816.99845  23612768.441    23612789.949
       217.000         155.000
  24126675.131     9270074.89849   7214721.45145  24126677.289    24126687.526
       215.000         149.000
  22400302.360     5634241.87549   4390026.59147  22400302.633    22400316.187
       232.000         188.000
 00  4 17 19  9 30.0000000  0  7G30G24G 4G 5G10G 7G 9
  23387025.207   -11122954.30949  -8653123.78145  23387025.109    23387038.796
       220.000         162.000
  20155512.829    -7144198.32849  -5552647.18848  20155512.619    20155522.351
       245.000         215.000
  21414117.369     5564877.32149   4328293.99147  21414117.475    21414126.257
       239.000         199.000
  20798966.786   -11910432.93249  -9270394.22447  20798966.285    20798975.782
       243.000         207.000
  23593949.518    -7603947.25349  -5913883.72945  23593947.410    23593968.408
       217.000         155.000
  24139397.059     9336928.30249   7266814.87445  24139395.234    24139409.592
       207.000         145.000
  22414461.743     5708649.27549   4448006.18446  22414462.191    22414475.814
       232.000         187.000
 00  4 17 19 10  0.0000000  0  7G30G24G 4G 5G10G 7G 9
  23368518.150   -11220208.46349  -8728906.02445  23368517.812    23368531.646
       221.000         162.000
  20155428.778    -7144640.06349  -5552991.37148  20155428.407    20155437.977
       246.000         215.000
  21428443.164     5640159.86549   4386955.69647  21428443.207    21428451.980
       240.000         198.000
  20789227.654   -11961612.33849  -9310274.25147  20789226.958    20789236.655
       243.000         207.000
  23575145.914    -7702759.28949  -5990879.75845  23575143.798    23575164.466
       217.000         155.000
  24152123.525     9403806.62049   7318927.69845  24152123.193    24152136.909
       209.000         144.000
  22428682.422     5783379.06949   4506236.99846  22428682.666    22428696.329
       233.000         187.000
 00  4 17 19 10 30.0000000  0  7G30G24G 4G 5G10G 7G 9
  23350032.387   -11317351.36949  -8804601.60346  23350032.069    23350046.377
       221.000         163.000
  20155439.059    -7144585.91449  -5552949.15248  20155438.750    20155448.450
       245.000         215.000
  21442832.081     5715774.03949   4445875.80947  21442832.226    21442840.978
       239.000         198.000
  20779560.400   -12012413.83449  -9349859.80647  20779559.790    20779569.621
       242.000         207.000
  23556361.280    -7801471.63049  -6067798.10445  23556359.162    23556379.464
       217.000         155.000
  24164856.176     9470716.57549   7371065.14545  24164856.698    24164868.433
       210.000         147.000
  22442960.958     5858412.43349   4564704.35946  22442961.361    22442975.650
       233.000         187.000
 00  4 17 19 11  0.0000000  0  7G30G24G 4G 5G10G 7G 9
  23331564.272   -11414401.11549  -8880224.60046  23331563.745    23331577.956
       219.000         163.000
  20155542.970    -7144039.70849  -5552523.52248  20155542.778    20155552.394
       244.000         215.000
  21457282.420     5791711.15349   4505047.55747  21457282.852    21457291.295
       239.000         198.000
  20769962.781   -12062849.57149  -9389160.36147  20769962.384    20769972.115
       242.000         208.000
  23537592.283    -7900101.92649  -6144652.50445  23537590.325    23537610.691
       216.000         155.000
  24177594.706     9537656.26349   7423225.78045  24177595.599    24177607.766
       211.000         149.000
  22457297.654     5933751.44449   4623409.87446  22457298.186    22457312.171
       232.000         186.000
 00  4 17 19 11 30.0000000  0  7G30G24G 4G 5G10G 7G 9
  23313114.175   -11511356.41049  -8955773.99446  23313114.427    23313128.098
       218.000         163.000
  20155740.896    -7142999.45749  -5551712.90848  20155740.581    20155750.282
       244.000         215.000
  21471793.229     5867965.88649   4564466.80647  21471793.617    21471802.241
       238.000         198.000
  20760432.392   -12112931.99349  -9428185.59247  20760431.952    20760441.357
       242.000         208.000
  23518840.784    -7998639.95349  -6221435.00545  23518839.146    23518858.287
       215.000         155.000
  24190340.369     9604635.06049   7475416.89545  24190339.357    24190353.232
       208.000         144.000
  22471693.395     6009400.69449   4682357.14246  22471693.740    22471708.416
       232.000         186.000
 00  4 17 19 12  0.0000000  0  7G30G24G 4G 5G10G 7G 9
  23294683.129   -11608211.46849  -9031245.28946  23294683.546    23294696.709
       221.000         164.000
  20156032.584    -7141466.30049  -5550518.21948  20156032.459    20156041.802
       244.000         215.000
  21486363.036     5944530.68349   4624127.66247  21486363.650    21486372.082
       238.000         197.000
  20750968.654   -12162664.25749  -9466937.97947  20750968.194    20750977.952
       243.000         208.000
  23500105.781    -8097091.76549  -6298150.32445  23500104.246    23500124.031
       216.000         155.000
  24203094.286     9671657.47249   7527641.98045  24203093.967    24203107.769
       209.000         141.000
  22486145.198     6085344.54649   4741533.96546  22486145.565    22486160.046
       232.000         186.000
 00  4 17 19 12 30.0000000  0  7G30G24G 4G 5G10G 7G 9
  23276271.523   -11704964.32149  -9106636.93446  23276271.043    23276285.124
       221.000         164.000
  20156419.259    -7139434.28649  -5548934.80748  20156419.311    20156428.767
       244.000         215.000
  21500992.428     6021408.49949   4684032.43447  21500992.772    21501001.507
       237.000         197.000
  20741571.642   -12212045.75749  -9505417.03847  20741571.139    20741580.786
       242.000         208.000
  23481381.938    -8195484.72249  -6374819.77245  23481380.768    23481399.746
       216.000         155.000
  24215856.403     9738721.98749   7579899.87645  24215855.922    24215868.907
       208.000         141.000
  22500655.088     6161593.85949   4800948.81046  22500655.400    22500669.694
       231.000         185.000
 00  4 17 19 13  0.0000000  0  7G30G24G 4G 5G10G 7G 9
  23257882.160   -11801600.30049  -9181937.51546  23257882.313    23257895.709
       222.000         165.000
  20156901.367    -7136900.65449  -5546960.52548  20156901.348    20156910.847
       245.000         215.000
  21515680.309     6098593.97949   4744176.93947  21515680.834    21515689.407
       238.000         197.000
  20732245.521   -12261054.76849  -9543605.84747  20732245.105    20732254.701
       243.000         208.000
  23462669.697    -8293816.68449  -6451441.68745  23462668.113    23462687.717
       216.000         156.000
  24228626.443     9805827.34749   7632189.63045  24228627.051    24228639.060
       213.000         147.000
  22515223.051     6238148.44949   4860601.53446  22515223.605    22515237.455
       232.000         185.000
 00  4 17 19 13 30.0000000  0  7G30G24G 4G 5G10G 7G 9
  23239520.432   -11898091.34349  -9257125.15346  23239520.475    23239533.959
       221.000         165.000
  20157479.282    -7133863.75449  -5544594.08648  20157479.317    20157488.576
       245.000         215.000
  21530424.152     6176073.14249   4804550.29547  21530424.387    21530433.022
       237.000         196.000
  20722990.616   -12309689.58149  -9581503.07547  20722990.122    20722999.760
       242.000         208.000
  23443971.926    -8392072.46849  -6528004.24445  23443969.727    23443990.016
       217.000         156.000
  24241405.154     9872978.85449   7684515.31445  24241404.025    24241417.481
       207.000         146.000
  22529845.076     6314986.86349   4920475.41846  22529845.652    22529859.666
       231.000         185.000
 00  4 17 19 14  0.0000000  0  7G30G24G 4G 5G10G 7G 9
  23221186.269   -11994437.25549  -9332199.70446  23221186.817    23221199.272
       225.000         165.000
  20158154.806    -7130313.77849  -5541827.84748  20158154.780    20158164.053
       245.000         215.000
  21545224.600     6253849.93249   4865155.56347  21545224.871    21545233.561
       238.000         196.000
  20713810.241   -12357932.56949  -9619094.98647  20713809.728    20713819.320
       243.000         209.000
  23425290.240    -8490243.76549  -6604500.95645  23425288.700    23425307.694
       217.000         157.000
  24254188.008     9940153.16949   7736858.73545  24254187.865    24254199.336
       209.000         144.000
  22544517.587     6392090.46249   4980555.93346  22544518.515    22544531.944
       231.000         184.000
 00  4 17 19 14 30.0000000  0  7G30G24G 4G 5G10G 7G 9
  23202880.809   -12090632.25549  -9407156.67346  23202880.860    23202894.096
       222.000         166.000
  20158929.103    -7126244.82149  -5538657.21148  20158928.934    20158938.360
       244.000         215.000
  21560081.475     6331923.04449   4925991.73347  21560081.836    21560090.648
       236.000         196.000
  20704707.776   -12405766.18349  -9656367.89947  20704707.339    20704716.982
       242.000         209.000
  23406629.277    -8588306.27849  -6680912.89545  23406627.579    23406647.730
       218.000         157.000
  24266974.924    10007349.12949   7789219.03945  24266974.433    24266988.684
       208.000         142.000
  22559242.965     6469471.82049   5040852.88046  22559242.791    22559257.414
       230.000         184.000
 00  4 17 19 15  0.0000000  0  7G30G24G 4G 5G10G 7G 9
  23184604.488   -12186674.23749  -9481994.39446  23184604.432    23184617.962
       224.000         166.000
  20159801.914    -7121658.03949  -5535083.07248  20159801.870    20159811.342
       244.000         215.000
  21574993.087     6410284.01449   4987052.20547  21574993.243    21575002.021
       237.000         195.000
  20695685.759   -12453177.12549  -9693311.45947  20695685.325    20695694.853
       242.000         209.000
  23387992.165    -8686243.60049  -6757227.29545  23387991.041    23388009.733
       218.000         158.000
  24279767.420    10074572.79049   7841600.94945  24279767.627    24279779.993
       211.000         144.000
  22574020.556     6547127.78349   5101363.81246  22574021.270    22574035.553
       231.000         184.000
 00  4 17 19 15 30.0000000  0  7G30G24G 4G 5G10G 7G 9
  23166356.642   -12282566.77249  -9556715.67646  23166355.796    23166369.206
       223.000         166.000
  20160774.901    -7116544.75949  -5531098.67248  20160774.666    20160784.205
       244.000         215.000
  21589961.348     6488942.80249   5048344.74547  21589961.551    21589970.222
       237.000         195.000
  20686742.068   -12500176.47549  -9729934.29247  20686741.467    20686750.988
       242.000         209.000
  23369380.697    -8784045.53749  -6833436.18345  23369378.906    23369397.925
       217.000         158.000
  24292566.003    10141828.27949   7894007.67945  24292566.726    24292576.513
       213.000         144.000
  22588852.031     6625066.84549   5162095.33346  22588852.573    22588866.959
       230.000         184.000
 00  4 17 19 16  0.0000000  0  8G30G24G 4G 5G10G 7G 6G 9
  23148137.057   -12378310.58649  -9631321.05146  23148137.348    23148150.156
       224.000         166.000
  20161847.623    -7110907.51649  -5526705.98948  20161847.413    20161856.855
       245.000         215.000
  21604991.066     6567924.46449   5109888.87747  21604991.076    21605000.075
       237.000         195.000
  20677877.765   -12546758.57049  -9766231.99547  20677877.114    20677886.784
       244.000         209.000
  23350796.514    -8881704.59349  -6909533.73645  23350794.621    23350813.441
       219.000         159.000
  24305372.003    10209123.91349   7946445.68245  24305371.252    24305385.754
       209.000         142.000
  24862611.291    -3683281.51649  -2554120.51345  24862610.543    24862632.575
       208.000         134.000
  22603741.420     6703310.40249   5223064.12046  22603741.825    22603755.896
       232.000         184.000
 00  4 17 19 16 30.0000000  0  8G30G24G 4G 5G10G 7G 6G 9
  23129944.261   -12473913.69949  -9705816.82046  23129944.323    23129956.725
       225.000         167.000
  20163015.597    -7104769.75949  -5521923.30148  20163015.375    20163024.916
       246.000         215.000
  21620077.573     6647204.71849   5171665.67447  21620077.712    21620086.462
       238.000         195.000
  20669087.562   -12592951.24749  -9802226.26147  20669086.959    20669096.743
       245.000         210.000
  23332234.340    -8979248.22249  -6985541.35345  23332232.761    23332251.143
       220.000         159.000
  24318187.137    10276467.66549   7998921.13445  24318186.390    24318200.658
       206.000         143.000
  24849031.169    -3754645.05449  -2609728.28445  24849030.064    24849052.261
       206.000         135.000
  22618686.848     6781848.49749   5284262.40846  22618686.989    22618701.494
       233.000         183.000
 00  4 17 19 17  0.0000000  0  8G30G24G 4G 5G10G 7G 6G 9
  23111777.581   -12569379.51749  -9780205.59946  23111777.799    23111791.968
       224.000         167.000
  20164279.865    -7098125.74649  -5516746.13248  20164279.810    20164289.235
       244.000         215.000
  21635220.191     6726779.45549   5233671.93747  21635220.618    21635229.319
       236.000         194.000
  20660368.161   -12638771.91949  -9837930.65547  20660367.735    20660377.297
       243.000         210.000
  23313692.557    -9076684.51049  -7061465.33845  23313690.418    23313709.723
       216.000         160.000
  24331012.568    10343865.42849   8051438.68345  24331013.400    24331026.599
       212.000         144.000
  24835453.591    -3825994.73449  -2665325.25345  24835453.363    24835475.912
       207.000         136.000
  22633687.067     6860674.43549   5345684.98946  22633687.554    22633702.254
       229.000         183.000
 00  4 17 19 17 30.0000000  0  8G30G24G 4G 5G10G 7G 6G 9
  23093637.341   -12664706.47449  -9854486.18546  23093637.747    23093650.829
       225.000         168.000
  20165638.115    -7090988.15549  -5511184.34148  20165637.989    20165647.373
       245.000         215.000
  21650419.423     6806651.79649   5295910.10747  21650419.616    21650428.239
       236.000         194.000
  20651719.125   -12684222.85249  -9873346.93347  20651718.753    20651728.135
       244.000         210.000
  23295171.764    -9174010.20749  -7137303.13645  23295170.679    23295188.496
       218.000         161.000
  24343848.435    10411316.45449   8103997.76445  24343849.134    24343860.702
       213.000         144.000
  24821879.989    -3897324.06649  -2720906.34845  24821879.960    24821900.649
       207.000         136.000
  22648740.522     6939780.00049   5407325.46746  22648740.433    22648755.249
       230.000         183.000
 00  4 17 19 18  0.0000000  0  8G30G24G 4G 5G10G 7G 6G 9
  23075522.480   -12759900.10449  -9928662.87346  23075521.949    23075535.657
       225.000         168.000
  20167087.468    -7083371.54449  -5505249.29548  20167087.096    20167096.540
       245.000         215.000
  21665673.131     6886810.70249   5358371.57547  21665673.506    21665681.823
       237.000         194.000
  20643142.944   -12729290.72349  -9908464.72347  20643142.350    20643151.815
       243.000         210.000
  23276671.389    -9271228.85649  -7213057.51845  23276669.737    23276688.144
       218.000         162.000
  24356695.261    10478825.84149   8156602.34845  24356693.772    24356706.407
       206.000         141.000
  24808307.396    -3968648.07349  -2776483.27045  24808307.396    24808329.092
       208.000         137.000
  22663844.470     7019151.00349   5469172.76946  22663845.057    22663859.338
       231.000         182.000
 00  4 17 19 18 30.0000000  0  8G30G24G 4G 5G10G 7G 6G 9
  23057432.606   -12854962.31449 -10002737.16946  23057432.352    23057445.610
       226.000         168.000
  20168629.978    -7075265.46449  -5498932.85148  20168629.648    20168639.327
       245.000         215.000
  21680977.967     6967237.91549   5421042.09847  21680978.421    21680986.843
       237.000         194.000
  20634641.888   -12773964.05549  -9943275.08947  20634641.375    20634650.927
       244.000         210.000
  23258191.692    -9368338.74549  -7288727.17245  23258190.410    23258208.856
       219.000         162.000
  24369553.393    10546396.33749   8209254.48645  24369552.650    24369565.861
       206.000         137.000
  24794737.827    -4039956.19749  -2832047.82445  24794737.231    24794759.131
       208.000         137.000
  22678997.946     7098781.85749   5531222.54446  22678998.996    22679012.881
       230.000         182.000
 00  4 17 19 19  0.0000000  0  8G30G24G 4G 5G10G 7G 6G 9
  23039368.004   -12949891.67449 -10076707.93946  23039366.918    23039381.603
       224.000         169.000
  20170264.111    -7066677.90549  -5492241.22748  20170263.817    20170273.485
       244.000         215.000
  21696334.183     7047935.34449   5483923.19147  21696334.150    21696343.032
       236.000         193.000
  20626219.219   -12818225.31449  -9977764.35347  20626218.856    20626228.272
       243.000         210.000
  23239735.889    -9465323.47449  -7364299.29045  23239733.627    23239751.784
       219.000         162.000
  24382423.028    10614026.56549   8261953.20245  24382422.800    24382437.534
       214.000         141.000
  24781173.647    -4111235.77949  -2887590.12845  24781172.881    24781194.444
       209.000         137.000
  22694200.559     7178671.25149   5593473.79746  22694200.512    22694216.012
       229.000         182.000
 00  4 17 19 19 30.0000000  0  8G30G24G 4G 5G10G 7G 6G 9
  23021330.637   -13044677.96849 -10150567.23246  23021330.564    23021343.092
       225.000         169.000
  20171986.933    -7057624.29249  -5485186.44248  20171986.694    20171996.191
       245.000         215.000
  21711742.886     7128908.45249   5547019.09647  21711743.483    21711752.426
       236.000         193.000
  20617878.722   -12862054.80849 -10011917.18047  20617878.210    20617887.970
       246.000         210.000
  23221302.781    -9562188.54949  -7439778.19146  23221301.038    23221319.459
       220.000         163.000
  24395301.504    10681701.78849   8314686.95445  24395301.464    24395315.861
       213.000         146.000
  24767614.229    -4182489.72749  -2943112.43745  24767613.058    24767635.239
       210.000         138.000
  22709448.371     7258798.08249   5655910.05646  22709449.245    22709463.441
       230.000         181.000
 00  4 17 19 20  0.0000000  0  8G30G24G 4G 5G10G 7G 6G 9
  23003323.635   -13139304.91049 -10224302.35646  23003323.471    23003336.255
       226.000         169.000
  20173801.323    -7048089.33349  -5477756.58748  20173801.278    20173810.734
       246.000         215.000
  21727204.246     7210158.41849   5610330.73047  21727204.739    21727213.624
       237.000         193.000
  20609619.984   -12905454.62649 -10045735.19647  20609619.587    20609629.116
       246.000         210.000
  23202892.996    -9658931.16149  -7515161.66846  23202891.053    23202909.779
       221.000         163.000
  24408187.100    10749415.07049   8367450.35145  24408185.944    24408201.374
       207.000         146.000
  24754057.419    -4253730.11749  -2998624.18545  24754056.953    24754077.668
       209.000         138.000
  22724740.039     7339155.39949   5718525.90446  22724740.879    22724755.492
       230.000         181.000
 00  4 17 19 20 30.0000000  0  8G30G24G 4G 5G10G 7G 6G 9
  22985351.209   -13233749.91449 -10297895.70646  22985351.692    22985363.121
       225.000         169.000
  20175709.163    -7038063.65549  -5469944.35748  20175709.037    20175718.523
       244.000         215.000
  21742719.015     7291688.95349   5673860.98847  21742719.538    21742727.797
       234.000         192.000
  20601442.603   -12948426.93849 -10079220.09247  20601442.208    20601451.706
       244.000         211.000
  23184507.763    -9755544.52149  -7590444.42946  23184506.160    23184524.255
       220.000         164.000
  24421077.518    10817154.64849   8420234.25545  24421077.260    24421091.377
       206.000         142.000
  24740506.001    -4324942.31549  -3054113.97645  24740504.925    24740527.687
       205.000         138.000
  22740075.633     7419743.38749   5781321.49846  22740076.283    22740091.588
       229.000         181.000
 00  4 17 19 21  0.0000000  0  8G30G24G 4G 5G10G 7G 6G 9
  22967414.390   -13328007.93449 -10371343.35346  22967414.030    22967427.471
       226.000         170.000
  20177708.739    -7027555.83649  -5461756.42848  20177708.683    20177718.135
       246.000         215.000
  21758288.544     7373507.17749   5737615.42147  21758288.930    21758297.806
       236.000         192.000
  20593346.020   -12990974.65949 -10112374.13447  20593345.474    20593355.015
       246.000         211.000
  23166149.091    -9852018.50849  -7665618.60046  23166146.840    23166165.004
       221.000         164.000
  24433973.407    10884922.60049   8473040.25845  24433974.362    24433985.748
       207.000         137.000
  24726960.147    -4396125.40349  -3109581.08545  24726959.732    24726981.158
       206.000         139.000
  22755452.431     7500547.97649   5844285.88446  22755452.848    22755468.065
       229.000         180.000
 00  4 17 19 21 30.0000000  0  8G30G24G 4G 5G10G 7G 6G 9
  22949513.069   -13422079.26549 -10444645.53646  22949512.913    22949525.525
       225.000         170.000
  20179802.567    -7016552.58549  -5453182.45548  20179802.433    20179811.937
       244.000         215.000
  21773913.658     7455617.53149   5801597.48547  21773913.873    21773922.726
       235.000         192.000
  20585327.434   -13033112.59049 -10145208.86247  20585326.985    20585336.438
       245.000         211.000
  23147817.257    -9948351.37849  -7740682.82046  23147815.581    23147833.837
       221.000         164.000
  24446875.500    10952722.81049   8525871.43345  24446875.001    24446888.890
       209.000         138.000
  24713417.254    -4467293.08049  -3165036.18945  24713417.237    24713438.119
       206.000         140.000
  22770869.519     7581564.35749   5907415.28746  22770869.975    22770884.963
       229.000         180.000
 00  4 17 19 22  0.0000000  0  8G30G24G 4G 5G10G 7G 6G 9
  22931644.320   -13515979.48649 -10517814.38446  22931644.233    22931656.364
       225.000         171.000
  20181990.820    -7005053.20649  -5444221.88748  20181990.649    20182000.157
       245.000         215.000
  21789590.912     7538001.96249   5865793.11347  21789591.280    21789600.247
       236.000         192.000
  20577384.384   -13074853.41749 -10177734.15947  20577384.013    20577393.352
       246.000         211.000
  23129515.033   -10044528.76449  -7815625.88546  23129513.791    23129530.985
       222.000         165.000
  24459787.645    11020574.97949   8578743.08645  24459788.351    24459799.722
       211.000         141.000
  24699879.012    -4538436.51049  -3220472.39645  24699878.610    24699898.227
       209.000         141.000
  22786330.061     7662809.33749   5970722.82146  22786330.272    22786345.635
       229.000         180.000
 00  4 17 19 22 30.0000000  0  8G30G24G 4G 5G10G 7G 6G 9
  22913804.187   -13609729.47349 -10590866.16246  22913804.333    22913816.925
       224.000         171.000
  20184270.495    -6993073.21049  -5434886.81248  20184270.420    20184279.761
       245.000         215.000
  21805317.483     7620645.58749   5930190.71147  21805317.583    21805326.699
       234.000         191.000
  20569517.655   -13116193.22849 -10209946.97647  20569517.190    20569526.715
       245.000         211.000
  23111244.057   -10140541.76249  -7890440.85246  23111242.640    23111260.278
       221.000         165.000
  24472711.113    11088486.82149   8631661.22445  24472710.245    24472724.731
       207.000         141.000
  24686348.308    -4609539.50449  -3275877.09345  24686346.758    24686368.971
       213.000         142.000
  22801836.211     7744293.67649   6034216.86946  22801836.167    22801851.751
       228.000         179.000
 00  4 17 19 23  0.0000000  0  8G30G24G 4G 5G10G 7G 6G 9
  22895989.504   -13703345.50249 -10663813.56246  22895988.927    22896001.796
       227.000         171.000
  20186639.424    -6980624.35149  -5425186.38648  20186639.260    20186648.765
       246.000         215.000
  21821092.132     7703541.86349   5994785.19247  21821092.272    21821101.366
       237.000         191.000
  20561725.362   -13157141.97049 -10241855.06447  20561724.954    20561734.339
       247.000         211.000
  23093004.713   -10236388.91349  -7965126.60046  23093002.817    23093020.589
       222.000         166.000
  24485647.393    11156467.49449   8684632.95845  24485647.819    24485660.435
       207.000         138.000
  24672821.999    -4680619.95749  -3331264.22545  24672821.531    24672842.829
       210.000         142.000
  22817388.203     7826019.21949   6097898.87146  22817388.621    22817403.811
       229.000         179.000
 00  4 17 19 23 30.0000000  0  8G30G24G 4G 5G10G 7G 6G 9
  22878201.553   -13796821.26949 -10736651.68046  22878201.940    22878214.402
       223.000         171.000
  20189097.427    -6967707.43449  -5415121.25248  20189097.229    20189106.664
       245.000         215.000
  21836912.611     7786678.97149   6059567.31347  21836913.010    21836921.991
       236.000         191.000
  20554005.746   -13197708.72249 -10273465.50647  20554005.328    20554014.711
       245.000         211.000
  23074795.585   -10332077.00349  -8039688.41646  23074793.333    23074811.545
       221.000         166.000
  24498594.016    11224502.85849   8737647.30745  24498593.157    24498609.062
       205.000         138.000
  24659299.182    -4751681.70249  -3386636.78145  24659297.863    24659319.626
       208.000         143.000
  22832988.471     7907998.12349   6161778.28646  22832988.681    22833004.211
       228.000         179.000
 00  4 17 19 24  0.0000000  0  8G30G24G 4G 5G10G 7G 6G 9
  22860441.041   -13890152.63449 -10809377.26446  22860441.516    22860453.121
       226.000         172.000
  20191642.293    -6954333.94249  -5404700.34048  20191642.467    20191651.679
       245.000         215.000
  21852775.283     7870037.86449   6124522.25747  21852775.598    21852785.132
       236.000         191.000
  20546359.970   -13237887.47249 -10304773.60947  20546359.631    20546369.031
       245.000         211.000
  23056616.874   -10427605.59649  -8114125.94346  23056615.507    23056633.006
       221.000         167.000
  24511548.313    11292576.72149   8790691.70045  24511548.688    24511562.317
       207.000         140.000
  24645781.016    -4822719.07849  -3441990.33145  24645780.401    24645801.722
       211.000         143.000
  22848636.897     7990230.24449   6225855.00446  22848637.817    22848652.935
       228.000         178.000
 00  4 17 19 24 30.0000000  0  8G30G24G 4G 5G10G 7G 6G 9
  22842710.737   -13983325.27249 -10881979.17346  22842710.561    22842723.037
       224.000         172.000
  20194275.248    -6940497.81649  -5393918.92648  20194275.154    20194284.652
       244.000         215.000
  21868678.863     7953611.46149   6189644.51847  21868679.079    21868688.288
       235.000         190.000
  20538789.029   -13277672.93249 -10335775.24747  20538788.553    20538798.004
       246.000         212.000
  23038468.023   -10522976.72749  -8188440.77346  23038466.641    23038483.455
       221.000         167.000
  24524506.413    11360671.27649   8843752.21245  24524506.497    24524518.924
       209.000         138.000
  24632266.784    -4893736.10949  -3497328.03345  24632266.087    24632287.942
       208.000         144.000
  22864330.795     8072701.04349   6290117.71146  22864330.993    22864345.999
       228.000         178.000
 00  4 17 19 25  0.0000000  0  8G30G24G 4G 5G10G 7G 6G 9
  22825014.335   -14076319.92549 -10954442.38046  22825014.112    22825026.507
       226.000         172.000
  20196998.652    -6926186.07749  -5382766.91348  20196998.589    20197008.158
       244.000         215.000
  21884625.026     8037408.93349   6254941.21347  21884625.099    21884634.105
       235.000         190.000
  20531296.452   -13317046.58949 -10366456.00047  20531295.990    20531305.330
       245.000         212.000
  23020348.108   -10618196.17949  -8262637.43246  23020346.766    23020364.088
       221.000         167.000
  24537466.943    11428778.65649   8896822.73045  24537466.046    24537480.387
       206.000         139.000
  24618755.085    -4964739.66049  -3552655.21545  24618754.441    24618774.937
       212.000         145.000
  22880067.441     8155396.63049   6354555.56946  22880067.639    22880083.518
       226.000         178.000
 00  4 17 19 25 30.0000000  0  8G30G24G 4G 5G10G 7G 6G 9
  22807355.191   -14169118.89649 -11026753.12246  22807355.107    22807367.540
       224.000         173.000
  20199814.796    -6911387.29749  -5371235.38348  20199814.779    20199824.253
       244.000         215.000
  21900613.825     8121430.57649   6320412.59647  21900614.350    21900623.045
       235.000         190.000
  20523890.562   -13355964.89349 -10396781.93247  20523890.246    20523899.464
       245.000         212.000
  23002258.231   -10713257.95549  -8336711.22446  23002256.149    23002274.056
       222.000         167.000
  24550429.615    11496896.96049   8949901.75845  24550429.132    24550443.792
       206.000         140.000
  24605247.157    -5035723.57249  -3607967.11445  24605246.902    24605267.623
       210.000         145.000
  22895846.198     8238313.60649   6419165.92746  22895846.585    22895862.411
       227.000         177.000
 00  4 17 19 26  0.0000000  0  8G30G24G 4G 5G10G 7G 6G 9
  22789736.015   -14261707.68849 -11098900.07046  22789735.944    22789748.873
       226.000         173.000
  20202725.710    -6896090.45949  -5359315.74848  20202725.644    20202735.004
       246.000         215.000
  21916646.716     8205683.89949   6386064.50847  21916646.591    21916656.135
       235.000         189.000
  20516578.382   -13394390.51249 -10426723.95147  20516577.979    20516587.394
       247.000         212.000
  22984203.030   -10808137.30649  -8410642.86246  22984201.508    22984218.918
       223.000         168.000
  24563397.422    11565042.81349   9003002.17245  24563396.594    24563413.748
       202.000         138.000
  24591743.240    -5106686.05049  -3663262.28245  24591742.511    24591762.747
       212.000         145.000
  22911665.387     8321443.04749   6483941.85346  22911666.693    22911681.562
       227.000         177.000
 00  4 17 19 26 30.0000000  0  8G30G24G 4G 5G10G 7G 6G 9
  22772160.070   -14354069.03449 -11170869.78346  22772159.712    22772172.955
       227.000         174.000
  20205732.332    -6880290.51749  -5347004.08448  20205732.083    20205741.527
       245.000         215.000
  21932728.909     8290196.20649   6451918.22747  21932729.108    21932738.140
       236.000         189.000
  20509363.079   -13432307.10849 -10456269.32847  20509362.664    20509372.028
       246.000         212.000
  22966184.818   -10902822.47649  -8484423.18946  22966183.292    22966200.620
       222.000         168.000
  24576374.384    11633237.09449   9056140.33445  24576374.940    24576387.734
       204.000         136.000
  24578243.413    -5177627.47149  -3718541.06945  24578242.467    24578263.763
       209.000         145.000
  22927524.641     8404782.92849   6548881.74946  22927525.414    22927540.958
       227.000         177.000
 00  4 17 19 27  0.0000000  0  8G30G24G 4G 5G10G 7G 6G 9
  22754627.802   -14446201.35849 -11242661.05246  22754627.699    22754640.336
       226.000         174.000
  20208832.721    -6863997.69249  -5334308.35548  20208832.446    20208841.910
       245.000         215.000
  21948864.482     8374988.98349   6517990.50147  21948864.777    21948873.547
       234.000         189.000
  20502244.066   -13469717.69449 -10485420.41547  20502243.642    20502252.944
       245.000         212.000
  22948205.088   -10997305.20449  -8558045.78446  22948203.209    22948220.154
       222.000         168.000
  24589362.677    11701489.80949   9109324.08045  24589361.050    24589376.944
       205.000         134.000
  24564745.021    -5248560.90049  -3773813.61945  24564744.281    24564764.928
       212.000         146.000
  22943423.856     8488332.85349   6613985.30846  22943424.548    22943440.461
       226.000         176.000
 00  4 17 19 27 30.0000000  0  8G30G24G 4G 5G10G 7G 6G 9
  22737138.560   -14538107.27749 -11314275.89846  22737138.616    22737150.796
       226.000         175.000
  20212025.692    -6847218.39349  -5321233.55948  20212025.716    20212034.892
       245.000         215.000
  21965051.684     8460053.15449   6584274.23847  21965051.891    21965061.344
       234.000         188.000
  20495215.631   -13506652.23949 -10514200.56647  20495215.248    20495224.757
       245.000         212.000
  22930266.629   -11091570.95649  -8631499.30046  22930265.458    22930282.762
       222.000         168.000
  24602363.021    11769806.28849   9162557.53044  24602363.498    24602377.482
       204.000         131.000
  24551250.496    -5319473.92949  -3829070.26945  24551249.124    24551270.189
       213.000         146.000
  22959364.728     8572101.61049   6679259.38646  22959365.982    22959381.371
       226.000         176.000
 00  4 17 19 28  0.0000000  0  8G30G24G 4G 5G10G 7G 6G 9
  22719688.691   -14629806.29349 -11385729.53946  22719688.087    22719701.190
       225.000         175.000
  20215308.336    -6829967.97149  -5307791.65148  20215308.353    20215317.591
       244.000         215.000
  21981290.023     8545386.27149   6650767.54847  21981290.149    21981299.406
       235.000         188.000
  20488269.149   -13543156.35249 -10542645.30847  20488268.697    20488278.062
       245.000         212.000
  22912368.836   -11185623.17449  -8704786.42646  22912367.548    22912384.490
       221.000         168.000
  24615374.601    11838181.59449   9215836.79545  24615374.731    24615388.685
       208.000         134.000
  24537762.187    -5390354.63449  -3884301.73345  24537761.581    24537782.997
       209.000         146.000
  22975346.411     8656084.63749   6744700.41346  22975346.838    22975363.149
       226.000         176.000
 00  4 17 19 28 30.0000000  0  8G30G24G 4G 5G10G 7G 6G 9
  22702272.056   -14721330.81549 -11457047.19846  22702272.963    22702284.374
       229.000         176.000
  20218675.601    -6812272.93449  -5294003.29148  20218675.382    20218684.815
       246.000         215.000
  21997577.647     8630978.20849   6717462.53347  21997577.964    21997587.186
       236.000         188.000
  20481398.910   -13579259.51849 -10570777.62448  20481398.353    20481408.215
       248.000         213.000
  22894506.964   -11279486.71649  -8777926.53946  22894505.224    22894522.063
       224.000         169.000
  24628394.163    11906598.77549   9269148.68445  24628393.908    24628409.807
       207.000         136.000
  24524279.072    -5461208.23449  -3939512.09645  24524278.535    24524297.526
       213.000         146.000
  22991369.399     8740285.21849   6810310.97446  22991370.206    22991385.985
       228.000         176.000
 00  4 17 19 29  0.0000000  0  7G30G24G 4G 5G10G 6G 9
  22684888.944   -14812679.14249 -11528227.56346  22684888.029    22684900.906
       228.000         176.000
  20222129.878    -6794120.34749  -5279858.39648  20222129.471    20222138.969
       246.000         215.000
  22013912.622     8716818.87249   6784351.33747  22013912.815    22013921.772
       235.000         188.000
  20474606.640   -13614953.19949 -10598590.85548  20474606.165    20474615.505
       247.000         213.000
  22876682.336   -11373154.42949  -8850914.05846  22876680.314    22876697.667
       223.000         169.000
  24510807.920    -5531998.40949  -3994673.02645  24510806.702    24510827.857
       213.000         147.000
  23007437.283     8824721.37049   6876105.10146  23007438.092    23007454.603
       229.000         175.000
 00  4 17 19 29 30.0000000  0  7G30G24G 4G 5G10G 6G 9
  22667532.806   -14903885.62649 -11599297.40146  22667532.923    22667544.944
       226.000         176.000
  20225662.780    -6775554.48549  -5265391.47848  20225662.645    20225672.067
       244.000         215.000
  22030284.046     8802851.07649   6851389.37846  22030284.481    22030293.565
       234.000         187.000
  20467886.510   -13650267.69849 -10626108.63548  20467886.257    20467895.785
       245.000         213.000
  22858886.998   -11466668.53249  -8923781.89146  22858886.192    22858903.058
       223.000         169.000
  24497342.343    -5602759.32749  -4049811.15645  24497342.183    24497361.970
       212.000         147.000
  23023541.538     8909348.58649   6942048.09446  23023542.493    23023558.256
       226.000         175.000
 00  4 17 19 30  0.0000000  0  7G30G24G 4G 5G10G 6G 9
  22650203.703   -14994950.20349 -11670256.64346  22650203.390    22650215.917
       229.000         177.000
  20229273.876    -6756578.03349  -5250604.61248  20229273.735    20229283.153
       245.000         215.000
  22046692.676     8889078.88249   6918579.84646  22046692.812    22046701.926
       235.000         187.000
  20461242.952   -13685179.80849 -10653312.85348  20461242.527    20461251.913
       247.000         213.000
  22841120.573   -11560030.51249  -8996531.17646  22841118.303    22841135.271
       222.000         170.000
  24483879.007    -5673508.72849  -4104940.31945  24483878.234    24483898.280
       213.000         147.000
  23039678.960     8994150.32549   7008127.08546  23039679.602    23039695.820
       228.000         175.000
 00  4 17 19 30 30.0000000  0  7G30G24G 4G 5G10G 6G 9
  22632907.188   -15085843.42549 -11741082.38146  22632906.985    22632919.302
       228.000         178.000
  20232966.570    -6737172.89249  -5235483.70948  20232966.369    20232975.763
       245.000         215.000
  22063138.325     8975501.29549   6985921.94346  22063138.527    22063147.044
       233.000         186.000
  20454680.376   -13719666.36349 -10680185.47748  20454679.890    20454689.322
       246.000         213.000
  22823387.600   -11653216.66749  -9069143.46146  22823385.879    22823402.558
       222.000         169.000
  24470417.619    -5744247.82249  -4160061.44245  24470417.013    24470437.143
       211.000         148.000
  23055847.984     9079118.02849   7074335.38146  23055849.208    23055865.279
       226.000         174.000
 00  4 17 19 31  0.0000000  0  7G30G24G 4G 5G10G 6G 9
  22615649.098   -15176534.63749 -11811750.71246  22615648.832    22615661.672
       229.000         178.000
  20236745.392    -6717314.96349  -5220009.98648  20236745.313    20236754.861
       246.000         215.000
  22079620.899     9062117.70149   7053415.21346  22079621.296    22079629.967
       233.000         186.000
  20448200.577   -13753717.72149 -10706718.98348  20448200.086    20448209.520
       247.000         213.000
  22805692.266   -11746204.95249  -9141601.55046  22805690.509    22805707.266
       224.000         170.000
  24456959.287    -5814971.00749  -4215170.17445  24456958.670    24456977.997
       211.000         148.000
  23072045.282     9164234.06449   7140659.27846  23072046.485    23072062.461
       226.000         174.000
 00  4 17 19 31 30.0000000  0  7G30G24G 4G 5G10G 6G 9
  22598431.589   -15267012.74949 -11882252.99046  22598431.631    22598443.044
       228.000         178.000
  20240613.137    -6696989.75649  -5204172.15448  20240613.175    20240622.518
       245.000         215.000
  22096143.177     9148942.60949   7121070.94646  22096144.537    22096152.487
       232.000         186.000
  20441806.831   -13787317.13549 -10732900.32848  20441806.322    20441815.692
       246.000         213.000
  22788037.650   -11838979.21349  -9213892.88046  22788036.181    22788052.305
       223.000         170.000
  24443502.354    -5885686.41449  -4270272.81845  24443500.477    24443521.706
       213.000         147.000
  23088271.538     9249502.42849   7207101.85546  23088271.912    23088288.501
       226.000         174.000
 00  4 17 19 32  0.0000000  0  7G30G24G 4G 5G10G 6G 9
  22581256.124   -15357269.85149 -11952583.05946  22581256.611    22581267.767
       230.000         179.000
  20244572.494    -6676182.93149  -5187959.02848  20244572.354    20244581.708
       245.000         215.000
  22112705.280     9235977.02649   7188889.93246  22112705.672    22112714.557
       233.000         185.000
  20435502.079   -13820448.68849 -10758717.10048  20435501.836    20435511.120
       247.000         213.000
  22770425.401   -11931530.76449  -9286010.66146  22770423.674    22770440.801
       225.000         170.000
  24430049.469    -5956380.66449  -4325359.00045  24430048.759    24430069.250
       213.000         148.000
  23104529.479     9334937.44749   7273674.29846  23104530.316    23104546.388
       226.000         174.000
 00  4 17 19 32 30.0000000  0  7G30G24G 4G 5G10G 6G 9
  22564126.645   -15447285.32649 -12022724.83846  22564126.560    22564138.063
       228.000         179.000
  20248623.533    -6654894.28149  -5171370.45848  20248623.330    20248632.817
       244.000         214.000
  22129308.136     9323225.44349   7256875.66746  22129308.239    22129317.339
       232.000         185.000
  20429286.941   -13853109.33349 -10784166.93448  20429286.539    20429295.954
       246.000         213.000
  22752856.836   -12023853.00049  -9357949.75846  22752854.786    22752871.519
       223.000         171.000
  24416603.329    -6027039.48149  -4380417.56145  24416603.607    24416622.631
       210.000         148.000
  23120821.298     9420550.41849   7340385.40446  23120822.148    23120838.242
       224.000         173.000
 00  4 17 19 33  0.0000000  0  7G30G24G 4G 5G10G 6G 9
  22547042.884   -15537060.37149 -12092679.27746  22547042.857    22547054.776
       229.000         180.000
  20252763.068    -6633140.86349  -5154419.72948  20252763.074    20252772.451
       246.000         214.000
  22145952.574     9410692.66349   7325031.90246  22145952.896    22145962.016
       233.000         185.000
  20423163.109   -13885290.26649 -10809242.96448  20423162.559    20423171.958
       247.000         213.000
  22735330.716   -12115952.38249  -9429715.21246  22735328.769    22735345.634
       226.000         171.000
  24403162.251    -6097671.90149  -4435455.55445  24403161.333    24403181.507
       210.000         148.000
  23137150.142     9506357.96649   7407248.13246  23137150.374    23137167.249
       226.000         173.000
 00  4 17 19 33 30.0000000  0  7G30G24G 4G 5G10G 6G 9
  22530004.276   -15626598.45349 -12162449.07546  22530004.812    22530015.752
       230.000         180.000
  20256986.427    -6610947.11349  -5137125.88948  20256986.460    20256995.883
       244.000         214.000
  22162638.871     9498379.48349   7393359.24746  22162639.494    22162648.037
       231.000         184.000
  20417132.409   -13916981.69549 -10833937.57448  20417132.054    20417141.505
       246.000         213.000
  22717846.219   -12207832.86149  -9501310.09446  22717844.364    22717861.246
       223.000         171.000
  24389724.818    -6168284.76349  -4490478.27545  24389724.485    24389744.348
       210.000         149.000
  23153517.083     9592366.01749   7474267.07746  23153517.034    23153534.035
       224.000         173.000
 00  4 17 19 34  0.0000000  0  7G30G24G 4G 5G10G 6G 9
  22513012.572   -15715889.92649 -12232026.69646  22513012.486    22513024.370
       231.000         180.000
  20261291.914    -6588321.64949  -5119495.64948  20261291.720    20261301.095
       244.000         214.000
  22179365.489     9586278.27149   7461851.77046  22179365.125    22179374.544
       232.000         184.000
  20411191.421   -13948201.70749 -10858264.84248  20411191.066    20411200.312
       247.000         214.000
  22700403.409   -12299494.31349  -9572734.30146  22700402.109    22700418.086
       224.000         172.000
  24376289.743    -6238885.14849  -4545491.28045  24376289.946    24376309.275
       209.000         148.000
  23169920.364     9678564.78449   7541434.65046  23169920.838    23169937.913
       224.000         173.000
 00  4 17 19 34 30.0000000  0  7G30G24G 4G 5G10G 6G 9
  22496064.831   -15804950.31349 -12301424.25946  22496064.589    22496076.693
       231.000         181.000
  20265677.041    -6565277.45649  -5101539.12148  20265676.874    20265686.444
       246.000         214.000
  22196132.828     9674391.03849   7530511.02946  22196133.267    22196142.264
       231.000         184.000
  20405336.484   -13978969.45149 -10882239.68948  20405335.760    20405345.377
       246.000         214.000
  22683002.340   -12390936.30049  -9643987.49446  22683000.715    22683017.136
       224.000         173.000
  24362853.358    -6309492.84949  -4600509.98245  24362851.659    24362871.912
       210.000         148.000
  23186356.784     9764937.48049   7608737.73946  23186357.109    23186374.071
       224.000         172.000
 00  4 17 19 35  0.0000000  0  7G30G24G 4G 5G10G 6G 9
  22479157.598   -15893798.05349 -12370656.14546  22479157.433    22479169.299
       231.000         181.000
  20270142.946    -6541809.12149  -5083252.10048  20270142.672    20270152.137
       246.000         214.000
  22212938.142     9762703.35849   7599325.78046  22212938.013    22212947.666
       231.000         183.000
  20399567.415   -14009286.16449 -10905863.09048  20399566.974    20399576.268
       247.000         214.000
  22665641.970   -12482164.55749  -9715074.15446  22665640.004    22665655.737
       225.000         173.000
  24349415.882    -6380106.42249  -4655533.24645  24349414.661    24349434.571
       209.000         149.000
  23202824.612     9851474.92549   7676169.20646  23202825.098    23202842.377
       224.000         172.000
 00  4 17 19 35 30.0000000  0  7G30G24G 4G 5G10G 6G 9
  22462291.054   -15982431.96749 -12439721.40546  22462290.870    22462302.684
       231.000         181.000
  20274694.015    -6517893.14549  -5064616.27448  20274694.001    20274703.311
       247.000         214.000
  22229781.281     9851214.30749   7668295.29046  22229781.253    22229791.103
       231.000         183.000
  20393882.930   -14039158.30349 -10929140.07348  20393882.549    20393891.892
       247.000         214.000
  22648322.969   -12573175.40149  -9785991.41546  22648321.144    22648337.474
       225.000         173.000
  24335979.586    -6450713.08649  -4710551.13845  24335979.042    24335998.404
       211.000         149.000
  23219322.319     9938169.37949   7743723.00946  23219322.258    23219340.191
       224.000         172.000
 00  4 17 19 36  0.0000000  0  7G30G24G 4G 5G10G 6G 9
  22445466.341   -16070845.86849 -12508615.21646  22445466.367    22445478.618
       230.000         182.000
  20279333.716    -6493511.25249  -5045617.38848  20279333.530    20279342.790
       245.000         214.000
  22246661.213     9939918.75049   7737415.59046  22246661.577    22246670.051
       231.000         182.000
  20388281.697   -14068593.16649 -10952076.31748  20388281.347    20388290.587
       246.000         214.000
  22631047.819   -12663955.81549  -9856729.11246  22631046.772    22631062.425
       225.000         174.000
  24322547.330    -6521299.57749  -4765553.30045  24322545.822    24322566.878
       209.000         149.000
  23235848.432    10025013.66949   7811393.57746  23235849.366    23235866.362
       223.000         172.000
 00  4 17 19 36 30.0000000  0  7G30G24G 4G 5G10G 6G 9
  22428682.633   -16159044.35549 -12577341.17446  22428682.067    22428694.384
       232.000         182.000
  20284062.309    -6468662.10749  -5026254.41048  20284062.126    20284071.551
       247.000         214.000
  22263578.082    10028817.32449   7806687.15646  22263578.086    22263587.259
       230.000         182.000
  20382768.845   -14097563.28249 -10974650.42148  20382768.313    20382777.679
       247.000         214.000
  22613818.478   -12754495.38049  -9927279.13846  22613816.860    22613833.000
       226.000         174.000
  24309120.229    -6591858.14249  -4820533.70445  24309119.677    24309138.786
       210.000         150.000
  23252401.140    10111997.38749   7879172.78146  23252401.657    23252418.826
       224.000         172.000
 00  4 17 19 37  0.0000000  0  7G30G24G 4G 5G10G 6G 9
  22411944.642   -16247002.44349 -12645879.81446  22411944.324    22411956.460
       232.000         182.000
  20288881.261    -6443338.43949  -5006521.67248  20288881.080    20288890.268
       247.000         214.000
  22280530.930    10117904.88749   7876106.00346  22280531.109    22280540.450
       232.000         182.000
  20377348.504   -14126047.49349 -10996845.89648  20377347.976    20377357.230
       247.000         214.000
  22596636.708   -12844785.04549  -9997634.44346  22596635.425    22596651.068
       226.000         174.000
  24295703.120    -6662364.43049  -4875473.37345  24295701.686    24295721.247
       212.000         150.000
  23268981.288    10199125.42449   7947064.44846  23268982.009    23268999.404
       226.000         172.000
 00  4 17 19 37 30.0000000  0  7G30G24G 4G 5G10G 6G 9
  22395254.702   -16334708.13049 -12714221.78946  22395254.698    22395266.344
       231.000         182.000
  20293789.853    -6417543.78949  -4986421.94948  20293789.732    20293799.134
       246.000         214.000
  22297520.206    10207183.67949   7945673.83546  22297520.078    22297529.312
       230.000         182.000
  20372020.821   -14154044.54749 -11018661.77848  20372020.214    20372029.540
       246.000         214.000
  22579507.346   -12934799.53449 -10067775.33046  22579505.614    22579521.068
       226.000         175.000
  24282295.794    -6732819.74149  -4930373.32545  24282295.507    24282313.819
       209.000         150.000
  23285588.747    10286397.00349   8015067.93746  23285589.402    23285606.598
       225.000         172.000
 00  4 17 19 38  0.0000000  0  7G30G24G 4G 5G10G 6G 9
  22378612.471   -16422163.20049 -12782368.46646  22378612.469    22378623.884
       233.000         183.000
  20298783.824    -6391300.19549  -4965972.38848  20298783.794    20298793.063
       246.000         214.000
  22314544.009    10296644.23649   8015383.31746  22314545.322    22314553.351
       230.000         181.000
  20366787.903   -14181543.59449 -11040089.59748  20366787.486    20366796.638
       246.000         214.000
  22562431.874   -13024530.59549 -10137695.34946  22562430.245    22562446.362
       226.000         176.000
  24268898.462    -6803221.80049  -4985231.79345  24268897.872    24268916.217
       212.000         150.000
  23302223.162    10373809.86449   8083181.54146  23302223.896    23302241.609
       224.000         171.000
 00  4 17 19 38 30.0000000  0  7G30G24G 4G 5G10G 6G 9
  22362017.568   -16509369.64949 -12850321.42046  22362017.757    22362028.785
       231.000         183.000
  20303859.387    -6364627.88449  -4945188.76348  20303859.281    20303868.534
       247.000         214.000
  22331603.534    10386292.26949   8085238.88446  22331603.633    22331613.179
       229.000         181.000
  20361650.793   -14208539.16349 -11061125.09648  20361650.393    20361659.778
       247.000         215.000
  22545409.164   -13113984.22149 -10207399.19846  22545407.789    22545423.097
       227.000         176.000
  24255509.911    -6873578.07949  -5040054.59645  24255509.230    24255528.155
       212.000         150.000
  23318885.210    10461368.47149   8151408.69646  23318886.271    23318903.283
       227.000         171.000
 00  4 17 19 39  0.0000000  0  7G30G24G 4G 5G10G 6G 9
  22345470.981   -16596322.03349 -12918076.39146  22345470.713    22345482.461
       232.000         183.000
  20309013.382    -6337543.47249  -4924084.01548  20309013.163    20309022.517
       246.000         214.000
  22348696.363    10476115.61149   8155231.05446  22348696.659    22348705.481
       230.000         181.000
  20356603.198   -14235064.42749 -11081794.12048  20356602.517    20356611.925
       247.000         215.000
  22528438.732   -13203163.37149 -10276889.15646  22528438.067    22528452.464
       226.000         177.000
  24242130.755    -6943884.73349  -5094838.72545  24242130.422    24242149.122
       213.000         151.000
  23335576.917    10549082.70749   8219757.11846  23335577.756    23335595.327
       225.000         170.000
 00  4 17 19 39 30.0000000  0  7G30G24G 4G 5G10G 6G 9
  22328969.869   -16683035.56549 -12985645.27546  22328970.106    22328981.210
       232.000         183.000
  20314242.113    -6310066.27249  -4902673.20848  20314242.113    20314251.479
       247.000         214.000
  22365818.778    10566094.11449   8225344.12246  22365818.826    22365828.644
       230.000         181.000
  20351641.176   -14261140.09249 -11102112.81648  20351640.712    20351650.096
       247.000         215.000
  22511519.757   -13292072.08949 -10346168.40646  22511518.440    22511533.795
       226.000         177.000
  24228756.525    -7014165.46349  -5149602.68345  24228755.691    24228775.389
       210.000         151.000
  23352294.482    10636932.56949   8288211.20546  23352295.442    23352312.566
       225.000         171.000
 00  4 17 19 40  0.0000000  0  7G30G24G 4G 5G10G 6G 9
  22312514.598   -16769508.10749 -13053026.34446  22312514.288    22312525.986
       231.000         183.000
  20319542.717    -6282211.60849  -4880968.26748  20319542.563    20319552.097
       246.000         214.000
  22382970.216    10656225.57049   8295576.37646  22382970.762    22382979.465
       228.000         180.000
  20346765.382   -14286762.54949 -11122078.35448  20346764.918    20346774.296
       246.000         215.000
  22494647.847   -13380733.26049 -10415254.75846  22494646.510    22494661.643
       226.000         177.000
  24215384.206    -7084436.68149  -5204359.22345  24215383.389    24215402.617
       211.000         151.000
  23369035.603    10724906.57749   8356762.03546  23369036.603    23369053.509
       228.000         170.000
 00  4 17 19 40 30.0000000  0  7G30G24G 4G 5G10G 6G 9
  22296104.437   -16855743.53849 -13120222.65846  22296104.608    22296116.011
       231.000         183.000
  20324916.561    -6253971.88749  -4858963.27848  20324916.403    20324925.643
       246.000         214.000
  22400149.211    10746501.64249   8365921.32746  22400149.169    22400158.441
       230.000         180.000
  20341974.271   -14311940.03449 -11141697.16048  20341973.845    20341983.124
       246.000         215.000
  22477823.493   -13469144.84449 -10484146.61546  22477822.098    22477836.544
       227.000         178.000
  24202010.832    -7154713.50149  -5259120.14345  24202010.787    24202028.936
       211.000         151.000
  23385799.291    10812998.93549   8425405.08046  23385800.487    23385817.701
       224.000         170.000
 00  4 17 19 41  0.0000000  0  7G30G24G 4G 5G10G 6G 9
  22279739.381   -16941741.93549 -13187234.27446  22279739.207    22279750.405
       231.000         183.000
  20330368.528    -6225321.52649  -4836638.32748  20330368.219    20330377.534
       246.000         214.000
  22417354.690    10836916.74049   8436374.61546  22417355.128    22417363.799
       228.000         180.000
  20337267.297   -14336675.29949 -11160971.38948  20337266.953    20337276.220
       247.000         215.000
  22461049.252   -13557292.86149 -10552833.10446  22461047.660    22461063.281
       226.000         178.000
  24188634.912    -7225002.95549  -5313890.90245  24188633.837    24188653.200
       210.000         151.000
  23402585.640    10901210.25049   8494140.81646  23402587.036    23402604.320
       224.000         170.000
 00  4 17 19 41 30.0000000  0  7G30G24G 4G 5G10G 6G 9
  22263420.350   -17027498.62549 -13254057.55546  22263420.455    22263432.356
       232.000         184.000
  20335903.876    -6196232.98949  -4813971.93148  20335903.917    20335913.247
       246.000         214.000
  22434589.181    10927484.49749   8506946.84146  22434589.807    22434598.524
       229.000         179.000
  20332652.625   -14360925.60549 -11179867.72248  20332652.338    20332661.376
       247.000         215.000
  22444326.211   -13645172.06749 -10621310.12446  22444325.147    22444339.996
       227.000         178.000
  24175253.434    -7295322.39649  -5368685.04945  24175252.631    24175272.374
       208.000         152.000
  23419392.697    10989530.52149   8562961.46146  23419393.881    23419411.702
       224.000         170.000
 00  4 17 19 42  0.0000000  0  7G30G24G 4G 5G10G 6G 9
  22247150.924   -17112994.55249 -13320677.62846  22247151.048    22247162.433
       233.000         184.000
  20341526.775    -6166684.58749  -4790947.19548  20341526.554    20341535.815
       246.000         214.000
  22451859.354    11018239.62349   8577665.08046  22451859.381    22451868.808
       229.000         179.000
  20328134.097   -14384670.61649 -11198370.31448  20328133.506    20328142.811
       247.000         215.000
  22427657.217   -13732767.19349 -10689565.78346  22427655.847    22427670.777
       227.000         179.000
  24161868.343    -7365660.36049  -5423493.61445  24161867.707    24161886.767
       212.000         152.000
  23436225.005    11077983.50549   8631885.50646  23436225.369    23436243.878
       223.000         170.000
 00  4 17 19 42 30.0000000  0  7G30G24G 4G 5G10G 6G 9
  22230932.593   -17198221.86149 -13387088.39646  22230932.696    22230943.833
       233.000         184.000
  20347240.433    -6136658.95849  -4767550.60048  20347240.419    20347249.606
       248.000         214.000
  22469165.830    11109185.55749   8648532.00346  22469165.351    22469174.690
       229.000         179.000
  20323711.452   -14407911.60449 -11216480.16548  20323710.968    20323720.238
       248.000         215.000
  22411044.502   -13820066.38949 -10757590.84146  22411042.848    22411058.090
       228.000         179.000
  24148482.887    -7436000.79249  -5478304.10745  24148481.884    24148500.917
       213.000         153.000
  23453085.130    11166582.96249   8700923.68246  23453086.026    23453104.381
       224.000         169.000
 00  4 17 19 43  0.0000000  0  7G30G24G 4G 5G10G 6G 9
  22214769.892   -17283156.98049 -13453271.49046  22214769.535    22214781.294
       233.000         184.000
  20353043.947    -6106161.41049  -4743786.27148  20353043.771    20353053.027
       247.000         214.000
  22486509.301    11200326.29049   8719550.71646  22486509.903    22486518.518
       228.000         178.000
  20319387.564   -14430633.85449 -11234185.79948  20319386.791    20319396.164
       247.000         215.000
  22394487.172   -13907074.70349 -10825389.23746  22394485.970    22394500.587
       228.000         179.000
  24135096.876    -7506343.82249  -5533116.62345  24135096.121    24135115.184
       214.000         153.000
  23469971.426    11255319.41149   8770068.58746  23469971.627    23469990.685
       224.000         169.000
 00  4 17 19 43 30.0000000  0  7G30G24G 4G 5G10G 6G 9
  22198666.868   -17367778.36749 -13519210.11946  22198666.513    22198678.097
       233.000         184.000
  20358932.538    -6075216.57749  -4719673.41448  20358932.414    20358941.530
       247.000         214.000
  22503890.811    11291666.73349   8790725.04546  22503891.270    22503900.020
       229.000         178.000
  20315166.411   -14452815.95049 -11251470.54248  20315165.893    20315175.225
       247.000         215.000
  22377984.847   -13993794.03649 -10892962.46946  22377983.175    22377998.285
       228.000         179.000
  24121714.206    -7576669.56349  -5587915.66245  24121713.415    24121732.535
       211.000         153.000
  23486884.249    11344195.80549   8839322.54146  23486884.598    23486903.056
       224.000         168.000
 00  4 17 19 44  0.0000000  0  7G30G24G 4G 5G10G 6G 9
  22182623.975   -17452083.88649 -13584902.62546  22182624.019    22182635.351
       233.000         185.000
  20364899.040    -6043862.43349  -4695241.61748  20364898.854    20364908.272
       248.000         214.000
  22521307.750    11383193.14249   8862044.28046  22521307.893    22521317.578
       229.000         178.000
  20311043.055   -14474484.26249 -11268354.93648  20311042.728    20311051.878
       248.000         215.000
  22361537.665   -14080223.46349 -10960309.80946  22361536.291    22361550.675
       229.000         180.000
  24108338.291    -7646959.60649  -5642686.87445  24108337.365    24108355.822
       212.000         154.000
  23503825.589    11433221.61649   8908692.91146  23503825.900    23503845.252
       225.000         168.000
 00  4 17 19 44 30.0000000  0  7G30G24G 4G 5G10G 6G 9
  22166639.133   -17536084.31749 -13650357.39446  22166639.355    22166650.753
       232.000         185.000
  20370937.497    -6012130.15349  -4670515.16848  20370937.244    20370946.529
       246.000         214.000
  22538753.585    11474871.38149   8933481.81446  22538753.925    22538763.334
       227.000         177.000
  20307015.030   -14495651.66949 -11284849.01648  20307014.656    20307023.844
       247.000         215.000
  22345143.479   -14166374.41149 -11027440.14346  22345142.470    22345156.647
       227.000         180.000
  24094968.410    -7717217.60249  -5697433.13045  24094967.701    24094986.264
       212.000         154.000
  23520791.395    11522376.21049   8978163.63946  23520792.444    23520810.209
       223.000         167.000
 00  4 17 19 45  0.0000000  0  7G30G24G 4G 5G10G 6G 9
  22150710.388   -17619790.03649 -13715582.51646  22150710.362    22150721.184
       233.000         185.000
  20377043.129    -5980044.78449  -4645513.58848  20377043.177    20377052.329
       247.000         214.000
  22556225.603    11566687.13649   9005026.51346  22556226.309    22556235.796
       228.000         177.000
  20303081.818   -14516320.85549 -11300954.86848  20303081.379    20303090.672
       247.000         215.000
  22328804.877   -14252233.25049 -11094342.86846  22328804.201    22328818.570
       229.000         180.000
  24081603.401    -7787450.67349  -5752159.94745  24081602.923    24081621.068
       211.000         154.000
  23537777.596    11611637.65149   9047717.60546  23537778.655    23537796.784
       221.000         166.000
 00  4 17 19 45 30.0000000  0  7G30G24G 4G 5G10G 6G 9
  22134833.002   -17703225.78349 -13780597.27046  22134832.904    22134844.428
       232.000         186.000
  20383212.193    -5947626.27749  -4620252.41848  20383212.276    20383221.413
       247.000         214.000
  22573720.388    11658622.61549   9076664.50746  22573720.608    22573729.727
       228.000         176.000
  20299238.589   -14536517.29749 -11316692.34948  20299238.100    20299247.417
       247.000         215.000
  22312521.104   -14337803.95549 -11161021.07346  22312519.714    22312533.927
       227.000         180.000
  24068244.568    -7857650.60349  -5806860.95445  24068243.752    24068262.657
       212.000         155.000
  23554783.657    11701003.46349   9117352.90546  23554784.352    23554803.075
       222.000         166.000
 00  4 17 19 46  0.0000000  0  7G30G24G 4G 5G10G 6G 9
  22118998.691   -17786435.37249 -13845435.79946  22118998.436    22119010.277
       233.000         186.000
  20389442.469    -5914886.02749  -4594740.53948  20389442.383    20389451.452
       246.000         214.000
  22591230.575    11750639.06949   9148365.58246  22591230.886    22591240.007
       226.000         176.000
  20295478.187   -14556278.32949 -11332090.55248  20295477.983    20295486.932
       247.000         216.000
  22296287.934   -14423108.76649 -11227492.09546  22296286.702    22296300.525
       228.000         181.000
  24054884.430    -7927857.47849  -5861567.35145  24054883.591    24054901.879
       214.000         155.000
  23571801.142    11790429.51149   9187035.13446  23571802.161    23571820.160
       220.000         165.000
 00  4 17 19 46 30.0000000  0  7G30G24G 4G 5G10G 6G 9
  22103217.975   -17869363.10649 -13910054.70146  22103217.721    22103229.312
       233.000         186.000
  20395751.210    -5881733.48049  -4568907.38648  20395750.975    20395760.467
       247.000         214.000
  22608768.043    11842798.82649   9220178.32846  22608768.565    22608777.691
       228.000         175.000
  20291813.101   -14575538.59449 -11347098.54848  20291812.660    20291821.870
       248.000         216.000
  22280118.106   -14508080.87849 -11293703.87246  22280116.706    22280131.450
       228.000         181.000
  24041533.451    -7998016.94249  -5916236.82345  24041532.304    24041550.353
       213.000         155.000
  23588837.628    11879955.05349   9256794.87946  23588839.516    23588857.556
       222.000         165.000
 00  4 17 19 47  0.0000000  0  7G30G24G 4G 5G10G 6G 9
  22087486.519   -17952032.07249 -13974471.95546  22087486.561    22087497.613
       232.000         187.000
  20402138.864    -5848166.28649  -4542751.13348  20402138.653    20402148.068
       247.000         214.000
  22626329.314    11935083.48949   9292088.40846  22626330.377    22626338.996
       227.000         175.000
  20288238.830   -14594321.64649 -11361734.69348  20288238.445    20288247.715
       247.000         216.000
  22264008.139   -14592738.46349 -11359670.57246  22264007.209    22264020.867
       229.000         181.000
  24028187.131    -8068151.54349  -5970886.89945  24028186.383    24028204.359
       212.000         155.000
  23605888.016    11969553.99549   9326611.81946  23605889.403    23605907.764
       219.000         164.000
 00  4 17 19 47 30.0000000  0  7G30G24G 4G 5G10G 6G 9
  22071805.461   -18034436.22849 -14038682.86646  22071805.467    22071816.372
       233.000         187.000
  20408607.530    -5814173.22249  -4516263.02848  20408607.305    20408616.833
       247.000         214.000
  22643913.880    12027490.64549   9364093.93546  22643913.625    22643923.340
       226.000         175.000
  20284755.272   -14612627.86249 -11375999.27148  20284754.766    20284763.971
       247.000         216.000
  22247954.560   -14677099.59549 -11425406.26846  22247953.622    22247967.791
       229.000         182.000
  24014844.810    -8138264.91949  -6025520.44645  24014844.149    24014862.744
       213.000         155.000
  23622952.562    12059226.91749   9396486.40446  23622953.410    23622972.178
       219.000         164.000
 00  4 17 19 48  0.0000000  0  7G30G24G 4G 5G10G 6G 9
  22056178.157   -18116557.94849 -14102673.70546  22056178.126    22056189.322
       234.000         187.000
  20415158.521    -5779747.62649  -4489437.89448  20415158.520    20415167.650
       247.000         214.000
  22661525.632    12120040.81049   9436210.89146  22661525.712    22661534.706
       226.000         174.000
  20281365.041   -14630443.59249 -11389881.66048  20281364.683    20281373.770
       247.000         216.000
  22231961.136   -14761144.56649 -11490895.61346  22231959.755    22231973.763
       229.000         182.000
  24001505.720    -8208361.53149  -6080140.94645  24001505.004    24001523.712
       212.000         155.000
  23640030.287    12148969.23849   9466415.04946  23640031.447    23640050.623
       219.000         163.000
 00  4 17 19 48 30.0000000  0  7G30G24G 4G 5G10G 6G 9
  22040607.855   -18198380.06149 -14166431.07647  22040607.625    22040618.935
       234.000         188.000
  20421790.145    -5744898.31249  -4462282.58348  20421789.929    20421799.152
       247.000         214.000
  22679164.797    12212735.16949   9508440.20546  22679165.321    22679173.901
       226.000         174.000
  20278067.603   -14647771.80449 -11403384.16248  20278067.056    20278076.305
       247.000         216.000
  22216028.229   -14844871.53449 -11556137.16746  22216026.985    22216040.591
       229.000         182.000
  23988172.285    -8278428.12449  -6134738.05345  23988171.764    23988189.614
       213.000         156.000
  23657120.887    12238779.08049   9536396.31745  23657122.555    23657141.085
       220.000         162.000
 00  4 17 19 49  0.0000000  0  7G30G24G 4G 5G10G 6G 9
  22025095.989   -18279894.89249 -14229949.01647  22025096.183    22025106.622
       234.000         188.000
  20428499.336    -5709641.16649  -4434809.48048  20428499.164    20428508.472
       248.000         214.000
  22696829.513    12305563.52549   9580773.92046  22696830.081    22696839.186
       226.000         173.000
  20274865.818   -14664597.21349 -11416494.87048  20274865.333    20274874.506
       248.000         216.000
  22200155.844   -14928280.38449 -11621130.82646  22200154.773    22200167.751
       230.000         183.000
  23974843.133    -8348472.36349  -6189317.73345  23974842.392    23974859.695
       215.000         156.000
  23674224.504    12328657.66949   9606431.14645  23674225.115    23674244.543
       218.000         162.000
 00  4 17 19 49 30.0000000  0  7G30G24G 4G 5G10G 6G 9
  22009645.400   -18361087.74249 -14293216.06047  22009645.509    22009656.331
       235.000         189.000
  20435282.286    -5673996.36649  -4407034.30948  20435282.119    20435291.393
       247.000         214.000
  22714519.796    12398526.40149   9653212.48046  22714520.235    22714528.893
       226.000         173.000
  20271761.570   -14680910.19749 -11429206.28848  20271761.132    20271770.249
       248.000         216.000
  22184345.037   -15011365.96449 -11685872.59446  22184343.838    22184357.566
       230.000         183.000
  23961518.306    -8418493.57949  -6243879.47645  23961517.846    23961534.983
       214.000         156.000
  23691341.856    12418608.15449   9676521.99145  23691343.204    23691363.735
       220.000         161.000
 00  4 17 19 50  0.0000000  0  7G30G24G 4G 5G10G 6G 9
  21994254.142   -18441968.96749 -14356240.28847  21994254.285    21994265.121
       235.000         189.000
  20442137.522    -5637971.86049  -4378963.26348  20442137.563    20442146.916
       247.000         214.000
  22732234.182    12491616.04249   9725749.80246  22732235.181    22732244.512
       226.000         173.000
  20268755.255   -14696708.55249 -11441516.69948  20268755.053    20268764.116
       248.000         216.000
  22168596.924   -15094121.85149 -11750357.47046  22168595.261    22168609.178
       230.000         183.000
  23948197.358    -8488494.77849  -6298425.62445  23948196.119    23948213.476
       213.000         156.000
  23708470.858    12508620.02949   9746660.65945  23708471.367    23708491.761
       217.000         161.000
 00  4 17 19 50 30.0000000  0  7G30G24G 4G 5G10G 6G 9
  21978921.762   -18522540.58449 -14419023.26147  21978922.299    21978932.724
       237.000         190.000
  20449068.456    -5601549.65049  -4350582.31448  20449068.225    20449077.524
       248.000         214.000
  22749971.782    12584827.50649   9798382.05546  22749971.922    22749982.214
       226.000         172.000
  20265848.455   -14711983.91749 -11453419.58048  20265847.875    20265857.278
       248.000         216.000
  22152912.283   -15176544.19749 -11814582.43946  22152910.779    22152924.845
       231.000         184.000
  23934881.464    -8558469.27449  -6352950.96445  23934881.197    23934898.708
       216.000         156.000
  23725614.270    12598707.50849   9816858.24845  23725615.448    23725635.153
       220.000         160.000
 00  4 17 19 51  0.0000000  0  7G30G24G 4G 5G10G 6G 9
  21963646.874   -18602810.30049 -14481570.99847  21963646.854    21963657.755
       235.000         190.000
  20456073.765    -5564736.47649  -4321896.72448  20456073.685    20456082.950
       247.000         214.000
  22767733.748    12678167.02349   9871114.09046  22767733.546    22767743.547
       225.000         171.000
  20263043.631   -14726723.34149 -11464904.84848  20263043.257    20263052.395
       248.000         216.000
  22137294.057   -15258617.67749 -11878535.57046  22137292.581    22137306.212
       231.000         184.000
  23921569.757    -8628421.81149  -6407459.19745  23921568.403    23921586.691
       215.000         156.000
  23742773.908    12688880.60349   9887122.54745  23742774.519    23742793.597
       220.000         160.000
 00  4 17 19 51 30.0000000  0  7G30G24G 4G 5G10G 6G 9
  21948428.857   -18682781.01749 -14543885.74647  21948428.819    21948439.694
       237.000         191.000
  20463152.127    -5527539.40249  -4292911.98748  20463151.935    20463161.298
       248.000         214.000
  22785522.433    12771647.11849   9943955.65646  22785522.721    22785533.494
       226.000         171.000
  20260339.454   -14740933.78549 -11475977.92248  20260338.979    20260348.128
       248.000         216.000
  22121742.118   -15340342.74849 -11942217.21146  22121740.548    22121754.326
       231.000         184.000
  23908265.277    -8698336.24549  -6461937.70645  23908263.733    23908282.482
       215.000         156.000
  23759949.879    12779139.08049   9957453.35245  23759950.199    23759971.060
       219.000         160.000
 00  4 17 19 52  0.0000000  0  7G30G24G 4G 5G10G 6G 9
  21933264.898   -18762467.54949 -14605979.05247  21933264.777    21933275.531
       236.000         191.000
  20470305.627    -5489947.70049  -4263619.75048  20470305.342    20470314.482
       246.000         213.000
  22803336.111    12865258.51249  10016899.52846  22803336.389    22803346.492
       225.000         170.000
  20257734.467   -14754623.15649 -11486644.96848  20257734.142    20257743.425
       247.000         216.000
  22106256.949   -15421717.01749 -12005625.49446  22106255.848    22106269.189
       230.000         185.000
  23894965.630    -8768225.43249  -6516396.57245  23894965.240    23894981.740
       214.000         156.000
  23777139.434    12869468.71649  10027839.63045  23777141.048    23777160.386
       217.000         160.000
 00  4 17 19 52 30.0000000  0  7G30G24G 4G 5G10G 6G 9
  21918156.844   -18841860.60649 -14667843.68147  21918156.826    21918167.838
       236.000         192.000
  20477532.988    -5451967.57449  -4234024.84248  20477532.919    20477542.015
       246.000         213.000
  22821175.692    12959005.81949  10089949.33346  22821175.659    22821185.951
       225.000         170.000
  20255227.228   -14767798.85549 -11496911.74648  20255226.948    20255236.118
       247.000         216.000
  22090839.525   -15502734.96649 -12068756.12846  22090838.241    22090851.620
       231.000         185.000
  23881669.133    -8838097.84749  -6570842.34745  23881668.275    23881686.516
       215.000         156.000
  23794343.992    12959877.34949  10098287.46545  23794344.818    23794365.374
       219.000         160.000
 00  4 17 19 53  0.0000000  0  7G30G24G 4G 5G10G 6G 9
  21903107.567   -18920944.88449 -14729467.69247  21903107.154    21903118.097
       236.000         192.000
  20484831.005    -5413616.12849  -4204140.59248  20484830.707    20484840.065
       246.000         213.000
  22839039.424    13052879.79549  10163097.81646  22839039.032    22839049.413
       223.000         170.000
  20252816.396   -14780467.98349 -11506783.79148  20252815.837    20252825.055
       247.000         216.000
  22075487.327   -15583410.38849 -12131619.85746  22075486.349    22075499.355
       231.000         185.000
  23868373.800    -8907964.27949  -6625283.46545  23868373.469    23868389.923
       215.000         156.000
  23811561.413    13050353.77349  10168788.11145  23811562.228    23811582.618
       218.000         159.000
 00  4 17 19 53 30.0000000  0  7G30G24G 4G 5G10G 6G 9
  21888118.999   -18999710.03849 -14790843.04947  21888119.210    21888129.425
       237.000         192.000
  20492201.630    -5374883.33949  -4173959.19848  20492201.224    20492210.682
       246.000         213.000
  22856923.214    13146859.43449  10236328.63246  22856922.942    22856932.243
       221.000         169.000
  20250500.810   -14792636.49549 -11516265.75048  20250500.450    20250509.743
       247.000         216.000
  22060199.437   -15663747.88549 -12194220.26846  22060198.253    22060211.823
       230.000         186.000
  23855078.476    -8977830.37449  -6679724.32345  23855077.673    23855095.232
       216.000         157.000
  23828790.767    13140892.62849  10239337.40745  23828791.391    23828812.140
       218.000         159.000
 00  4 17 19 54  0.0000000  0  7G30G24G 4G 5G10G 6G 9
  21873194.297   -19078139.57249 -14851956.88147  21873194.103    21873205.331
       236.000         193.000
  20499645.824    -5335763.80249  -4143476.44348  20499645.551    20499655.126
       244.000         213.000
  22874825.176    13240934.49949  10309633.80746  22874826.157    22874834.822
       223.000         168.000
  20248280.691   -14804303.28949 -11525356.76148  20248280.217    20248289.653
       247.000         216.000
  22044979.488   -15743728.37749 -12256542.50346  22044977.999    22044991.344
       230.000         186.000
  23841781.645    -9047704.82649  -6734171.69345  23841781.008    23841798.223
       213.000         157.000
  23846032.639    13231497.54649  10309938.17445  23846033.175    23846053.655
       217.000         159.000
 00  4 17 19 54 30.0000000  0  7G30G24G 4G 5G10G 6G 9
  21858334.944   -19156225.73749 -14912803.16147  21858334.800    21858345.589
       237.000         193.000
  20507158.245    -5296285.67949  -4112714.27448  20507158.260    20507167.540
       245.000         213.000
  22892745.558    13335106.73049  10383014.70446  22892746.551    22892754.132
       225.000         168.000
  20246156.733   -14815464.71949 -11534053.97948  20246156.248    20246165.507
       247.000         216.000
  22029827.369   -15823352.34249 -12318586.92146  22029826.039    22029839.383
       231.000         187.000
  23828485.661    -9117574.71949  -6788615.50345  23828485.423    23828502.057
       215.000         157.000
  23863287.127    13322168.78249  10380590.61445  23863287.790    23863308.410
       219.000         159.000
 00  4 17 19 55  0.0000000  0  7G30G24G 4G 5G10G 6G 9
  21843538.992   -19233978.59849 -14973389.71547  21843539.262    21843549.578
       238.000         193.000
  20514738.271    -5256452.49149  -4081675.42748  20514738.212    20514747.476
       246.000         213.000
  22910681.892    13429362.38149  10456460.61646  22910683.044    22910691.050
       226.000         168.000
  20244130.249   -14826114.08449 -11542352.19048  20244129.831    20244138.996
       248.000         217.000
  22014743.611   -15902617.04149 -12380351.38946  22014742.281    22014755.872
       232.000         187.000
  23815192.739    -9187428.48049  -6843046.73845  23815192.206    23815209.534
       215.000         157.000
  23880548.944    13412878.54149  10451273.07645  23880549.630    23880570.473
       217.000         158.000
 00  4 17 19 55 30.0000000  0  7G30G24G 4G 5G10G 6G 9
  21828804.353   -19311409.40849 -15033725.32747  21828804.253    21828815.020
       237.000         194.000
  20522386.167    -5216262.52549  -4050358.57448  20522385.888    20522395.240
       244.000         213.000
  22928635.350    13523707.98649  10529976.61146  22928636.745    22928644.986
       225.000         168.000
  20242203.081   -14836241.56749 -11550243.73748  20242202.555    20242211.938
       247.000         217.000
  21999733.767   -15981493.31349 -12441813.19146  21999732.212    21999745.855
       231.000         187.000
  23801904.912    -9257255.42749  -6897457.09445  23801904.684    23801920.908
       216.000         157.000
  23897815.723    13503614.04149  10521975.59345  23897816.836    23897838.325
       217.000         158.000
 00  4 17 19 56  0.0000000  0  7G30G24G 4G 5G10G 6G 9
  21814130.923   -19388518.39849 -15093810.16847  21814130.881    21814141.496
       237.000         194.000
  20530098.696    -5175732.85549  -4018777.01848  20530098.529    20530107.956
       245.000         213.000
  22946610.508    13618168.01949  10603581.77146  22946609.903    22946620.761
       222.000         168.000
  20240374.734   -14845849.57049 -11557730.50048  20240374.390    20240383.520
       248.000         217.000
  21984796.752   -16059987.01549 -12502976.89446  21984795.413    21984808.964
       232.000         187.000
  23788622.828    -9327052.42749  -6951844.12045  23788622.259    23788639.151
       214.000         157.000
  23915085.301    13594364.47849  10592689.74845  23915085.781    23915107.788
       217.000         157.000
 00  4 17 19 56 30.0000000  0  7G30G24G 4G 5G10G 6G 9
  21799516.690   -19465316.31349 -15153652.61347  21799516.629    21799527.413
       237.000         194.000
  20537875.530    -5134865.43549  -3986932.27448  20537875.385    20537884.595
       245.000         213.000
  22964606.555    13712737.51049  10677272.22246  22964605.604    22964617.678
       222.000         168.000
  20238644.734   -14854940.85149 -11564814.61148  20238643.988    20238653.259
       247.000         216.000
  21969929.209   -16138115.68949 -12563856.15346  21969927.775    21969940.851
       233.000         187.000
  23775347.167    -9396815.54449  -7006204.73345  23775346.610    23775363.211
       217.000         158.000
  23932355.383    13685117.61349  10663406.00045  23932356.554    23932377.745
       217.000         158.000
 00  4 17 19 57  0.0000000  0  7G30G24G 4G 5G10G 6G 9
  21784962.883   -19541796.89649 -15213247.78947  21784962.814    21784973.950
       238.000         194.000
  20545718.783    -5093648.87549  -3954815.48448  20545718.435    20545727.718
       245.000         213.000
  22982622.487    13807411.76749  10751044.31146  22982621.602    22982633.420
       220.000         167.000
  20237012.513   -14863517.92949 -11571498.05648  20237012.068    20237021.144
       247.000         217.000
  21955131.521   -16215877.16649 -12624449.29547  21955130.350    21955143.611
       232.000         188.000
  23762077.975    -9466544.75049  -7060538.94645  23762077.196    23762093.800
       216.000         158.000
  23949626.244    13775874.69049  10734125.31545  23949627.418    23949648.799
       216.000         158.000
 00  4 17 19 57 30.0000000  0  7G30G24G 4G 5G10G 6G 9
  21770473.893   -19617936.55149 -15272577.30347  21770473.665    21770484.529
       238.000         195.000
  20553626.511    -5052093.51449  -3922434.68748  20553626.091    20553635.451
       245.000         213.000
  23000656.266    13902179.64249  10824889.35846  23000656.127    23000667.631
       222.000         166.000
  20235474.893   -14871598.32749 -11577794.46848  20235474.313    20235483.716
       247.000         217.000
  21940400.615   -16293287.72249 -12684768.99847  21940399.238    21940412.144
       233.000         188.000
  23748814.213    -9536245.32549  -7114850.84245  23748812.999    23748830.105
       217.000         158.000
  23966901.616    13866655.48449  10804863.12145  23966902.479    23966923.594
       216.000         157.000
 00  4 17 19 58  0.0000000  0  7G30G24G 4G 5G10G 6G 9
  21756052.779   -19693719.67649 -15331628.99647  21756052.778    21756063.377
       239.000         195.000
  20561598.243    -5010201.84549  -3889791.84047  20561597.872    20561607.228
       245.000         212.000
  23018703.638    13997019.06649  10898790.13646  23018703.993    23018712.455
       224.000         166.000
  20234029.121   -14879195.99149 -11583714.73148  20234028.474    20234037.658
       249.000         217.000
  21925732.654   -16370367.65749 -12744831.07647  21925730.872    21925744.260
       234.000         188.000
  23735553.448    -9605930.17849  -7169150.48945  23735552.039    23735569.668
       218.000         158.000
  23984183.674    13957471.22749  10875628.15645  23984184.225    23984206.093
       218.000         157.000
 00  4 17 19 58 30.0000000  0  7G30G24G 4G 5G10G 6G 9
  21741700.082   -19769143.28749 -15390400.54947  21741700.124    21741711.068
       238.000         195.000
  20569635.747    -4967964.46449  -3856879.60647  20569635.787    20569644.822
       244.000         212.000
  23036759.613    14091903.47549  10972725.98346  23036760.583    23036768.022
       224.000         167.000
  20232675.065   -14886311.55549 -11589259.33548  20232674.641    20232683.778
       247.000         217.000
  21911128.867   -16447110.14449 -12804630.21647  21911127.832    21911140.758
       233.000         189.000
  23722295.279    -9675601.18049  -7223439.35945  23722295.337    23722311.171
       217.000         158.000
  24001473.158    14048326.24849  10946423.76945  24001475.055    24001496.578
       215.000         157.000
 00  4 17 19 59  0.0000000  0  7G30G24G 4G 5G10G 6G 9
  21727417.611   -19844197.70249 -15448884.41847  21727417.832    21727428.305
       238.000         195.000
  20577738.951    -4925381.72649  -3823698.25647  20577738.788    20577748.020
       244.000         212.000
  23054822.567    14186824.79449  11046690.58746  23054822.898    23054831.819
       223.000         167.000
  20231413.876   -14892939.20849 -11594423.74348  20231413.414    20231422.622
       247.000         217.000
  21896592.660   -16523497.66349 -12864152.76147  21896591.435    21896604.395
       233.000         189.000
  23709038.478    -9745265.43549  -7277722.97145  23709037.285    23709054.237
       216.000         159.000
  24018769.327    14139216.35549  11017246.74045  24018769.662    24018792.039
       217.000         157.000
 00  4 17 19 59 30.0000000  0  7G30G24G 4G 5G10G 6G 9
  21713205.166   -19918884.14449 -15507081.55147  21713205.391    21713215.913
       238.000         195.000
  20585909.588    -4882444.72749  -3790240.85547  20585909.631    20585918.909
       244.000         212.000
  23072892.692    14281783.71049  11120684.50246  23072892.169    23072903.108
       223.000         166.000
  20230248.245   -14899064.47649 -11599196.68048  20230247.791    20230257.048
       247.000         217.000
  21882124.509   -16599527.39949 -12923396.50747  21882123.151    21882135.946
       234.000         189.000
  23695778.856    -9814944.26949  -7332017.94745  23695777.555    23695794.099
       217.000         159.000
  24036070.102    14230130.41849  11088088.38745  24036071.584    24036092.666
       216.000         157.000
 00  4 17 20  0  0.0000000  0  7G30G24G 4G 5G10G 6G 9
  21699059.521   -19993219.68549 -15565005.25447  21699059.803    21699070.095
       238.000         195.000
  20594152.066    -4839130.27949  -3756489.33347  20594152.095    20594161.292
       244.000         212.000
  23090975.170    14376807.39549  11194728.89146  23090975.290    23090985.970
       222.000         166.000
  20229185.833   -14904647.61649 -11603547.17848  20229185.416    20229194.594
       247.000         217.000
  21867730.620   -16675166.90949 -12982336.19047  21867729.426    21867742.152
       233.000         190.000
  23682517.218    -9884633.56249  -7386321.06645  23682516.475    23682533.194
       218.000         159.000
  24053375.153    14321067.62849  11158948.03745  24053376.054    24053398.546
       216.000         157.000
 00  4 17 20  0 30.0000000  0  7G30G24G 4G 5G10G 6G 9
  21684983.176   -20067190.98549 -15622645.13347  21684983.408    21684993.894
       239.000         196.000
  20602470.657    -4795415.73249  -3722426.05147  20602470.347    20602479.787
       245.000         212.000
  23109079.047    14471943.64049  11268860.97746  23109079.067    23109088.750
       222.000         166.000
  20228235.339   -14909642.34449 -11607439.17848  20228234.864    20228243.914
       248.000         217.000
  21853420.295   -16750367.52949 -13040933.87447  21853419.013    21853431.629
       235.000         190.000
  23669262.386    -9954286.91449  -7440596.19545  23669261.601    23669278.439
       215.000         159.000
  24070688.227    14412045.92449  11229839.71845  24070689.728    24070711.775
       217.000         157.000
 00  4 17 20  1  0.0000000  0  7G30G24G 4G 5G10G 6G 9
  21670973.744   -20140810.96649 -15680011.25647  21670973.477    21670984.308
       238.000         196.000
  20610862.667    -4751315.43549  -3688062.18047  20610862.617    20610872.093
       244.000         212.000
  23127205.855    14567200.71049  11343087.22446  23127205.689    23127216.085
       221.000         165.000
  20227397.414   -14914045.81649 -11610870.45848  20227396.915    20227406.117
       248.000         217.000
  21839193.150   -16825130.53449 -13099190.56547  21839191.282    21839204.988
       234.000         190.000
  23656011.987   -10023917.65449  -7494853.71245  23656011.194    23656027.414
       217.000         160.000
  24088005.726    14503048.25449  11300750.12245  24088006.790    24088029.035
       216.000         156.000
 00  4 17 20  1 30.0000000  0  7G30G24G 4G 5G10G 6G 9
  21657031.591   -20214077.05449 -15737101.62147  21657031.689    21657042.026
       237.000         196.000
  20619328.053    -4706829.70249  -3653397.96947  20619328.036    20619337.382
       244.000         212.000
  23145358.009    14662590.69649  11417417.01746  23145357.672    23145367.459
       220.000         165.000
  20226671.264   -14917861.69049 -11613843.87148  20226671.057    20226680.100
       247.000         217.000
  21825048.382   -16899461.23949 -13157110.40847  21825046.924    21825059.965
       234.000         190.000
  23642767.657   -10093516.43649  -7549086.30745  23642767.323    23642783.688
       219.000         160.000
  24105329.818    14594084.80749  11371687.18445  24105330.837    24105352.918
       216.000         158.000
 00  4 17 20  2  0.0000000  0  7G30G24G 4G 5G10G 6G 9
  21643155.993   -20286993.54849 -15793919.57647  21643156.245    21643166.538
       238.000         196.000
  20627862.532    -4661980.71749  -3618450.70047  20627862.408    20627871.558
       245.000         212.000
  23163534.360    14758107.67949  11491845.78546  23163534.868    23163543.196
       221.000         165.000
  20226052.091   -14921115.55649 -11616379.35148  20226051.626    20226060.909
       248.000         217.000
  21810985.822   -16973359.63149 -13214693.37347  21810984.530    21810997.346
       234.000         190.000
  23629531.622   -10163071.51949  -7603284.87145  23629530.167    23629547.226
       217.000         160.000
  24122659.108    14685148.86149  11442645.68045  24122660.550    24122682.289
       216.000         156.000
 00  4 17 20  2 30.0000000  0  7G30G24G 4G 5G10G 6G 9
  21629349.675   -20359545.99649 -15850453.86047  21629349.873    21629360.214
       238.000         196.000
  20636462.271    -4616788.78549  -3583236.19947  20636462.105    20636471.230
       244.000         212.000
  23181731.307    14853732.93149  11566358.90946  23181730.892    23181741.376
       221.000         165.000
  20225533.608   -14923840.38949 -11618502.60048  20225533.165    20225542.413
       247.000         217.000
  21797002.415   -17046842.33649 -13271952.42347  21797000.770    21797013.755
       235.000         191.000
  23616301.997   -10232592.93349  -7657457.19745  23616301.015    23616317.586
       218.000         161.000
  24139989.396    14776218.28449  11513608.35945  24139990.742    24140013.556
       215.000         156.000
 00  4 17 20  3  0.0000000  0  7G30G24G 4G 5G10G 6G 9
  21615613.541   -20431729.37549 -15906700.55847  21615613.532    21615624.112
       239.000         196.000
  20645127.028    -4571255.14549  -3547755.43247  20645126.736    20645136.028
       245.000         211.000
  23199944.209    14949442.03249  11640937.38446  23199945.022    23199954.504
       222.000         165.000
  20225113.096   -14926050.24549 -11620224.56848  20225112.496    20225121.698
       249.000         217.000
  21783094.944   -17119925.93949 -13328900.48547  21783093.908    21783106.382
       235.000         191.000
  23603073.175   -10302110.15749  -7711626.25945  23603071.594    23603088.344
       220.000         161.000
  24157318.541    14867281.34049  11584566.07345  24157319.166    24157342.361
       216.000         156.000
 00  4 17 20  3 30.0000000  0  7G30G24G 4G 5G10G 6G 9
  21601949.552   -20503533.94449 -15962652.09547  21601949.891    21601960.154
       238.000         197.000
  20653854.655    -4525391.19449  -3512017.28447  20653854.594    20653863.764
       245.000         212.000
  23218169.992    15045218.87649  11715568.64746  23218169.646    23218181.247
       221.000         165.000
  20224788.074   -14927758.35849 -11621555.57348  20224787.491    20224796.867
       248.000         217.000
  21769264.179   -17192606.21749 -13385534.28547  21769262.653    21769275.425
       234.000         191.000
  23589845.608   -10371620.74749  -7765790.16845  23589845.440    23589860.126
       219.000         161.000
  24174646.501    14958338.27349  11655519.00545  24174648.429    24174670.410
       215.000         155.000
 00  4 17 20  4  0.0000000  0  7G30G24G 4G 5G10G 6G 9
  21588357.706   -20574959.14849 -16018308.01147  21588357.841    21588368.269
       238.000         197.000
  20662641.556    -4479215.87349  -3476036.50647  20662641.391    20662650.467
       244.000         211.000
  23236405.564    15141047.33749  11790240.11546  23236404.792    23236414.444
       221.000         164.000
  20224559.051   -14928961.68249 -11622493.23248  20224558.599    20224567.911
       247.000         217.000
  21755511.498   -17264876.03549 -13441848.24747  21755510.394    21755523.084
       234.000         191.000
  23576617.686   -10441133.19149  -7819955.49745  23576616.768    23576632.904
       220.000         162.000
  24191971.947    15049382.04449  11726461.69145  24191973.615    24191996.139
       213.000         155.000
 00  4 17 20  4 30.0000000  0  7G30G24G 4G 5G10G 6G 9
  21574839.099   -20645999.41449 -16073663.98347  21574839.449    21574849.527
       238.000         197.000
  20671487.029    -4432732.48049  -3439815.67347  20671486.797    20671496.025
       244.000         211.000
  23254647.443    15236909.02849  11864937.46646  23254646.084    23254656.735
       221.000         164.000
  20224428.758   -14929646.38249 -11623026.76648  20224428.310    20224437.406
       247.000         217.000
  21741836.231   -17336739.08449 -13497845.24347  21741834.941    21741847.364
       234.000         192.000
  23563389.751   -10510645.48549  -7874120.71545  23563388.725    23563405.021
       218.000         162.000
  24209296.087    15140419.18349  11797399.19545  24209296.942    24209320.929
       214.000         156.000
 00  4 17 20  5  0.0000000  0  7G30G24G 4G 5G10G 6G 9
  21561394.290   -20716652.13049 -16128717.96447  21561394.297    21561404.791
       238.000         197.000
  20680391.809    -4385937.37849  -3403351.95947  20680391.623    20680400.822
       244.000         211.000
  23272897.264    15332812.64949  11939667.50946  23272897.478    23272907.624
       221.000         164.000
  20224400.533   -14929794.61249 -11623142.27948  20224400.129    20224409.190
       247.000         217.000
  21728240.416   -17408184.82349 -13553517.08147  21728239.233    21728251.829
       234.000         192.000
  23550164.201   -10580145.32149  -7928276.24645  23550163.051    23550179.569
       218.000         162.000
  24226620.338    15231456.85549  11868337.10245  24226620.959    24226645.205
       214.000         154.000
 00  4 17 20  5 30.0000000  0  7G30G24G 4G 5G10G 6G 9
  21548022.496   -20786920.97049 -16183472.82247  21548022.654    21548033.096
       239.000         198.000
  20689352.442    -4338848.76049  -3366659.52647  20689352.210    20689361.445
       245.000         211.000
  23291155.966    15428762.62949  12014433.67946  23291155.678    23291165.811
       221.000         164.000
  20224475.041   -14929403.08349 -11622837.19648  20224474.568    20224483.757
       249.000         217.000
  21714725.502   -17479205.61949 -13608857.79247  21714724.199    21714737.023
       235.000         192.000
  23536944.599   -10649614.02949  -7982407.50446  23536943.793    23536959.200
       221.000         163.000
  24243944.254    15322492.57649  11939273.51045  24243945.246    24243969.916
       214.000         153.000
 00  4 17 20  6  0.0000000  0  7G30G24G 4G 5G10G 6G 9
  21534720.925   -20856820.88549 -16237940.21547  21534720.803    21534731.385
       240.000         198.000
  20698370.017    -4291461.17049  -3329734.14047  20698369.847    20698379.080
       246.000         211.000
  23309424.947    15524766.35649  12089241.71946  23309425.271    23309434.420
       221.000         163.000
  20224653.332   -14928466.11349 -11622107.10148  20224652.854    20224662.023
       249.000         217.000
  21701290.311   -17549807.33349 -13663871.96047  21701289.510    21701301.468
       237.000         192.000
  23523732.548   -10719043.05949  -8036507.86346  23523732.089    23523748.580
       221.000         163.000
  24261265.758    15413515.60049  12010200.01845  24261265.995    24261290.536
       213.000         152.000
 00  4 17 20  6 30.0000000  0  7G30G24G 4G 5G10G 6G 9
  21521488.047   -20926359.60749 -16292126.16047  21521487.874    21521498.204
       240.000         198.000
  20707448.256    -4243754.79849  -3292560.34947  20707447.982    20707457.342
       245.000         211.000
  23327706.834    15620838.13349  12164102.78346  23327706.195    23327716.156
       220.000         163.000
  20224935.858   -14926981.46149 -11620950.23948  20224935.439    20224944.630
       248.000         217.000
  21687935.544   -17619986.66549 -13718556.99247  21687934.325    21687946.725
       236.000         193.000
  23510526.688   -10788439.37649  -8090582.72346  23510526.291    23510542.224
       219.000         164.000
  24278580.794    15504504.77149  12081100.12645  24278581.917    24278604.734
       214.000         152.000
 00  4 17 20  7  0.0000000  0  7G30G24G 4G 5G10G 6G 9
  21508324.156   -20995535.89749 -16346029.69047  21508324.257    21508334.427
       241.000         198.000
  20716588.245    -4195723.78749  -3255133.59247  20716588.144    20716597.310
       246.000         211.000
  23346004.404    15716992.09849  12239027.88346  23346004.417    23346015.084
       222.000         163.000
  20225321.098   -14924957.04349 -11619372.77948  20225320.762    20225329.873
       250.000         217.000
  21674664.983   -17689723.07449 -13772896.89447  21674663.653    21674676.276
       237.000         193.000
  23497326.978   -10857803.78749  -8144632.69446  23497326.519    23497342.233
       221.000         164.000
  24295886.824    15595446.13949  12151963.00245  24295887.407    24295912.016
       214.000         153.000
 00  4 17 20  7 30.0000000  0  7G30G24G 4G 5G10G 6G 9
  21495228.100   -21064355.92349 -16399655.62247  21495228.333    21495238.523
       239.000         199.000
  20725789.145    -4147372.97249  -3217457.64847  20725788.985    20725798.383
       245.000         211.000
  23364314.302    15813211.22449  12314003.77345  23364314.242    23364325.254
       220.000         162.000
  20225807.709   -14922400.06249 -11617380.34748  20225807.415    20225816.529
       248.000         217.000
  21661479.989   -17759010.18349 -13826886.70947  21661478.750    21661491.031
       235.000         193.000
  23484133.482   -10927135.05749  -8198656.86546  23484133.403    23484149.421
       221.000         164.000
  24313185.446    15686349.09649  12222795.93845  24313186.451    24313210.138
       212.000         151.000
 00  4 17 20  8  0.0000000  0  7G30G24G 4G 5G10G 6G 9
  21482200.889   -21132814.14449 -16452999.62047  21482200.942    21482210.963
       239.000         199.000
  20735052.545    -4098693.64649  -3179525.71747  20735052.212    20735061.638
       244.000         211.000
  23382633.597    15909479.34149  12389017.82545  23382634.109    23382643.540
       220.000         161.000
  20226394.663   -14919315.72249 -11614976.98048  20226394.289    20226403.387
       248.000         217.000
  21648379.455   -17827853.25149 -13880530.51747  21648378.330    21648390.388
       235.000         193.000
  23470943.265   -10996449.71349  -8252668.09046  23470942.894    23470958.342
       223.000         164.000
  24330475.951    15777209.23949  12293595.49545  24330476.801    24330500.606
       214.000         152.000
 00  4 17 20  8 30.0000000  0  7G30G24G 4G 5G10G 6G 9
  21469248.202   -21200880.76249 -16506038.46847  21469248.289    21469258.592
       241.000         199.000
  20744378.345    -4049686.36949  -3141338.24347  20744378.186    20744387.465
       244.000         211.000
  23400960.770    16005788.81349  12464064.10545  23400960.692    23400970.103
       219.000         161.000
  20227084.180   -14915692.52449 -11612153.72548  20227083.781    20227092.897
       248.000         217.000
  21635364.851   -17896244.92049 -13933822.59647  21635363.799    21635375.877
       235.000         194.000
  23457755.185   -11065752.67849  -8306670.20746  23457755.744    23457770.338
       219.000         164.000
  24347760.063    15868035.28249  12364368.50045  24347761.036    24347784.468
       213.000         152.000
 00  4 17 20  9  0.0000000  0  7G30G24G 4G 5G10G 6G 9
  21456373.288   -21268538.66649 -16558758.83747  21456373.132    21456383.531
       241.000         199.000
  20753762.891    -4000370.28749  -3102910.14247  20753762.529    20753771.950
       246.000         210.000
  23419293.953    16102130.18149  12539135.23145  23419294.470    23419303.996
       222.000         160.000
  20227875.333   -14911535.23949 -11608914.30048  20227874.784    20227884.028
       250.000         217.000
  21622436.786   -17964181.84849 -13986760.32647  21622435.369    21622447.757
       235.000         194.000
  23444571.304   -11135033.50949  -8360655.07746  23444570.452    23444586.359
       221.000         164.000
  24365041.778    15958849.32849  12435132.13945  24365043.262    24365066.454
       216.000         151.000
 00  4 17 20  9 30.0000000  0  7G30G24G 4G 5G10G 6G 9
  21443577.461   -21335781.13349 -16611155.49047  21443577.600    21443587.895
       241.000         200.000
  20763204.789    -3950752.80449  -3064247.18447  20763204.313    20763213.575
       246.000         210.000
  23437632.209    16198498.20249  12614227.13745  23437632.864    23437642.725
       221.000         160.000
  20228769.506   -14906836.32749 -11605252.83048  20228768.915    20228778.137
       250.000         217.000
  21609591.477   -18031683.91949 -14039359.21347  21609590.492    21609602.366
       236.000         194.000
  23431389.841   -11204301.96149  -8414630.29246  23431388.967    23431404.811
       223.000         165.000
  24382322.598    16049658.19749  12505891.75545  24382324.498    24382348.466
       215.000         152.000
 00  4 17 20 10  0.0000000  0  7G30G24G 4G 5G10G 6G 9
  21430864.631   -21402587.21849 -16663212.11647  21430864.751    21430874.814
       239.000         200.000
  20772705.392    -3900826.61649  -3025343.68347  20772705.096    20772714.333
       244.000         210.000
  23455976.129    16294895.71149  12689342.00745  23455976.685    23455985.457
       218.000         159.000
  20229769.382   -14901582.08049 -11601158.63548  20229768.782    20229778.030
       248.000         217.000
  21596828.864   -18098751.34249 -14091619.41647  21596827.967    21596840.078
       235.000         194.000
  23418209.201   -11273565.88749  -8468601.98646  23418208.681    23418223.467
       223.000         165.000
  24399600.285    16140450.92549  12576638.78445  24399600.998    24399625.883
       212.000         152.000
 00  4 17 20 10 30.0000000  0  7G30G24G 4G 5G10G 6G 9
  21418235.988   -21468951.03149 -16714924.10247  21418236.054    21418245.976
       241.000         200.000
  20782264.443    -3850593.56949  -2986201.06547  20782264.278    20782273.698
       245.000         210.000
  23474329.189    16391341.32349  12764494.38045  23474329.500    23474338.895
       217.000         158.000
  20230873.919   -14895777.72949 -11596635.78548  20230873.428    20230882.595
       249.000         217.000
  21584151.044   -18165373.28549 -14143532.49047  21584150.164    21584161.759
       237.000         195.000
  23405032.551   -11342808.77649  -8522557.29746  23405031.634    23405048.291
       222.000         165.000
  24416875.503    16231230.75749  12647375.76445  24416876.778    24416900.761
       216.000         151.000
 00  4 17 20 11  0.0000000  0  7G30G24G 4G 5G10G 6G 9
  21405688.012   -21534890.97349 -16766305.80847  21405688.300    21405698.341
       241.000         201.000
  20791880.730    -3800059.74549  -2946824.07747  20791880.780    20791889.826
       244.000         210.000
  23492691.542    16487835.87149  12839684.86245  23492691.848    23492702.050
       216.000         158.000
  20232080.007   -14889439.83149 -11591697.19148  20232079.553    20232088.742
       248.000         217.000
  21571557.036   -18231555.04849 -14195102.56147  21571555.973    21571567.944
       236.000         195.000
  23391860.922   -11412025.24649  -8576492.00946  23391860.582    23391875.210
       222.000         165.000
  24434146.105    16321985.97249  12718093.58145  24434147.851    24434171.416
       214.000         151.000
 00  4 17 20 11 30.0000000  0  7G30G24G 4G 5G10G 6G 9
  21393219.711   -21600412.17049 -16817361.21647  21393219.782    21393229.946
       240.000         201.000
  20801555.230    -3749219.99649  -2907208.70147  20801554.963    20801564.437
       244.000         210.000
  23511060.073    16584362.99649  12914900.73445  23511059.892    23511070.678
       216.000         157.000
  20233387.860   -14882566.98149 -11586341.75048  20233387.367    20233396.528
       249.000         217.000
  21559046.044   -18297300.34049 -14246332.53247  21559044.884    21559056.798
       235.000         195.000
  23378693.698   -11481218.64049  -8630408.73546  23378693.217    23378708.077
       222.000         165.000
  24451408.045    16412696.13249  12788776.28045  24451407.982    24451434.717
       213.000         150.000
 00  4 17 20 12  0.0000000  0  7G30G24G 4G 5G10G 6G 9
  21380829.902   -21665520.55249 -16868094.94447  21380829.660    21380839.990
       241.000         201.000
  20811287.610    -3698076.18049  -2867356.38547  20811287.426    20811296.951
       244.000         210.000
  23529436.110    16680929.52949  12990147.31845  23529436.180    23529446.126
       217.000         157.000
  20234797.162   -14875161.01049 -11580570.88748  20234796.602    20234805.840
       249.000         217.000
  21546619.767   -18362600.14749 -14297215.36447  21546618.666    21546630.591
       237.000         195.000
  23365534.883   -11550367.80949  -8684291.00646  23365533.858    23365549.592
       220.000         165.000
  24468659.571    16503351.48949  12859416.25345  24468661.248    24468685.329
       214.000         151.000
 00  4 17 20 12 30.0000000  0  7G30G24G 4G 5G10G 6G 9
  21368515.984   -21730230.38449 -16918518.13247  21368515.804    21368525.949
       242.000         201.000
  20821075.527    -3646640.35749  -2827276.53747  20821075.409    20821084.735
       245.000         210.000
  23547821.177    16777543.38249  13065430.77145  23547821.822    23547831.167
       217.000         157.000
  20236303.551   -14867244.95849 -11574402.56748  20236303.119    20236312.251
       249.000         217.000
  21534278.437   -18427453.79349 -14347750.53447  21534277.380    21534289.052
       237.000         196.000
  23352385.068   -11619469.81149  -8738136.52046  23352384.870    23352399.829
       222.000         166.000
  24485898.994    16593942.67549  12930006.25845  24485901.143    24485925.630
       213.000         150.000
 00  4 17 20 13  0.0000000  0  7G30G24G 4G 5G10G 6G 9
  21356277.017   -21794546.36349 -16968634.41347  21356276.927    21356287.082
       241.000         201.000
  20830916.471    -3594925.95549  -2786979.60947  20830916.487    20830925.507
       244.000         210.000
  23566210.850    16874181.28749  13140732.98145  23566210.462    23566220.895
       215.000         156.000
  20237908.290   -14858812.31849 -11567831.70548  20237907.878    20237917.000
       249.000         217.000
  21522020.408   -18491869.71849 -14397944.62647  21522019.406    21522031.069
       237.000         196.000
  23339240.181   -11688545.77649  -8791961.74846  23339239.840    23339254.599
       221.000         166.000
  24503122.566    16684451.33249  13000531.94945  24503123.591    24503149.350
       213.000         148.000
 00  4 17 20 13 30.0000000  0  7G30G24G 4G 5G10G 6G 9
  21344114.475   -21858460.74749 -17018437.77247  21344114.317    21344124.476
       242.000         202.000
  20840810.390    -3542933.22049  -2746465.80047  20840809.938    20840819.404
       245.000         210.000
  23584605.083    16970843.52349  13216054.12645  23584605.128    23584615.785
       216.000         157.000
  20239613.982   -14849848.95149 -11560847.29448  20239613.607    20239622.762
       249.000         217.000
  21509848.630   -18555832.19949 -14447785.37547  21509847.472    21509859.164
       238.000         196.000
  23326101.592   -11757589.07349  -8845761.51546  23326100.297    23326115.839
       221.000         166.000
  24520330.441    16774877.09249  13070993.02645  24520331.768    24520357.414
       213.000         149.000
 00  4 17 20 14  0.0000000  0  7G30G24G 4G 5G10G 6G 9
  21332028.786   -21921970.99249 -17067926.21147  21332028.784    21332039.099
       240.000         202.000
  20850756.897    -3490664.01649  -2705736.56247  20850756.692    20850766.029
       244.000         209.000
  23603006.070    17067541.00549  13291402.73045  23603007.018    23603015.977
       216.000         156.000
  20241421.296   -14840351.65149 -11553446.83448  20241420.786    20241430.014
       248.000         217.000
  21497764.197   -18619336.08749 -14497268.79047  21497763.168    21497774.802
       236.000         196.000
  23312969.114   -11826600.04149  -8899536.12046  23312968.788    23312983.603
       219.000         166.000
  24537522.278    16865218.39049  13141388.27645  24537522.497    24537548.992
       210.000         148.000
 00  4 17 20 14 30.0000000  0  7G30G24G 4G 5G10G 6G 9
  21320022.259   -21985065.59649 -17117090.76647  21320022.126    21320032.284
       241.000         202.000
  20860756.044    -3438118.32749  -2664791.87347  20860755.849    20860765.151
       244.000         209.000
  23621410.883    17164258.76749  13366767.15245  23621411.607    23621420.503
       216.000         155.000
  20243332.553   -14830308.22749 -11545620.81448  20243332.113    20243341.307
       248.000         217.000
  21485770.240   -18682364.18449 -14546381.43747  21485768.922    21485780.721
       237.000         197.000
  23299839.115   -11895597.92549  -8953300.50446  23299837.968    23299853.039
       221.000         167.000
  24554697.934    16955475.03249  13211717.56445  24554698.956    24554723.354
       211.000         146.000
 00  4 17 20 15  0.0000000  0  7G30G24G 4G 5G10G 6G 9
  21308097.988   -22047727.91949 -17165918.49147  21308098.181    21308107.851
       241.000         202.000
  20870809.691    -3385286.11649  -2623623.93047  20870809.659    20870818.909
       244.000         209.000
  23639819.091    17260994.12849  13442145.27445  23639819.763    23639830.060
       215.000         155.000
  20245354.220   -14819684.37049 -11537342.51748  20245353.913    20245363.011
       248.000         217.000
  21473868.399   -18744908.22649 -14595116.90447  21473867.221    21473879.133
       237.000         197.000
  23286713.731   -11964571.47449  -9007045.93646  23286713.444    23286727.811
       222.000         167.000
  24571860.353    17045661.96649  13281992.54045  24571861.864    24571886.878
       213.000         145.000
 00  4 17 20 15 30.0000000  0  7G30G24G 4G 5G10G 6G 9
  21296258.345   -22109945.34949 -17214399.54047  21296258.537    21296268.430
       242.000         202.000
  20880921.194    -3332149.93349  -2582219.11847  20880920.999    20880930.071
       244.000         209.000
  23658232.571    17357757.24349  13517545.04845  23658232.596    23658244.203
       215.000         154.000
  20247485.964   -14808482.10849 -11528613.51148  20247485.497    20247494.706
       248.000         217.000
  21462062.274   -18806949.32549 -14643460.46547  21462060.794    21462072.407
       238.000         197.000
  23273594.978   -12033510.18849  -9060764.22246  23273594.646    23273608.619
       222.000         167.000
  24589011.842    17135791.23549  13352222.58445  24589013.200    24589038.533
       212.000         146.000
 00  4 17 20 16  0.0000000  0  7G30G24G 4G 5G10G 6G 9
  21284506.102   -22171703.54849 -17262522.74347  21284505.773    21284515.768
       242.000         203.000
  20891092.242    -3278700.78449  -2540570.43647  20891091.878    20891101.103
       244.000         209.000
  23676650.971    17454546.25649  13592964.98745  23676651.155    23676660.970
       216.000         154.000
  20249727.050   -14796705.31049 -11519436.81048  20249726.356    20249735.691
       249.000         217.000
  21450352.014   -18868486.57149 -14691411.41047  21450350.391    21450362.010
       237.000         197.000
  23260479.383   -12102432.50249  -9114469.73246  23260478.726    23260493.975
       221.000         167.000
  24606155.162    17225877.93849  13422419.43345  24606156.952    24606182.821
       211.000         147.000
 00  4 17 20 16 30.0000000  0  7G30G24G 4G 5G10G 6G 9
  21272842.655   -22232995.19449 -17310282.40747  21272842.677    21272852.638
       242.000         203.000
  20901323.320    -3224936.23149  -2498675.99747  20901323.165    20901332.404
       244.000         209.000
  23695075.596    17551368.01049  13668410.42945  23695075.231    23695086.144
       217.000         154.000
  20252075.647   -14784363.47649 -11509819.83248  20252075.110    20252084.454
       249.000         217.000
  21438738.221   -18929516.72449 -14738967.22547  21438736.851    21438748.533
       238.000         198.000
  23247366.885   -12171338.38349  -9168162.42246  23247366.493    23247381.357
       221.000         167.000
  24623291.846    17315929.78749  13492589.12845  24623293.509    24623319.220
       215.000         145.000
 00  4 17 20 17  0.0000000  0  7G30G24G 4G 5G10G 6G 9
  21261268.033   -22293820.03249 -17357678.32347  21261268.080    21261278.039
       241.000         203.000
  20911614.271    -3170856.75649  -2456536.16047  20911614.081    20911623.419
       243.000         209.000
  23713507.320    17648227.28349  13743885.12345  23713507.400    23713517.308
       216.000         153.000
  20254527.000   -14771481.63949 -11499782.06848  20254526.663    20254535.804
       248.000         217.000
  21427217.792   -18990056.44849 -14786140.88747  21427216.786    21427228.193
       238.000         198.000
  23234258.041   -12240225.08749  -9221840.17446  23234257.948    23234272.444
       221.000         167.000
  24640420.889    17405940.85849  13562727.06645  24640423.200    24640448.159
       215.000         144.000
 00  4 17 20 17 30.0000000  0  7G30G24G 4G 5G10G 6G 9
  21249780.062   -22354189.32049 -17404719.26447  21249779.854    21249789.809
       242.000         203.000
  20921961.492    -3116481.90549  -2414166.15647  20921961.238    20921970.607
       245.000         208.000
  23731945.222    17745118.73349  13819384.87545  23731944.816    23731954.559
       215.000         152.000
  20257076.470   -14758084.23749 -11489342.55948  20257075.888    20257085.249
       250.000         217.000
  21415789.610   -19050111.31249 -14832936.72747  21415788.248    21415799.960
       237.000         198.000
  23221150.800   -12309103.15049  -9275511.18946  23221149.822    23221164.744
       222.000         168.000
  24657538.693    17495893.28249  13632819.27045  24657539.581    24657566.528
       214.000         144.000
 00  4 17 20 18  0.0000000  0  7G30G24G 4G 5G10G 6G 9
  21238376.775   -22414113.72749 -17451413.55647  21238376.948    21238386.704
       243.000         203.000
  20932361.658    -3061828.73749  -2371579.29347  20932361.458    20932370.865
       244.000         208.000
  23750389.178    17842042.09749  13894909.52245  23750389.218    23750400.812
       215.000         152.000
  20259723.694   -14744173.07649 -11478502.72848  20259723.325    20259732.504
       249.000         217.000
  21404450.952   -19109695.73449 -14879365.99247  21404449.648    21404461.296
       238.000         198.000
  23208044.407   -12377976.97749  -9329178.90646  23208043.196    23208058.020
       223.000         168.000
  24674642.519    17585772.21849  13702854.20845  24674643.730    24674669.875
       214.000         145.000
 00  4 17 20 18 30.0000000  0  7G30G24G 4G 5G10G 6G 9
  21227055.466   -22473607.51149 -17497772.28947  21227055.345    21227065.142
       242.000         203.000
  20942811.626    -3006913.76849  -2328788.42447  20942811.473    20942820.710
       244.000         208.000
  23768838.690    17938994.44449  13970456.73645  23768839.645    23768847.798
       215.000         151.000
  20262469.378   -14729744.49649 -11467259.70448  20262468.945    20262478.121
       249.000         217.000
  21393202.665   -19168805.37849 -14925425.30047  21393201.465    21393212.910
       238.000         198.000
  23194940.000   -12446840.15949  -9382838.32946  23194939.597    23194953.931
       222.000         168.000
  24691727.705    17675553.16049  13772812.78745  24691728.962    24691755.838
       217.000         144.000
 00  4 17 20 19  0.0000000  0  7G30G24G 4G 5G10G 6G 9
  21215814.203   -22532680.58549 -17543803.20247  21215814.177    21215824.165
       243.000         204.000
  20953308.944    -2951750.14249  -2285803.79747  20953308.736    20953317.946
       245.000         208.000
  23787290.402    18035958.82949  14046013.33245  23787290.372    23787300.023
       217.000         151.000
  20265316.275   -14714784.15649 -11455602.32348  20265315.804    20265325.033
       250.000         217.000
  21382046.366   -19227431.51749 -14971107.85247  21382045.318    21382056.108
       239.000         199.000
  23181839.462   -12515683.35249  -9436482.17846  23181838.577    23181853.026
       223.000         169.000
  24708794.045    17765234.80849  13842694.01745  24708794.108    24708822.860
       214.000         142.000
 00  4 17 20 19 30.0000000  0  7G30G24G 4G 5G10G 6G 9
  21204652.452   -22591335.86149 -17589508.55847  21204652.305    21204662.192
       242.000         204.000
  20963853.932    -2896335.90349  -2242623.88647  20963853.576    20963862.965
       244.000         208.000
  23805742.465    18132924.77949  14121571.13845  23805742.387    23805752.516
       216.000         150.000
  20268266.325   -14699281.48849 -11443522.35148  20268265.642    20268275.135
       249.000         218.000
  21370984.552   -19285561.15849 -15016403.52147  21370983.246    21370994.499
       237.000         199.000
  23168743.170   -12584503.91849  -9490108.40346  23168742.473    23168757.412
       223.000         169.000
  24725842.618    17854823.41349  13912502.72445  24725843.575    24725871.880
       213.000         142.000
 00  4 17 20 20  0.0000000  0  8G17G30G24G 4G 5G10G 6G 9
  25085152.612    -3287863.67549  -1926382.42145  25085150.771    25085179.597
       207.000         144.000
  21193569.055   -22649579.29649 -17634893.00647  21193569.217    21193578.814
       241.000         204.000
  20974446.693    -2840670.63349  -2199248.37247  20974446.653    20974455.773
       243.000         208.000
  23824191.134    18229872.96849  14197115.11145  23824190.356    23824201.833
       215.000         151.000
  20271320.545   -14683231.62149 -11431015.99848  20271320.077    20271329.494
       248.000         217.000
  21360018.980   -19343184.96849 -15061305.04347  21360017.947    21360028.949
       237.000         199.000
  23155650.573   -12653305.39649  -9543719.75846  23155650.537    23155664.378
       221.000         169.000
  24742872.539    17944314.13749  13982235.14645  24742873.255    24742901.501
       211.000         143.000
 00  4 17 20 20 30.0000000  0  8G17G30G24G 4G 5G10G 6G 9
  25067387.699    -3381216.95849  -1999124.72345  25067386.240    25067414.427
       208.000         143.000
  21182563.622   -22707412.83049 -17679958.03747  21182563.506    21182573.669
       242.000         204.000
  20985084.034    -2784770.91849  -2155690.16747  20985083.889    20985093.177
       243.000         207.000
  23842632.438    18326782.27849  14272628.80445  23842633.738    23842642.538
       215.000         150.000
  20274477.068   -14666644.11649 -11418090.69948  20274476.592    20274486.061
       248.000         218.000
  21349148.452   -19400309.04049 -15105817.15147  21349147.263    21349158.465
       237.000         199.000
  23142562.819   -12722081.12649  -9597311.04246  23142562.288    23142576.766
       223.000         170.000
  24759881.899    18033696.57149  14051883.14845  24759883.629    24759909.530
       213.000         142.000
 00  4 17 20 21  0.0000000  0  8G17G30G24G 4G 5G10G 6G 9
  25049648.140    -3474437.15049  -2071763.32945  25049646.291    25049674.619
       208.000         144.000
  21171644.446   -22764793.19049 -17724669.94747  21171644.466    21171654.178
       242.000         205.000
  20995771.398    -2728608.52149  -2111927.27547  20995771.310    20995780.666
       243.000         207.000
  23861070.258    18423673.51749  14348128.38645  23861070.255    23861079.843
       215.000         150.000
  20277739.167   -14649501.85249 -11404733.12348  20277738.694    20277748.106
       249.000         218.000
  21338375.962   -19456918.32449 -15149928.13847  21338374.791    21338385.943
       237.000         200.000
  23129486.871   -12790795.28949  -9650854.34846  23129486.540    23129499.891
       222.000         170.000
  24776875.314    18122994.94749  14121465.72045  24776875.656    24776902.288
       212.000         140.000
 00  4 17 20 21 30.0000000  0  8G17G30G24G 4G 5G10G 6G 9
  25031933.492    -3567526.42349  -2144299.89745  25031932.724    25031959.911
       205.000         143.000
  21160814.368   -22821705.49749 -17769017.14447  21160814.373    21160824.428
       243.000         205.000
  21006508.682    -2672183.85549  -2067960.02147  21006508.467    21006517.725
       243.000         207.000
  23879507.102    18520559.45549  14423623.86345  23879506.891    23879516.695
       215.000         149.000
  20281106.358   -14631807.46949 -11390945.32948  20281105.933    20281115.277
       249.000         218.000
  21327701.299   -19513013.42849 -15193638.46447  21327700.050    21327711.367
       238.000         200.000
  23116420.822   -12859457.04949  -9704356.83546  23116420.745    23116434.718
       221.000         170.000
  24793849.439    18212192.21549  14190969.48845  24793851.254    24793879.527
       212.000         139.000
 00  4 17 20 22  0.0000000  0  8G17G30G24G 4G 5G10G 6G 9
  25014242.211    -3660492.73849  -2216740.65645  25014239.842    25014268.712
       207.000         143.000
  21150074.685   -22878142.72849 -17812994.15247  21150074.818    21150084.494
       242.000         205.000
  21017293.843    -2615507.30949  -2023796.49347  21017293.500    21017302.844
       243.000         207.000
  23897945.574    18617454.12249  14499126.14645  23897945.477    23897955.348
       215.000         150.000
  20284579.893   -14613553.92549 -11376721.82048  20284579.478    20284588.724
       249.000         218.000
  21317124.292   -19568595.57149 -15236949.08147  21317123.253    21317134.108
       238.000         200.000
  23103365.497   -12928062.19249  -9757815.19646  23103364.633    23103379.415
       224.000         170.000
  24810801.454    18301273.02749  14260382.49445  24810804.577    24810831.398
       214.000         141.000
 00  4 17 20 22 30.0000000  0  8G17G30G24G 4G 5G10G 6G 9
  24996573.753    -3753339.17849  -2289088.02445  24996572.203    24996600.643
       204.000         143.000
  21139428.909   -22934086.39349 -17856586.56647  21139429.068    21139438.702
       243.000         205.000
  21028127.454    -2558576.38349  -1979434.74947  21028127.160    21028136.737
       244.000         207.000
  23916388.126    18714369.97649  14574644.92445  23916388.229    23916398.509
       218.000         149.000
  20288157.458   -14594753.76949 -11362072.38848  20288156.991    20288166.492
       250.000         218.000
  21306643.416   -19623672.35049 -15279865.91847  21306642.388    21306653.378
       239.000         200.000
  23090321.330   -12996609.01349  -9811228.13146  23090320.154    23090335.299
       222.000         171.000
  24827733.480    18390249.10049  14329713.85545  24827735.956    24827762.979
       213.000         142.000
 00  4 17 20 23  0.0000000  0  8G17G30G24G 4G 5G10G 6G 9
  24978927.769    -3846067.38649  -2361343.26045  24978925.670    24978954.083
       203.000         143.000
  21128875.013   -22989547.25549 -17899802.77147  21128875.174    21128884.819
       242.000         205.000
  21039009.850    -2501388.90149  -1934873.09647  21039009.537    21039019.030
       243.000         207.000
  23934832.457    18811295.46349  14650171.21245  23934832.690    23934841.844
       215.000         148.000
  20291837.349   -14575415.82849 -11347003.90248  20291837.034    20291846.222
       249.000         218.000
  21296259.053   -19678242.07649 -15322387.65647  21296257.877    21296269.229
       237.000         200.000
  23077283.372   -13065123.02549  -9864615.48646  23077282.660    23077297.284
       222.000         171.000
  24844645.833    18479121.85149  14398964.73845  24844646.349    24844676.198
       209.000         140.000
 00  4 17 20 23 30.0000000  0  8G17G30G24G 4G 5G10G 6G 9
  24961306.273    -3938666.85249  -2433498.20945  24961304.289    24961332.287
       202.000         143.000
  21118410.492   -23044538.35549 -17942652.92247  21118410.529    21118420.218
       242.000         206.000
  21049941.367    -2443943.35149  -1890110.34947  21049941.319    21049950.359
       242.000         206.000
  23953277.078    18908222.23349  14725698.50945  23953276.612    23953287.784
       215.000         149.000
  20295619.967   -14555538.25349 -11331514.91548  20295619.575    20295628.964
       249.000         218.000
  21285973.858   -19732290.70349 -15364503.33547  21285972.838    21285983.730
       238.000         200.000
  23064249.913   -13133613.73049  -9917984.68946  23064249.183    23064263.466
       222.000         171.000
  24861539.316    18567895.31549  14468138.25045  24861540.524    24861569.228
       214.000         140.000
 00  4 17 20 24  0.0000000  0  8G17G30G24G 4G 5G10G 6G 9
  24943710.828    -4031129.17149  -2505546.28045  24943708.750    24943737.067
       202.000         142.000
  21108034.504   -23099064.43449 -17985140.72147  21108034.622    21108044.284
       242.000         206.000
  21060923.218    -2386233.50249  -1845141.65747  21060923.286    21060932.526
       242.000         206.000
  23971718.423    19005131.83749  14801212.42945  23971718.525    23971728.982
       216.000         148.000
  20299503.649   -14535129.45849 -11315611.99848  20299503.086    20299512.599
       249.000         218.000
  21275788.102   -19785816.61349 -15406211.70747  21275787.269    21275798.087
       238.000         201.000
  23051220.958   -13202080.64649  -9971335.36046  23051220.112    23051234.286
       223.000         172.000
  24878416.324    18656582.19349  14537244.32345  24878418.719    24878446.880
       209.000         139.000
 00  4 17 20 24 30.0000000  0  8G17G30G24G 4G 5G10G 6G 9
  24926144.062    -4123441.24249  -2577477.30445  24926142.680    24926170.041
       201.000         142.000
  21097745.463   -23153133.54949 -18027272.45047  21097745.745    21097755.443
       243.000         206.000
  21071955.827    -2328256.91149  -1799965.11647  21071955.918    21071965.275
       243.000         206.000
  23990153.244    19102007.24349  14876699.67945  23990154.861    23990163.729
       217.000         148.000
  20303485.802   -14514203.21849 -11299305.87848  20303485.619    20303494.787
       249.000         218.000
  21265701.528   -19838821.43749 -15447514.04347  21265700.422    21265711.250
       239.000         201.000
  23038194.917   -13270532.44349 -10024674.24946  23038194.220    23038207.990
       222.000         172.000
  24895276.293    18745179.56449  14606280.62845  24895276.739    24895305.640
       209.000         140.000
 00  4 17 20 25  0.0000000  0  8G17G30G24G 4G 5G10G 6G 9
  24908605.744    -4215603.97849  -2649291.98345  24908603.862    24908632.147
       201.000         141.000
  21087542.016   -23206752.86449 -18069053.67547  21087542.068    21087551.858
       243.000         206.000
  21083037.874    -2270020.48549  -1754586.09547  21083037.657    21083047.010
       243.000         206.000
  24008580.457    19198842.51449  14952155.69045  24008581.575    24008591.242
       216.000         148.000
  20307567.776   -14492752.43549 -11282591.01548  20307567.264    20307576.676
       249.000         217.000
  21255714.223   -19891304.42049 -15488409.75047  21255712.806    21255723.901
       239.000         201.000
  23025171.450   -13338970.67249 -10078002.57046  23025171.296    23025184.995
       223.000         172.000
  24912115.298    18833666.50649  14675230.85545  24912116.081    24912146.667
       208.000         143.000
 00  4 17 20 25 30.0000000  0  8G17G30G24G 4G 5G10G 6G 9
  24891094.997    -4307621.57849  -2720993.54745  24891093.255    24891121.090
       203.000         141.000
  21077426.286   -23259911.31649 -18110475.79247  21077426.321    21077435.983
       243.000         206.000
  21094167.633    -2211533.31549  -1709011.70147  21094167.572    21094176.885
       242.000         206.000
  24027004.495    19295661.16249  15027598.71645  24027004.241    24027014.259
       215.000         149.000
  20311751.634   -14470766.35049 -11265459.04248  20311751.107    20311760.618
       249.000         217.000
  21245825.377   -19943270.14949 -15528902.42247  21245824.362    21245835.234
       239.000         201.000
  23012152.420   -13407385.10949 -10131312.34746  23012151.849    23012165.704
       223.000         173.000
  24928932.363    18922038.31749  14744091.39145  24928933.808    24928962.538
       207.000         143.000
 00  4 17 20 26  0.0000000  0  8G17G30G24G 4G 5G10G 6G 9
  24873611.368    -4399497.07149  -2792584.38345  24873608.969    24873637.064
       201.000         141.000
  21067399.362   -23312602.98549 -18151534.18547  21067399.433    21067409.299
       243.000         207.000
  21105342.721    -2152808.17349  -1663251.88047  21105342.635    21105352.140
       242.000         205.000
  24045427.161    19392472.49049  15103036.06445  24045427.057    24045437.097
       213.000         147.000
  20316036.791   -14448247.87449 -11247912.21748  20316036.251    20316045.680
       249.000         217.000
  21236034.220   -19994722.78749 -15568995.28347  21236033.140    21236043.899
       239.000         201.000
  22999138.547   -13475772.86249 -10184601.33946  22999138.098    22999151.931
       223.000         173.000
  24945726.032    19010287.41149  14812856.31545  24945726.053    24945756.225
       204.000         141.000
 00  4 17 20 26 30.0000000  0  8G17G30G24G 4G 5G10G 6G 9
  24856153.359    -4491237.98349  -2864070.35345  24856151.634    24856179.151
       205.000         141.000
  21057462.383   -23364821.85749 -18192224.16347  21057462.392    21057472.207
       243.000         207.000
  21116559.235    -2093865.04249  -1617322.18847  21116559.160    21116568.433
       241.000         205.000
  24063849.322    19489281.86449  15178471.88245  24063849.334    24063860.373
       214.000         147.000
  20320425.590   -14425184.72849 -11229940.97148  20320425.242    20320434.584
       249.000         217.000
  21226340.839   -20045661.28549 -15608687.51947  21226339.801    21226350.231
       239.000         201.000
  22986130.470   -13544130.17449 -10237866.61746  22986130.673    22986144.046
       223.000         174.000
  24962495.664    19098410.14649  14881522.79045  24962496.683    24962524.918
       206.000         139.000
 00  4 17 20 27  0.0000000  0  8G17G30G24G 4G 5G10G 6G 9
  24838718.421    -4582857.07149  -2935461.36945  24838716.424    24838742.825
       201.000         140.000
  21047616.501   -23416562.10249 -18232541.18547  21047616.518    21047626.138
       244.000         207.000
  21127815.245    -2034714.51949  -1571230.89947  21127815.108    21127824.261
       242.000         205.000
  24082271.425    19586090.24849  15253906.93145  24082271.071    24082282.308
       217.000         147.000
  20324921.921   -14401556.55649 -11211529.44748  20324921.560    20324930.957
       249.000         217.000
  21216747.880   -20096072.25149 -15647968.69847  21216746.832    21216757.599
       239.000         201.000
  22973128.549   -13612454.88449 -10291106.48246  22973127.445    22973141.788
       225.000         174.000
  24979243.306    19186416.95949  14950098.95345  24979244.949    24979273.774
       206.000         140.000
 00  4 17 20 27 30.0000000  0  7G17G30G24G 4G 5G10G 6
  24821310.949    -4674331.98949  -3006740.01845  24821309.065    24821334.659
       203.000         140.000
  21037864.514   -23467809.04149 -18272473.81447  21037864.719    21037874.266
       244.000         207.000
  21139112.436    -1975347.38249  -1524970.82147  21139112.037    21139121.379
       242.000         205.000
  24100696.676    19682915.15849  15329354.84845  24100696.915    24100707.829
       214.000         147.000
  20329528.602   -14377348.50849 -11192666.07548  20329528.111    20329537.471
       249.000         217.000
  21207259.077   -20145935.86449 -15686823.36647  21207258.011    21207268.669
       239.000         202.000
  22960136.882   -13680726.17349 -10344304.72546  22960136.868    22960150.217
       225.000         174.000
 00  4 17 20 28  0.0000000  0  7G17G30G24G 4G 5G10G 6
  24803934.798    -4765642.31949  -3077890.39345  24803932.915    24803960.083
       204.000         140.000
  21028207.476   -23518556.87549 -18312017.53547  21028207.565    21028217.099
       243.000         207.000
  21150451.705    -1915759.19349  -1478538.49247  21150451.447    21150461.049
       241.000         204.000
  24119121.206    19779736.77649  15404800.22145  24119120.780    24119131.608
       216.000         146.000
  20334246.695   -14352554.67849 -11173346.24948  20334246.184    20334255.610
       248.000         217.000
  21197877.137   -20195237.83549 -15725240.38947  21197875.946    21197886.746
       239.000         202.000
  22947154.490   -13748948.26349 -10397464.62446  22947153.516    22947167.653
       224.000         175.000
 00  4 17 20 28 30.0000000  0  7G17G30G24G 4G 5G10G 6
  24786587.124    -4856802.62249  -3148923.84445  24786584.555    24786611.564
       204.000         141.000
  21018643.585   -23568815.33749 -18351179.91547  21018643.466    21018653.055
       244.000         207.000
  21161830.955    -1855960.80249  -1431942.36247  21161830.759    21161839.939
       241.000         204.000
  24137541.391    19876535.32949  15480227.61345  24137541.468    24137551.909
       216.000         146.000
  20339075.137   -14327181.16149 -11153574.72148  20339074.762    20339084.161
       249.000         217.000
  21188598.974   -20243994.36649 -15763232.40147  21188597.909    21188608.310
       239.000         202.000
  22934177.917   -13817139.94249 -10450600.82246  22934177.539    22934191.174
       226.000         175.000
 00  4 17 20 29  0.0000000  0  7G17G30G24G 4G 5G10G 6
  24769270.966    -4947797.89849  -3219828.65945  24769269.382    24769296.230
       208.000         142.000
  21009175.093   -23618572.20149 -18389951.45447  21009175.480    21009184.931
       245.000         208.000
  21173253.799    -1795933.46149  -1385167.84147  21173253.632    21173263.004
       243.000         204.000
  24155959.032    19973320.52249  15555644.59445  24155959.757    24155969.492
       212.000         146.000
  20344011.320   -14301241.52949 -11133362.07048  20344011.144    20344020.652
       250.000         217.000
  21179426.433   -20292196.02149 -15800792.04447  21179425.579    21179436.213
       241.000         202.000
  22921208.458   -13885294.24849 -10503707.90746  22921208.218    22921221.930
       226.000         175.000
 00  4 17 20 29 30.0000000  0  7G17G30G24G 4G 5G10G 6
  24751989.084    -5038612.50449  -3290592.67445  24751988.205    24752014.020
       207.000         142.000
  20999803.091   -23667822.21049 -18428328.03547  20999803.369    20999813.020
       244.000         208.000
  21184720.674    -1735674.62249  -1338212.93047  21184720.393    21184730.089
       241.000         204.000
  24174375.212    20070097.92749  15631055.49645  24174376.128    24174385.512
       212.000         145.000
  20349051.304   -14274756.26949 -11112724.25148  20349050.925    20349060.230
       249.000         217.000
  21170357.188   -20339854.77349 -15837928.63747  21170356.107    21170366.845
       239.000         202.000
  22908244.424   -13953419.86349 -10556792.62746  22908243.783    22908257.357
       226.000         175.000
 00  4 17 20 30  0.0000000  0  7G17G30G24G 4G 5G10G 6
  24734739.343    -5129258.44449  -3361225.24745  24734737.338    24734763.253
       207.000         143.000
  20990527.693   -23716564.50249 -18466308.99447  20990527.850    20990537.353
       244.000         208.000
  21196230.998    -1675187.49849  -1291080.13347  21196230.805    21196240.450
       241.000         203.000
  24192787.299    20166853.90149  15706449.71645  24192788.061    24192798.043
       212.000         144.000
  20354192.261   -14247740.57549 -11091673.10748  20354191.796    20354201.390
       249.000         217.000
  21161391.467   -20386969.49349 -15874641.31947  21161390.634    21161401.005
       239.000         202.000
  22895283.170   -14021530.94049 -10609866.03646  22895282.706    22895296.652
       224.000         176.000
 00  4 17 20 30 30.0000000  0  7G17G30G24G 4G 5G10G 6
  24717519.339    -5219748.01449  -3431735.95845  24717517.858    24717543.642
       208.000         144.000
  20981348.720   -23764799.96849 -18503895.02647  20981348.774    20981358.294
       243.000         208.000
  21207785.265    -1614469.47549  -1243767.41347  21207785.166    21207794.414
       241.000         203.000
  24211197.284    20263598.96949  15781835.43845  24211198.016    24211207.081
       211.000         145.000
  20359430.795   -14220212.02149 -11070222.33348  20359430.460    20359439.934
       247.000         217.000
  21152529.377   -20433539.64649 -15910929.66747  21152528.379    21152539.089
       239.000         203.000
  22882326.762   -14089616.71049 -10662919.70546  22882325.885    22882340.300
       225.000         176.000
 00  4 17 20 31  0.0000000  0  7G17G30G24G 4G 5G10G 6
  24700328.187    -5310085.85849  -3502128.43845  24700325.900    24700351.604
       213.000         143.000
  20972262.993   -23812545.67549 -18541099.43147  20972263.114    20972272.809
       244.000         208.000
  21219381.805    -1553529.25049  -1196281.55347  21219381.768    21219391.353
       241.000         203.000
  24229602.437    20360318.56349  15857201.30545  24229601.886    24229613.419
       209.000         144.000
  20364763.686   -14192187.69849 -11048385.24848  20364763.318    20364772.934
       247.000         217.000
  21143770.657   -20479566.60349 -15946794.75547  21143769.823    21143780.566
       239.000         203.000
  22869374.271   -14157681.55549 -10715957.06946  22869373.532    22869387.118
       224.000         176.000
 00  4 17 20 31 30.0000000  0  7G17G30G24G 4G 5G10G 6
  24683164.625    -5400278.53249  -3572407.80645  24683162.722    24683188.228
       211.000         144.000
  20963268.145   -23859813.73649 -18577931.64247  20963268.231    20963277.760
       246.000         208.000
  21231019.933    -1492370.64649  -1148625.52347  21231019.681    21231029.409
       243.000         203.000
  24248000.846    20457002.56849  15932539.45345  24247999.939    24248012.028
       213.000         144.000
  20370192.263   -14163660.53749 -11026156.34148  20370191.810    20370201.503
       248.000         217.000
  21135112.920   -20525062.92349 -15982246.34947  21135111.996    21135122.534
       241.000         203.000
  22856425.455   -14225727.17949 -10768979.45646  22856424.237    22856438.277
       226.000         176.000
 00  4 17 20 32  0.0000000  0  7G17G30G24G 4G 5G10G 6
  24666026.969    -5490334.80149  -3642580.89045  24666025.296    24666050.773
       212.000         144.000
  20954364.419   -23906603.03849 -18614390.79947  20954364.515    20954373.902
       245.000         209.000
  21242698.497    -1430999.36849  -1100803.77647  21242698.366    21242707.692
       241.000         203.000
  24266390.224    20553639.10749  16007840.58245  24266389.118    24266401.291
       208.000         144.000
  20375716.332   -14134631.55249 -11003536.40748  20375715.965    20375725.567
       247.000         217.000
  21126558.129   -20570018.18249 -16017276.34647  21126556.999    21126568.023
       239.000         203.000
  22843483.106   -14293739.00249 -10821975.50846  22843482.616    22843496.274
       225.000         177.000
 00  4 17 20 32 30.0000000  0  7G17G30G24G 4G 5G10G 6
  24648916.627    -5580247.83849  -3712642.38145  24648914.701    24648939.858
       211.000         145.000
  20945550.968   -23952917.73849 -18650480.13547  20945551.217    20945560.604
       244.000         209.000
  21254417.840    -1369414.05549  -1052815.24847  21254417.703    21254427.009
       241.000         202.000
  24284769.461    20650222.27749  16083100.15545  24284769.184    24284779.888
       211.000         143.000
  20381336.896   -14105095.51749 -10980521.37148  20381336.564    20381346.296
       247.000         217.000
  21118105.914   -20614434.60749 -16051886.46747  21118105.010    21118115.663
       239.000         203.000
  22830547.345   -14361716.07849 -10874944.47446  22830546.152    22830560.370
       225.000         177.000
 00  4 17 20 33  0.0000000  0  7G17G30G24G 4G 5G10G 6
  24631835.525    -5670007.28449  -3782584.21045  24631834.086    24631859.251
       213.000         146.000
  20936829.684   -23998748.27449 -18686192.20347  20936829.834    20936839.343
       244.000         209.000
  21266177.915    -1307614.64849  -1004659.89347  21266177.871    21266187.427
       240.000         202.000
  24303137.268    20746745.89149  16158313.30445  24303136.569    24303149.161
       206.000         142.000
  20387056.356   -14075039.64549 -10957101.26548  20387055.915    20387065.592
       247.000         217.000
  21109754.900   -20658319.13149 -16086082.12047  21109754.051    21109764.648
       239.000         203.000
  22817617.666   -14429661.28149 -10927888.61246  22817617.152    22817630.659
       226.000         177.000
 00  4 17 20 33 30.0000000  0  7G17G30G24G 4G 5G10G 6
  24614785.115    -5759605.64649  -3852400.54945  24614782.820    24614807.328
       213.000         145.000
  20928205.195   -24044070.17249 -18721507.93747  20928205.315    20928214.640
       244.000         209.000
  21277978.909    -1245599.90449   -956336.74747  21277978.962    21277988.369
       241.000         202.000
  24321495.855    20843220.34349  16233488.16545  24321496.009    24321505.869
       210.000         142.000
  20392877.668   -14044448.57249 -10933264.12448  20392877.285    20392886.977
       247.000         217.000
  21101506.185   -20701666.33849 -16119859.09247  21101505.412    21101515.730
       239.000         203.000
  22804693.793   -14497575.99749 -10980809.00246  22804693.669    22804705.934
       225.000         178.000
 00  4 17 20 34  0.0000000  0  7G17G30G24G 4G 5G10G 6
  24597766.557    -5849036.36849  -3922086.29345  24597765.102    24597790.236
       212.000         146.000
  20919680.481   -24088867.48549 -18756414.89947  20919680.866    20919690.143
       245.000         209.000
  21289818.931    -1183380.49849   -907854.11947  21289818.845    21289828.407
       241.000         202.000
  24339845.220    20939646.73949  16308625.59145  24339844.027    24339855.750
       209.000         142.000
  20398803.053   -14013310.83649 -10909001.01048  20398802.773    20398812.390
       247.000         217.000
  21093363.360   -20744456.78949 -16153202.22847  21093362.389    21093372.965
       240.000         204.000
  22791776.261   -14565457.42249 -11033703.43546  22791775.522    22791788.813
       227.000         178.000
 00  4 17 20 34 30.0000000  0  7G17G30G24G 4G 5G10G 6
  24580781.577    -5938290.98749  -3991634.85145  24580780.060    24580804.225
       215.000         145.000
  20911255.315   -24133142.12049 -18790914.57847  20911255.679    20911264.902
       246.000         209.000
  21301698.765    -1120951.74549   -859208.36447  21301698.781    21301708.213
       242.000         202.000
  24358188.144    21036039.12049  16383736.46945  24358188.027    24358198.405
       210.000         142.000
  20404835.776   -13981608.80749 -10884298.18748  20404835.286    20404844.907
       248.000         217.000
  21085326.299   -20786691.59949 -16186112.40047  21085325.403    21085335.860
       241.000         204.000
  22778867.172   -14633294.44149 -11086563.26346  22778866.549    22778879.352
       227.000         178.000
 00  4 17 20 35  0.0000000  0  7G17G30G24G 4G 5G10G 6
  24563829.174    -6027374.52549  -4061050.11445  24563827.036    24563851.721
       214.000         146.000
  20902931.159   -24176885.69249 -18825000.44147  20902931.282    20902940.768
       244.000         209.000
  21313617.619    -1058318.06149   -810402.92047  21313617.660    21313626.917
       241.000         202.000
  24376525.857    21132404.12749  16458826.03645  24376526.932    24376536.365
       210.000         142.000
  20410977.174   -13949335.84449 -10859150.48448  20410976.775    20410986.554
       247.000         217.000
  21077395.034   -20828370.35749 -16218589.28447  21077394.064    21077404.646
       240.000         204.000
  22765968.898   -14701074.78249 -11139378.93446  22765968.398    22765981.183
       227.000         178.000
 00  4 17 20 35 30.0000000  0  7G17G30G24G 4G 5G10G 6
  24546906.698    -6116300.61349  -4130342.72245  24546904.981    24546929.750
       215.000         146.000
  20894706.934   -24220104.25549 -18858677.20347  20894707.255    20894716.466
       244.000         209.000
  21325575.714     -995478.10249   -761436.74147  21325575.721    21325584.984
       240.000         201.000
  24394860.151    21228751.17649  16533901.63245  24394860.260    24394870.791
       211.000         143.000
  20417225.708   -13916499.79849 -10833564.01348  20417225.439    20417235.010
       246.000         217.000
  21069573.500   -20869472.56749 -16250616.89947  21069572.778    21069583.176
       240.000         204.000
  22753082.844   -14768790.78149 -11192144.47146  22753082.149    22753095.707
       226.000         178.000
 00  4 17 20 36  0.0000000  0  7G17G30G24G 4G 5G10G 6
  24530012.106    -6205079.99849  -4199521.03745  24530010.387    24530034.462
       214.000         145.000
  20886578.439   -24262819.69549 -18891961.92147  20886578.652    20886588.001
       245.000         210.000
  21337573.797     -932427.73749   -712306.61347  21337573.565    21337583.102
       241.000         201.000
  24413190.672    21325078.92349  16608962.13445  24413190.050    24413202.054
       204.000         141.000
  20423577.472   -13883121.18349 -10807554.76148  20423577.082    20423586.740
       247.000         216.000
  21061862.204   -20909995.44649 -16282193.08347  21061861.337    21061871.764
       240.000         204.000
  22740210.297   -14836435.76849 -11244854.67046  22740210.260    22740222.541
       227.000         179.000
 00  4 17 20 36 30.0000000  0  7G17G30G24G 4G 5G10G 6
  24513142.610    -6293727.84249  -4268596.87445  24513140.406    24513164.457
       213.000         146.000
  20878544.898   -24305036.08849 -18924857.77147  20878545.024    20878554.209
       244.000         210.000
  21349615.040     -869150.64649   -662999.81347  21349614.879    21349624.449
       240.000         201.000
  24431516.706    21421382.49349  16684003.85645  24431517.532    24431527.707
       211.000         141.000
  20430028.988   -13849218.54949 -10781137.17848  20430028.645    20430038.419
       247.000         216.000
  21054260.304   -20949943.36549 -16313321.24847  21054259.290    21054269.736
       240.000         204.000
  22727347.522   -14904029.51449 -11297524.93146  22727346.675    22727359.996
       227.000         179.000
 00  4 17 20 37  0.0000000  0  7G17G30G24G 4G 5G10G 6
  24496297.931    -6382245.50849  -4337571.26145  24496296.387    24496319.741
       216.000         146.000
  20870608.854   -24346740.12849 -18957354.38347  20870608.948    20870618.453
       245.000         210.000
  21361699.077     -805648.80949   -613517.89047  21361699.183    21361708.488
       240.000         201.000
  24449836.762    21517654.86449  16759021.23945  24449835.511    24449848.146
       207.000         140.000
  20436577.582   -13814805.93849 -10754322.21348  20436577.072    20436586.853
       247.000         216.000
  21046770.859   -20989300.48549 -16343989.05947  21046769.725    21046780.199
       240.000         204.000
  22714490.034   -14971595.33849 -11350173.45646  22714489.986    22714502.817
       227.000         179.000
 00  4 17 20 37 30.0000000  0  7G17G30G24G 4G 5G10G 6
  24479479.495    -6470625.38549  -4406438.30845  24479477.071    24479502.890
       214.000         146.000
  20862770.507   -24387930.60149 -18989450.81747  20862770.694    20862780.182
       245.000         210.000
  21373825.597     -741923.53049   -563861.85847  21373825.489    21373835.149
       240.000         201.000
  24468150.980    21613896.62349  16834014.76845  24468151.901    24468163.057
       204.000         141.000
  20443222.682   -13779885.73749 -10727111.72548  20443222.422    20443231.914
       247.000         216.000
  21039394.852   -21028061.27249 -16374192.19047  21039393.811    21039404.406
       240.000         204.000
  22701636.090   -15039142.67549 -11402807.57646  22701635.904    22701648.696
       227.000         179.000
 00  4 17 20 38  0.0000000  0  7G17G30G24G 4G 5G10G 6
  24462690.895    -6558848.53549  -4475183.23145  24462688.543    24462713.121
       213.000         146.000
  20855032.807   -24428592.30549 -19021135.21847  20855032.901    20855042.459
       245.000         210.000
  21385990.001     -677999.26049   -514050.75947  21385989.747    21385999.499
       240.000         201.000
  24486456.693    21710093.81249  16908973.56245  24486455.490    24486466.571
       208.000         140.000
  20449966.575   -13744446.61549 -10699496.87948  20449966.043    20449975.839
       247.000         216.000
  21032131.223   -21066231.63249 -16403935.24847  21032129.929    21032140.517
       240.000         205.000
  22688785.696   -15106671.38949 -11455427.17646  22688785.271    22688797.166
       227.000         179.000
 00  4 17 20 38 30.0000000  0  7G17G30G24G 4G 5G10G 6
  24445934.876    -6646900.10649  -4543794.43645  24445933.652    24445956.754
       213.000         147.000
  20847399.819   -24468703.91949 -19052390.98047  20847399.945    20847409.305
       244.000         210.000
  21398189.330     -613891.38349   -464096.59747  21398188.992    21398198.482
       240.000         200.000
  24504751.867    21806235.47549  16983889.11745  24504752.153    24504763.210
       201.000         140.000
  20456812.924   -13708468.96049 -10671462.40348  20456812.583    20456822.399
       246.000         216.000
  21024979.457   -21103814.00249 -16433220.13447  21024978.410    21024988.718
       240.000         205.000
  22675940.422   -15174172.99249 -11508025.65846  22675939.524    22675952.831
       228.000         179.000
 00  4 17 20 39  0.0000000  0  7G17G30G24G 4G 5G10G 6
  24429215.850    -6734757.61149  -4612254.41545  24429214.797    24429238.175
       214.000         146.000
  20839871.257   -24508266.65549 -19083219.04347  20839871.377    20839880.866
       245.000         210.000
  21410419.816     -549619.88549   -414014.93647  21410419.655    21410429.336
       240.000         200.000
  24523037.298    21902325.67749  17058764.56045  24523037.814    24523047.640
       207.000         138.000
  20463763.856   -13671941.94949 -10642999.85748  20463763.631    20463773.237
       247.000         216.000
  21017939.128   -21140810.98749 -16462048.87247  21017938.114    21017948.234
       241.000         205.000
  22663105.791   -15241618.72949 -11560580.61946  22663105.409    22663118.372
       228.000         180.000
 00  4 17 20 39 30.0000000  0  7G17G30G24G 4G 5G10G 6
  24412533.343    -6822423.17749  -4680564.84045  24412531.706    24412555.885
       214.000         147.000
  20832445.482   -24547289.21649 -19113626.18847  20832445.428    20832455.290
       244.000         211.000
  21422678.988     -485197.69249   -363815.84747  21422678.828    21422688.528
       240.000         200.000
  24541311.767    21998358.88149  17133595.58245  24541312.713    24541322.840
       205.000         138.000
  20470819.815   -13634862.86649 -10614107.12448  20470819.577    20470829.307
       246.000         216.000
  21011006.807   -21177240.20349 -16490435.19347  21011005.773    21011016.181
       240.000         205.000
  22650286.404   -15308984.35049 -11613073.14846  22650285.234    22650298.277
       228.000         180.000
 00  4 17 20 40  0.0000000  0  7G17G30G24G 4G 5G10G 6
  24395886.871    -6909899.01149  -4748727.40045  24395885.490    24395908.219
       213.000         147.000
  20825121.305   -24585777.69149 -19143617.16247  20825121.528    20825130.963
       245.000         211.000
  21434966.813     -420624.79049   -313499.32847  21434966.841    21434976.092
       240.000         200.000
  24559574.097    22094327.81149  17208376.53945  24559575.020    24559584.870
       208.000         140.000
  20477979.603   -13597238.13349 -10584789.21348  20477979.310    20477988.904
       246.000         216.000
  21004182.389   -21213102.44149 -16518379.71947  21004181.328    21004191.509
       240.000         205.000
  22637482.599   -15376268.06149 -11665501.85746  22637482.087    22637495.131
       228.000         180.000
 00  4 17 20 40 30.0000000  0  7G17G30G24G 4G 5G10G 6
  24379274.428    -6997196.56649  -4816751.03545  24379272.041    24379296.310
       214.000         148.000
  20817896.540   -24623744.06849 -19173201.30547  20817896.770    20817905.960
       246.000         211.000
  21447287.481     -355879.27249   -263048.29547  21447287.322    21447296.906
       241.000         200.000
  24577825.801    22190240.83749  17283113.91945  24577824.946    24577837.371
       204.000         137.000
  20485241.080   -13559079.08049 -10555054.94248  20485240.763    20485250.450
       248.000         216.000
  20997465.127   -21248401.44549 -16545885.36147  20997463.998    20997474.444
       241.000         205.000
  22624692.117   -15443482.16149 -11717876.33346  22624691.952    22624704.166
       229.000         180.000
 00  4 17 20 41  0.0000000  0  7G17G30G24G 4G 5G10G 6
  24362694.294    -7084323.82149  -4884641.96045  24362692.139    24362716.382
       214.000         148.000
  20810770.541   -24661191.29149 -19202380.91047  20810770.763    20810780.089
       245.000         211.000
  21459641.717     -290957.46149   -212459.89547  21459641.739    21459651.173
       240.000         200.000
  24596068.403    22286106.15549  17357814.12445  24596069.385    24596078.864
       208.000         136.000
  20492600.550   -13520404.94249 -10524919.30848  20492600.068    20492609.930
       247.000         216.000
  20990855.396   -21283135.49449 -16572950.77947  20990854.534    20990864.651
       241.000         205.000
  22611912.281   -15510639.96349 -11770206.93646  22611911.679    22611924.799
       228.000         180.000
 00  4 17 20 41 30.0000000  0  6G17G30G24G 5G10G 6
  24346147.603    -7171275.61749  -4952396.16145  24346146.174    24346169.015
       215.000         149.000
  20803745.892   -24698105.77849 -19231145.40747  20803745.996    20803755.186
       246.000         211.000
  21472034.126     -225835.17749   -161715.28447  21472033.900    21472043.709
       241.000         199.000
  20500060.462   -13481203.27749 -10494372.61748  20500060.104    20500069.865
       248.000         216.000
  20984356.193   -21317288.80549 -16599563.67247  20984355.153    20984365.642
       242.000         205.000
  22599142.281   -15577746.28149 -11822497.44146  22599142.020    22599154.723
       229.000         180.000
 00  4 17 20 42  0.0000000  0  6G17G30G24G 5G10G 6
  24329633.513    -7258055.97049  -5020016.76645  24329632.106    24329654.500
       214.000         149.000
  20796823.383   -24734483.61149 -19259491.73647  20796823.519    20796832.834
       245.000         211.000
  21484465.148     -160509.88849   -110812.49147  21484465.034    21484474.434
       240.000         199.000
  20507619.184   -13441482.23949 -10463421.22448  20507618.771    20507628.610
       247.000         216.000
  20977967.145   -21350863.20449 -16625725.47947  20977966.096    20977976.503
       241.000         206.000
  22586376.401   -15644830.89949 -11874771.02646  22586375.658    22586388.668
       229.000         180.000
 00  4 17 20 42 30.0000000  0  6G17G30G24G 5G10G 6
  24313153.378    -7344657.81049  -5087498.25545  24313152.545    24313174.262
       214.000         149.000
  20790006.599   -24770305.92449 -19287405.18847  20790006.688    20790015.879
       245.000         211.000
  21496932.895      -94991.52949    -59759.24847  21496932.713    21496942.319
       239.000         199.000
  20515276.495   -13401243.11549 -10432066.12248  20515276.100    20515285.974
       246.000         216.000
  20971688.503   -21383857.43549 -16651435.21047  20971687.603    20971697.836
       241.000         206.000
  22573616.335   -15711884.89549 -11927020.74946  22573615.441    22573628.259
       228.000         180.000
 00  4 17 20 43  0.0000000  0  6G17G30G24G 5G10G 6
  24296706.978    -7431082.48349  -5154841.69745  24296705.181    24296727.894
       213.000         150.000
  20783294.786   -24805576.67249 -19314888.85447  20783294.784    20783304.333
       246.000         211.000
  21509435.037      -29292.35549     -8565.11447  21509434.868    21509444.623
       242.000         199.000
  20523031.841   -13360488.63349 -10400309.44848  20523031.461    20523041.252
       247.000         215.000
  20965522.453   -21416260.10649 -16676683.98447  20965521.412    20965531.685
       242.000         206.000
  22560865.071   -15778892.60649 -11979234.42346  22560864.219    22560877.349
       228.000         180.000
 00  4 17 20 43 30.0000000  0  6G17G30G24G 5G10G 6
  24280293.356    -7517334.68849  -5222050.72745  24280292.683    24280314.260
       211.000         150.000
  20776686.629   -24840302.61749 -19341947.99847  20776686.669    20776696.169
       245.000         212.000
  21521970.948       36584.05749     42767.13147  21521970.540    21521980.462
       240.000         199.000
  20530885.321   -13319218.77349 -10368151.18648  20530884.974    20530894.850
       246.000         215.000
  20959469.593   -21448067.95749 -16701469.26047  20959468.422    20959478.678
       241.000         206.000
  22548122.471   -15845854.99149 -12031412.77046  22548121.750    22548135.349
       227.000         181.000
 00  4 17 20 44  0.0000000  0  6G17G30G24G 5G10G 6
  24263912.856    -7603413.23949  -5289124.44745  24263911.304    24263934.218
       213.000         151.000
  20770182.401   -24874482.39249 -19368581.56247  20770182.552    20770191.859
       245.000         212.000
  21534537.463      102621.53249     94224.87447  21534537.300    21534546.962
       240.000         198.000
  20538833.323   -13277451.96249 -10335605.68748  20538833.012    20538842.867
       247.000         215.000
  20953530.490   -21479277.55649 -16725788.37547  20953529.623    20953539.671
       241.000         206.000
  22535389.527   -15912766.24149 -12083551.26846  22535388.665    22535401.843
       228.000         181.000
 00  4 17 20 44 30.0000000  0  6G17G30G24G 5G10G 6
  24247562.825    -7689331.26149  -5356073.08045  24247560.833    24247584.093
       211.000         151.000
  20763775.552   -24908150.54749 -19394816.45947  20763775.717    20763785.125
       245.000         212.000
  21547131.052      168801.08849    145793.32947  21547131.042    21547140.490
       240.000         198.000
  20546871.926   -13235209.07449 -10302689.22148  20546871.497    20546881.552
       246.000         215.000
  20947704.843   -21509891.20649 -16749643.11047  20947703.846    20947713.981
       240.000         206.000
  22522666.943   -15979623.41049 -12135647.61946  22522666.582    22522678.792
       229.000         181.000
 00  4 17 20 45  0.0000000  0  6G17G30G24G 5G10G 6
  24231239.187    -7775110.52349  -5422913.59245  24231235.874    24231260.036
       212.000         151.000
  20757462.027   -24941328.12649 -19420669.09847  20757462.148    20757471.575
       245.000         212.000
  21559749.585      235111.87749    197464.04847  21559749.486    21559758.833
       240.000         198.000
  20554998.474   -13192503.93249 -10269412.55748  20554998.031    20555008.081
       246.000         215.000
  20941988.443   -21539930.99049 -16773050.67747  20941987.494    20941997.728
       240.000         206.000
  22509949.851   -16046451.55349 -12187721.34646  22509949.386    22509961.661
       228.000         181.000
 00  4 17 20 45 30.0000000  0  6G17G30G24G 5G10G 6
  24214944.891    -7860735.83149  -5489634.12445  24214943.354    24214965.531
       212.000         151.000
  20751244.970   -24973998.81849 -19446126.75747  20751245.262    20751254.522
       245.000         212.000
  21572392.519      301550.84649    249234.64847  21572392.334    21572401.974
       239.000         198.000
  20563214.488   -13149328.72249 -10235769.60548  20563214.143    20563224.136
       246.000         215.000
  20936377.932   -21569414.13449 -16796024.49647  20936376.938    20936387.151
       241.000         206.000
  22497236.128   -16113262.11249 -12239781.37746  22497235.578    22497248.078
       228.000         181.000
 00  4 17 20 46  0.0000000  0  6G17G30G24G 5G10G 6
  24198681.088    -7946200.59949  -5556229.56745  24198678.983    24198702.538
       213.000         152.000
  20745126.751   -25006150.26649 -19471179.81147  20745127.097    20745136.162
       246.000         212.000
  21585060.366      368120.78049    301107.30147  21585060.184    21585069.741
       240.000         198.000
  20571523.417   -13105665.37049 -10201746.28548  20571523.071    20571532.868
       247.000         215.000
  20930874.120   -21598336.71349 -16818561.51147  20930873.018    20930883.273
       241.000         206.000
  22484529.371   -16180036.02549 -12291812.85146  22484529.294    22484540.626
       229.000         181.000
 00  4 17 20 46 30.0000000  0  6G17G30G24G 5G10G 6
  24182448.796    -8031500.15949  -5622696.29345  24182446.691    24182469.595
       212.000         152.000
  20739109.049   -25037773.33449 -19495821.14247  20739109.363    20739118.424
       245.000         212.000
  21597755.127      434832.25949    353090.24747  21597755.105    21597764.654
       239.000         197.000
  20579930.067   -13061488.31149 -10167322.67848  20579929.761    20579939.824
       246.000         215.000
  20925478.355   -21626691.38449 -16840656.00147  20925477.413    20925487.632
       241.000         206.000
  22471830.511   -16246768.34849 -12343811.91146  22471830.446    22471842.257
       228.000         181.000
 00  4 17 20 47  0.0000000  0  6G17G30G24G 5G10G 6
  24166251.189    -8116617.30449  -5689020.86645  24166249.713    24166271.717
       212.000         153.000
  20733199.344   -25068828.98149 -19520020.31447  20733199.315    20733208.565
       247.000         212.000
  21610479.603      501699.76449    405194.78247  21610479.197    21610488.970
       240.000         197.000
  20588439.926   -13016769.14449 -10132476.64048  20588439.370    20588449.397
       247.000         215.000
  20920195.119   -21654454.85249 -16862289.80747  20920193.991    20920204.093
       243.000         206.000
  22459141.212   -16313450.29849 -12395771.71446  22459140.950    22459152.715
       230.000         182.000
 00  4 17 20 47 30.0000000  0  6G17G30G24G 5G10G 6
  24150091.597    -8201534.53049  -5755189.66545  24150090.061    24150112.381
       213.000         153.000
  20727399.416   -25099307.74849 -19543769.98247  20727399.680    20727409.079
       246.000         212.000
  21623234.722      568728.24649    457424.73547  21623234.436    21623244.143
       240.000         197.000
  20597056.832   -12971487.20049 -10097192.09148  20597056.485    20597066.426
       247.000         214.000
  20915031.495   -21681589.54149 -16883433.67447  20915030.875    20915040.812
       241.000         207.000
  22446465.561   -16380060.80449 -12447675.85746  22446464.946    22446476.999
       229.000         182.000
 00  4 17 20 48  0.0000000  0  6G17G30G24G 5G10G 6
  24133969.665    -8286254.04849  -5821204.39445  24133967.882    24133990.098
       212.000         152.000
  20721708.904   -25129211.54749 -19567071.61447  20721709.259    20721718.372
       245.000         212.000
  21636019.326      635911.58449    509775.36347  21636019.086    21636028.838
       239.000         197.000
  20605781.573   -12925638.63549 -10061466.00748  20605781.284    20605791.354
       246.000         214.000
  20909990.275   -21708081.11549 -16904076.40247  20909989.416    20909999.377
       241.000         207.000
  22433805.744   -16446587.89849 -12499514.98946  22433805.370    22433817.764
       229.000         182.000
